[[{"header":{"parameterUnit":"m.s-1","parameterCategory":1,"la1":30.6,"la2":28.766,"lo1":-90.7593,"lo2":-88.6598,"dy":0.0162,"dx":0.0183,"nx":116,"ny":114,"refTime":"2023-08-29T06:00:00:Z","depth":0,"parameterNumber":2,"parameterNumberName":"U-component_of_WINDS"},"data":[0.0,0.0,0.0,0.0,0.0,0.0,0.0,0.0,0.0,0.0,0.0,0.0,0.0,0.0,0.0,0.0,0.0,0.0,0.0,0.0,0.0,0.0,0.0,0.0,0.0,0.0,0.0,0.0,0.0,0.0,0.0,0.0,0.0,0.0,0.0,0.0,0.0,0.0,0.0,0.0,0.0,0.0,0.0,0.0,0.0,0.0,0.0,0.0,0.0,0.0,0.0,0.0,0.0,0.0,0.0,0.0,0.0,0.0,0.0,0.0,0.0,0.0,0.0,0.0,0.0,0.0,0.0,0.0,0.0,0.0,0.0,0.0,0.0,0.0,0.0,0.0,0.0,0.0,0.0,0.0,0.0,0.0,0.0,0.0,0.0,0.0,0.0,0.0,0.0,0.0,0.0,0.0,0.0,0.0,0.0,0.0,0.0,0.0,0.0,0.0,0.0,0.0,0.0,0.0,0.0,0.0,0.0,0.0,0.0,0.0,0.0,0.0,0.0,0.0,0.0,0.0,0.0,0.0,0.0,0.0,0.0,0.0,0.0,0.0,0.0,0.0,0.0,0.0,0.0,0.0,0.0,0.0,0.0,0.0,0.0,0.0,0.0,0.0,0.0,0.0,0.0,0.0,0.0,0.0,0.0,0.0,0.0,0.0,0.0,0.0,0.0,0.0,0.0,0.0,0.0,0.0,0.0,0.0,0.0,0.0,0.0,0.0,0.0,0.0,0.0,0.0,0.0,0.0,0.0,0.0,0.0,0.0,0.0,0.0,0.0,0.0,0.0,0.0,0.0,0.0,0.0,0.0,0.0,0.0,0.0,0.0,0.0,0.0,0.0,0.0,0.0,0.0,0.0,0.0,0.0,0.0,0.0,0.0,0.0,0.0,0.0,0.0,0.0,0.0,0.0,0.0,0.0,0.0,0.0,0.0,0.0,0.0,0.0,0.0,0.0,0.0,0.0,0.0,0.0,0.0,0.0,0.0,0.0,0.0,0.0,0.0,0.0,0.0,0.0,0.0,0.0,0.0,0.0,0.0,0.0,0.0,0.0,0.0,0.0,0.0,0.0,0.0,0.0,0.0,0.0,0.0,0.0,0.0,0.0,0.0,0.0,0.0,0.0,0.0,0.0,0.0,0.0,0.0,0.0,0.0,0.0,0.0,0.0,0.0,0.0,0.0,0.0,0.0,0.0,0.0,0.0,0.0,0.0,0.0,0.0,0.0,0.0,0.0,0.0,0.0,0.0,0.0,0.0,0.0,0.0,0.0,0.0,0.0,0.0,0.0,0.0,0.0,0.0,0.0,0.0,0.0,0.0,0.0,0.0,0.0,0.0,0.0,0.0,0.0,0.0,0.0,0.0,0.0,0.0,0.0,0.0,0.0,0.0,0.0,0.0,0.0,0.0,0.0,0.0,0.0,0.0,0.0,0.0,0.0,0.0,0.0,0.0,0.0,0.0,0.0,0.0,0.0,0.0,0.0,0.0,0.0,0.0,0.0,0.0,0.0,0.0,0.0,0.0,0.0,0.0,0.0,0.0,0.0,0.0,0.0,0.0,0.0,0.0,0.0,0.0,0.0,0.0,0.0,0.0,0.0,0.0,0.0,0.0,0.0,0.0,0.0,0.0,0.0,0.0,0.0,0.0,0.0,0.0,0.0,0.0,0.0,0.0,0.0,0.0,0.0,0.0,0.0,0.0,0.0,0.0,0.0,0.0,0.0,0.0,0.0,0.0,0.0,0.0,0.0,0.0,0.0,0.0,0.0,0.0,0.0,0.0,0.0,0.0,0.0,0.0,0.0,0.0,0.0,0.0,0.0,0.0,0.0,0.0,0.0,0.0,0.0,0.0,0.0,0.0,0.0,0.0,0.0,0.0,0.0,0.0,0.0,0.0,0.0,0.0,0.0,0.0,0.0,0.0,0.0,0.0,0.0,0.0,0.0,0.0,0.0,0.0,0.0,0.0,0.0,0.0,0.0,0.0,0.0,0.0,0.0,0.0,0.0,0.0,0.0,0.0,0.0,0.0,0.0,0.0,0.0,0.0,0.0,0.0,0.0,0.0,0.0,0.0,0.0,0.0,0.0,0.0,0.0,0.0,0.0,0.0,0.0,0.0,0.0,0.0,0.0,0.0,0.0,0.0,0.0,0.0,0.0,0.0,0.0,0.0,0.0,0.0,0.0,0.0,0.0,0.0,0.0,0.0,0.0,0.0,0.0,0.0,0.0,0.0,0.0,0.0,0.0,0.0,0.0,0.0,0.0,0.0,0.0,0.0,0.0,0.0,0.0,0.0,0.0,0.0,0.0,0.0,0.0,0.0,0.0,0.0,0.0,0.0,0.0,0.0,0.0,0.0,0.0,0.0,0.0,0.0,0.0,0.0,0.0,0.0,0.0,0.0,0.0,0.0,0.0,0.0,0.0,0.0,0.0,0.0,0.0,0.0,0.0,0.0,0.0,0.0,0.0,0.0,0.0,0.0,0.0,0.0,0.0,0.0,0.0,0.0,0.0,0.0,0.0,0.0,0.0,0.0,0.0,0.0,0.0,0.0,0.0,0.0,0.0,0.0,0.0,0.0,0.0,0.0,0.0,0.0,0.0,0.0,0.0,0.0,0.0,0.0,0.0,0.0,0.0,0.0,0.0,0.0,0.0,0.0,0.0,0.0,0.0,0.0,0.0,0.0,0.0,0.0,0.0,0.0,0.0,0.0,0.0,0.0,0.0,0.0,0.0,0.0,0.0,0.0,0.0,0.0,0.0,0.0,0.0,0.0,0.0,0.0,0.0,0.0,0.0,0.0,0.0,0.0,0.0,0.0,0.0,0.0,0.0,0.0,0.0,0.0,0.0,0.0,0.0,0.0,0.0,0.0,0.0,0.0,0.0,0.0,0.0,0.0,0.0,0.0,0.0,0.0,0.0,0.0,0.0,0.0,0.0,0.0,0.0,0.0,0.0,0.0,0.0,0.0,0.0,0.0,0.0,0.0,0.0,0.0,0.0,0.0,0.0,0.0,0.0,0.0,0.0,0.0,0.0,0.0,0.0,0.0,0.0,0.0,0.0,0.0,0.0,0.0,0.0,0.0,0.0,0.0,0.0,0.0,0.0,0.0,0.0,0.0,0.0,0.0,0.0,0.0,0.0,0.0,0.0,0.0,0.0,0.0,0.0,0.0,0.0,0.0,0.0,0.0,0.0,0.0,0.0,0.0,0.0,0.0,0.0,0.0,0.0,0.0,0.0,0.0,0.0,0.0,0.0,0.0,0.0,0.0,0.0,0.0,0.0,0.0,0.0,0.0,0.0,0.0,0.0,0.0,0.0,0.0,0.0,0.0,0.0,0.0,0.0,0.0,0.0,0.0,0.0,0.0,0.0,0.0,0.0,0.0,0.0,0.0,0.0,0.0,0.0,0.0,0.0,0.0,0.0,0.0,0.0,0.0,0.0,0.0,0.0,0.0,0.0,0.0,0.0,0.0,0.0,0.0,0.0,0.0,0.0,0.0,0.0,0.0,0.0,0.0,0.0,0.0,0.0,0.0,0.0,0.0,0.0,0.0,0.0,0.0,0.0,0.0,0.0,0.0,0.0,0.0,0.0,0.0,0.0,0.0,0.0,0.0,0.0,0.0,0.0,0.0,0.0,0.0,0.0,0.0,0.0,0.0,0.0,0.0,0.0,0.0,0.0,0.0,0.0,0.0,0.0,0.0,0.0,0.0,0.0,0.0,0.0,0.0,0.0,0.0,0.0,0.0,0.0,0.0,0.0,0.0,0.0,0.0,0.0,0.0,0.0,0.0,0.0,0.0,0.0,0.0,0.0,0.0,0.0,0.0,0.0,0.0,0.0,0.0,0.0,0.0,0.0,0.0,0.0,0.0,0.0,0.0,0.0,0.0,0.0,0.0,0.0,0.0,0.0,0.0,0.0,0.0,0.0,0.0,0.0,0.0,0.0,0.0,0.0,0.0,0.0,0.0,0.0,0.0,0.0,0.0,0.0,0.0,0.0,0.0,0.0,0.0,0.0,0.0,0.0,0.0,0.0,0.0,0.0,0.0,0.0,0.0,0.0,0.0,0.0,0.0,0.0,0.0,0.0,0.0,0.0,0.0,0.0,0.0,0.0,0.0,0.0,0.0,0.0,0.0,0.0,0.0,0.0,0.0,0.0,0.0,0.0,0.0,0.0,0.0,0.0,0.0,0.0,0.0,0.0,0.0,0.0,0.0,0.0,0.0,0.0,0.0,0.0,0.0,0.0,0.0,0.0,0.0,0.0,0.0,0.0,0.0,0.0,0.0,0.0,0.0,0.0,0.0,0.0,0.0,0.0,0.0,0.0,0.0,0.0,0.0,0.0,0.0,0.0,0.0,0.0,0.0,0.0,0.0,0.0,0.0,0.0,0.0,0.0,0.0,0.0,0.0,0.0,0.0,0.0,0.0,0.0,0.0,0.0,0.0,0.0,0.0,0.0,0.0,0.0,0.0,0.0,0.0,0.0,0.0,0.0,0.0,0.0,0.0,0.0,0.0,0.0,0.0,0.0,0.0,0.0,0.0,0.0,0.0,0.0,0.0,0.0,0.0,0.0,0.0,0.0,0.0,0.0,0.0,0.0,0.0,0.0,0.0,0.0,0.0,0.0,0.0,0.0,0.0,0.0,0.0,0.0,0.0,0.0,0.0,0.0,0.0,0.0,0.0,0.0,0.0,0.0,0.0,0.0,0.0,0.0,0.0,0.0,0.0,0.0,0.0,0.0,0.0,0.0,0.0,0.0,0.0,0.0,0.0,0.0,0.0,0.0,0.0,0.0,0.0,0.0,0.0,0.0,0.0,0.0,0.0,0.0,0.0,0.0,0.0,0.0,0.0,0.0,0.0,0.0,0.0,0.0,0.0,0.0,0.0,0.0,0.0,0.0,0.0,0.0,0.0,0.0,0.0,0.0,0.0,0.0,0.0,0.0,0.0,0.0,0.0,0.0,0.0,0.0,0.0,0.0,0.0,0.0,0.0,0.0,0.0,0.0,0.0,0.0,0.0,0.0,0.0,0.0,0.0,0.0,0.0,0.0,0.0,0.0,0.0,0.0,0.0,0.0,0.0,0.0,0.0,0.0,0.0,0.0,0.0,0.0,0.0,0.0,0.0,0.0,0.0,0.0,0.0,0.0,0.0,0.0,0.0,0.0,0.0,0.0,0.0,0.0,0.0,0.0,0.0,0.0,0.0,0.0,0.0,0.0,0.0,0.0,0.0,0.0,0.0,0.0,0.0,0.0,0.0,0.0,0.0,0.0,0.0,0.0,0.0,0.0,0.0,0.0,0.0,0.0,0.0,0.0,0.0,0.0,0.0,0.0,0.0,0.0,0.0,0.0,0.0,0.0,0.0,0.0,0.0,0.0,0.0,0.0,0.0,0.0,0.0,0.0,0.0,0.0,0.0,0.0,0.0,0.0,0.0,0.0,0.0,0.0,0.0,0.0,0.0,0.0,0.0,0.0,0.0,0.0,0.0,0.0,0.0,0.0,0.0,0.0,0.0,0.0,0.0,0.0,0.0,0.0,0.0,0.0,0.0,0.0,0.0,0.0,0.0,0.0,0.0,0.0,0.0,0.0,0.0,0.0,0.0,0.0,0.0,0.0,0.0,0.0,0.0,0.0,0.0,0.0,0.0,0.0,0.0,0.0,0.0,0.0,0.0,0.0,0.0,0.0,0.0,0.0,0.0,0.0,0.0,0.0,0.0,0.0,0.0,0.0,0.0,0.0,0.0,0.0,0.0,0.0,0.0,0.0,0.0,0.0,0.0,0.0,0.0,0.0,0.0,0.0,0.0,0.0,0.0,0.0,0.0,0.0,0.0,0.0,0.0,0.0,0.0,0.0,0.0,0.0,0.0,0.0,0.0,0.0,0.0,0.0,0.0,0.0,0.0,0.0,0.0,0.0,0.0,0.0,0.0,0.0,0.0,0.0,0.0,0.0,0.0,0.0,0.0,0.0,0.0,0.0,0.0,0.0,0.0,0.0,0.0,0.0,0.0,0.0,0.0,0.0,0.0,0.0,0.0,0.0,0.0,0.0,0.0,0.0,0.0,0.0,0.0,0.0,0.0,0.0,0.0,0.0,0.0,0.0,0.0,0.0,3.8588,0.0,0.0,0.0,0.0,0.0,0.0,0.0,0.0,0.0,0.0,0.0,0.0,0.0,0.0,0.0,0.0,0.0,0.0,0.0,0.0,0.0,0.0,0.0,0.0,0.0,0.0,0.0,0.0,0.0,0.0,0.0,0.0,0.0,0.0,0.0,0.0,0.0,0.0,4.1716,4.1303,4.1208,4.1446,4.2311,4.2215,4.1287,0.0,0.0,0.0,0.0,0.0,0.0,0.0,0.0,0.0,0.0,0.0,0.0,0.0,0.0,0.0,0.0,0.0,0.0,0.0,0.0,0.0,0.0,0.0,0.0,0.0,0.0,0.0,0.0,0.0,0.0,0.0,0.0,0.0,0.0,0.0,0.0,0.0,0.0,0.0,0.0,0.0,0.0,0.0,0.0,0.0,0.0,0.0,0.0,0.0,0.0,0.0,0.0,0.0,0.0,0.0,0.0,0.0,0.0,0.0,0.0,0.0,0.0,0.0,0.0,0.0,0.0,0.0,0.0,0.0,0.0,0.0,4.0519,0.0,0.0,0.0,0.0,0.0,0.0,0.0,0.0,0.0,0.0,0.0,0.0,0.0,0.0,0.0,0.0,0.0,0.0,0.0,0.0,0.0,0.0,0.0,4.3196,4.3643,4.4754,4.5418,4.552,0.0,0.0,0.0,0.0,0.0,0.0,4.1111,4.1088,4.1443,4.2165,4.156,4.2156,4.3858,4.438,4.3983,4.2762,4.2466,0.0,0.0,0.0,0.0,0.0,0.0,0.0,0.0,0.0,0.0,0.0,0.0,0.0,0.0,0.0,0.0,0.0,0.0,0.0,0.0,0.0,0.0,0.0,0.0,0.0,0.0,0.0,0.0,0.0,0.0,0.0,0.0,0.0,0.0,0.0,0.0,0.0,0.0,0.0,0.0,0.0,0.0,0.0,0.0,0.0,0.0,0.0,0.0,0.0,0.0,0.0,0.0,0.0,0.0,0.0,0.0,0.0,0.0,0.0,0.0,0.0,0.0,0.0,4.7496,4.799,4.8678,4.8678,4.8277,4.7513,4.6137,4.5048,4.4112,4.2412,0.0,0.0,0.0,0.0,0.0,0.0,0.0,0.0,0.0,0.0,0.0,0.0,0.0,0.0,0.0,0.0,0.0,0.0,0.0,0.0,0.0,4.3201,4.3926,4.5655,4.5235,4.4906,4.498,0.0,0.0,0.0,0.0,0.0,4.103,4.1069,4.1127,4.1186,4.1716,4.3209,4.5548,4.4718,4.5035,4.6185,4.472,4.4872,4.6061,0.0,0.0,0.0,0.0,0.0,0.0,0.0,0.0,0.0,0.0,0.0,0.0,0.0,0.0,0.0,0.0,0.0,0.0,0.0,0.0,0.0,0.0,0.0,0.0,0.0,0.0,0.0,0.0,0.0,0.0,0.0,0.0,0.0,0.0,0.0,0.0,0.0,0.0,0.0,0.0,0.0,3.7655,3.8348,0.0,0.0,0.0,0.0,0.0,0.0,0.0,0.0,0.0,0.0,0.0,0.0,0.0,4.5629,4.7152,4.8812,4.9691,4.9824,5.1276,5.2021,5.2136,5.2136,5.2079,5.1964,5.1735,0.0,4.4991,4.3311,0.0,0.0,0.0,0.0,0.0,0.0,0.0,0.0,0.0,0.0,0.0,0.0,0.0,0.0,0.0,0.0,0.0,0.0,0.0,0.0,0.0,4.3692,4.451,4.578,4.7329,4.727,4.4972,4.5819,0.0,0.0,0.0,4.1813,4.0912,4.0926,4.1432,4.2458,4.4289,4.5936,4.7359,4.7338,4.7922,4.8922,4.7662,4.6743,4.6103,4.5055,0.0,0.0,0.0,0.0,0.0,0.0,0.0,0.0,0.0,0.0,0.0,0.0,0.0,0.0,0.0,0.0,0.0,0.0,0.0,0.0,0.0,0.0,0.0,0.0,0.0,0.0,0.0,0.0,0.0,0.0,0.0,0.0,0.0,0.0,0.0,0.0,0.0,0.0,0.0,3.6765,3.8367,3.7775,3.8991,3.9141,0.0,0.0,0.0,0.0,0.0,0.0,0.0,0.0,0.0,4.7722,4.9025,5.0227,5.1381,5.258,5.3168,5.3168,5.3682,5.3925,5.3905,5.3262,5.3082,5.3221,5.2726,5.111,4.8716,4.7038,4.551,4.4019,0.0,0.0,0.0,0.0,4.136,4.2508,0.0,0.0,0.0,0.0,0.0,0.0,0.0,0.0,0.0,0.0,0.0,0.0,4.3318,4.4202,4.52,4.6728,4.8805,4.8736,4.5632,4.6378,4.526,4.1506,4.1643,4.1481,4.0799,4.1016,4.2249,4.4566,4.6569,4.8079,4.9161,4.9739,5.0187,5.0554,5.0068,4.8853,4.7145,4.664,4.5131,4.2929,0.0,0.0,0.0,0.0,0.0,0.0,0.0,0.0,0.0,0.0,0.0,0.0,0.0,0.0,0.0,0.0,0.0,0.0,0.0,0.0,0.0,0.0,0.0,0.0,0.0,0.0,0.0,0.0,0.0,0.0,0.0,0.0,0.0,0.0,0.0,0.0,0.0,3.838,3.9519,3.8082,4.0562,4.1253,0.0,0.0,0.0,0.0,0.0,0.0,4.6759,4.849,5.0183,5.1834,5.3226,5.4369,5.5159,5.5524,5.5708,5.5708,5.5189,5.4884,5.4758,5.3918,5.3572,5.3575,5.2911,5.2243,5.1486,4.9992,4.8006,4.5829,4.4991,4.415,4.3385,4.3158,4.3616,4.4494,0.0,0.0,0.0,0.0,0.0,0.0,0.0,0.0,0.0,0.0,0.0,3.9868,4.4085,4.457,4.5976,4.9401,4.833,4.7492,4.7452,4.4462,4.2572,4.2247,4.147,4.0935,4.0703,4.159,4.3726,4.7221,4.7331,4.8612,5.0883,5.0784,5.0669,5.0531,5.1251,5.1552,5.1214,4.7181,4.586,4.6167,4.2926,0.0,0.0,0.0,0.0,0.0,0.0,0.0,0.0,0.0,0.0,0.0,0.0,0.0,0.0,0.0,0.0,0.0,0.0,0.0,0.0,0.0,0.0,0.0,0.0,0.0,0.0,0.0,0.0,0.0,0.0,0.0,0.0,0.0,0.0,0.0,0.0,0.0,0.0,4.1547,4.4976,0.0,0.0,0.0,0.0,4.5036,4.6033,4.7684,5.0298,5.2029,5.3682,5.5289,5.616,5.6989,5.78,5.6964,5.653,5.653,5.574,5.5187,5.4806,5.4739,5.4303,5.3613,5.3556,5.2813,5.1501,5.0555,4.9139,4.7499,4.6553,4.5734,4.4982,4.4162,4.4433,4.5125,0.0,0.0,0.0,0.0,0.0,0.0,0.0,0.0,3.797,3.8909,3.9979,4.1654,4.4308,4.6067,4.7569,4.8822,5.0377,5.0199,4.765,4.5696,4.3914,4.2245,4.0759,4.045,4.1501,4.3006,4.495,4.7396,4.8564,4.9777,5.1003,5.0914,5.0726,5.0436,5.0688,5.0784,5.0707,4.9816,4.8062,4.5707,4.3963,4.1932,0.0,0.0,0.0,0.0,0.0,0.0,0.0,0.0,0.0,0.0,0.0,0.0,0.0,0.0,0.0,0.0,0.0,0.0,0.0,0.0,0.0,0.0,0.0,0.0,0.0,0.0,0.0,0.0,0.0,0.0,0.0,0.0,0.0,0.0,0.0,0.0,0.0,4.5669,4.7966,0.0,4.6233,4.6166,4.695,4.8522,5.0144,5.2107,5.4543,5.6316,5.7508,5.8035,5.8826,5.9371,5.9599,5.924,5.8498,5.7428,5.6873,5.5987,5.4758,5.3762,5.2986,5.2391,5.1845,5.1129,5.0396,5.0805,5.0005,4.8429,4.7505,4.6663,4.5868,4.5036,4.5309,4.6037,0.0,0.0,0.0,0.0,0.0,0.0,0.0,0.0,3.8106,3.9347,4.0481,4.2143,4.4723,4.6781,4.845,4.9674,5.1327,5.1019,4.808,4.6144,4.4094,4.1755,4.0447,4.062,4.2399,4.3929,4.558,4.7393,4.8658,4.9692,5.0532,5.0482,5.0417,5.0359,5.0298,5.0083,4.9849,5.0469,4.8968,4.6046,4.4935,4.333,4.134,0.0,0.0,0.0,0.0,0.0,0.0,0.0,0.0,0.0,0.0,0.0,0.0,0.0,0.0,0.0,0.0,0.0,0.0,0.0,0.0,0.0,0.0,0.0,0.0,0.0,0.0,0.0,0.0,0.0,0.0,0.0,0.0,0.0,0.0,4.444,4.701,4.7893,5.0128,5.0807,4.8827,4.9276,5.0374,5.1939,5.3563,5.5455,5.7608,5.9072,5.984,5.9816,6.0297,6.0552,6.0499,6.013,5.9262,5.7886,5.733,5.6272,5.4739,5.3294,5.2298,5.1659,5.0502,4.989,4.9703,5.0136,4.9857,4.915,4.891,4.8175,4.7115,4.6287,4.6218,4.645,0.0,0.0,0.0,0.0,0.0,0.0,0.0,3.6786,3.7456,3.927,3.9579,4.1203,4.5394,4.6646,4.8585,5.2097,5.081,4.9481,4.8701,4.5398,4.2666,4.0834,4.0583,4.1382,4.3293,4.4285,4.5633,4.7409,4.7584,4.8346,4.961,4.9594,4.9824,5.0264,5.0164,4.972,4.8986,4.8938,4.8414,4.7538,4.5891,4.4756,4.3787,0.0,0.0,0.0,0.0,0.0,0.0,0.0,0.0,0.0,0.0,0.0,0.0,0.0,0.0,0.0,0.0,0.0,0.0,0.0,0.0,0.0,0.0,0.0,0.0,0.0,0.0,0.0,0.0,0.0,0.0,0.0,0.0,0.0,4.3258,4.6724,4.9022,4.8314,5.1658,5.306,5.0621,5.1821,5.3493,5.5243,5.6225,5.75,5.9236,6.0144,6.0604,6.0604,6.0506,6.046,6.0499,5.9538,5.867,5.7886,5.7008,5.5976,5.475,5.3456,5.2413,5.148,4.972,4.9209,4.9456,4.852,4.8622,4.9499,5.0639,5.0134,4.8631,4.7758,4.702,4.6336,0.0,0.0,0.0,0.0,0.0,0.0,0.0,3.6428,3.746,3.9259,4.1117,4.3408,4.6485,4.8164,4.9235,4.9702,4.8716,4.722,4.517,4.235,4.051,3.9887,4.0326,4.1757,4.426,4.5806,4.6901,4.7549,4.8798,4.9524,4.9735,4.9104,4.908,4.9545,4.8848,4.8684,4.8914,4.884,4.8998,4.9086,4.6925,4.5563,4.4671,0.0,0.0,0.0,0.0,0.0,0.0,0.0,0.0,0.0,0.0,0.0,0.0,0.0,0.0,0.0,0.0,0.0,0.0,0.0,0.0,0.0,0.0,0.0,0.0,0.0,0.0,0.0,0.0,0.0,0.0,0.0,4.245,4.5336,4.6547,4.9075,5.1356,5.2895,5.3667,5.4163,5.4389,5.4259,5.4914,5.6825,5.7398,5.8355,6.0005,6.0365,6.0525,6.0525,5.9913,5.984,6.0417,5.8956,5.8116,5.7886,5.7008,5.5771,5.418,5.3308,5.208,5.0576,4.9224,4.834,4.7816,4.721,4.7037,4.729,4.839,4.8145,4.7124,4.6506,4.588,4.5314,0.0,0.0,0.0,0.0,0.0,0.0,0.0,3.6215,3.7065,3.9223,4.1125,4.3272,4.5868,4.7412,4.8097,4.7689,4.6869,4.526,4.2674,4.0668,3.9848,4.0481,4.1242,4.261,4.4659,4.605,4.6843,4.7002,4.8017,4.8751,4.9235,4.8736,4.8826,4.9335,4.8337,4.8102,4.8422,4.7927,4.8377,4.9254,4.782,4.6765,4.5897,4.4748,4.3219,4.1566,4.0709,4.0292,3.9868,3.8341,0.0,0.0,0.0,0.0,0.0,0.0,0.0,0.0,0.0,0.0,0.0,0.0,0.0,0.0,0.0,0.0,0.0,0.0,0.0,0.0,0.0,0.0,0.0,0.0,4.4836,4.749,4.9894,5.1499,5.3072,5.4789,5.4503,5.4499,5.5322,5.5246,5.5689,5.6958,5.787,5.862,5.9197,5.9607,5.9579,5.9044,5.8529,5.8481,5.8965,5.8014,5.7444,5.727,5.6245,5.5038,5.367,5.2203,5.0799,4.941,4.796,4.7022,4.6507,4.5856,4.5762,0.0,0.0,0.0,0.0,0.0,4.473,4.4484,0.0,0.0,0.0,0.0,0.0,0.0,0.0,3.6118,3.6538,3.9157,4.0391,4.1942,4.4302,4.5493,4.6055,4.5937,4.5108,4.357,4.1127,3.9888,4.0043,4.1831,4.2589,4.3477,4.4529,4.5422,4.5917,4.6026,4.6292,4.7153,4.8507,4.8429,4.8788,4.9479,4.821,4.7703,4.7737,4.6868,4.7264,4.8526,4.8541,4.8098,4.7254,4.571,4.4567,4.3687,4.2707,4.2082,4.1682,4.1371,0.0,0.0,0.0,0.0,0.0,0.0,0.0,0.0,0.0,0.0,0.0,0.0,0.0,0.0,0.0,0.0,0.0,0.0,0.0,0.0,0.0,0.0,0.0,0.0,4.774,4.9529,5.276,5.3566,5.4131,5.4876,5.449,5.4262,5.4449,5.5164,5.5842,5.6315,5.7837,5.8486,5.7881,5.8585,0.0,0.0,0.0,5.6989,5.6937,5.6734,5.6481,5.613,5.4931,5.388,5.2856,5.0618,4.9084,4.8108,4.6469,4.5661,4.5423,4.4672,4.4744,4.5346,4.5842,4.5556,4.4764,4.3962,4.368,4.3781,0.0,0.0,0.0,0.0,0.0,0.0,0.0,3.6118,3.6538,3.9157,4.0885,4.2334,4.3599,4.5191,4.5644,4.4297,4.3331,4.2223,4.0854,3.9199,3.936,4.1797,4.2097,4.2665,4.3634,4.455,4.5017,4.4993,4.6527,4.7723,4.8566,4.7957,4.8435,4.964,4.7148,4.6738,4.7912,4.8123,4.795,4.7597,4.8909,4.8947,4.807,4.6996,4.5659,4.4169,4.2674,4.2542,4.2824,4.1434,4.1732,4.2416,4.0896,4.0055,0.0,0.0,0.0,0.0,0.0,0.0,0.0,0.0,0.0,0.0,0.0,0.0,0.0,0.0,0.0,0.0,0.0,0.0,0.0,4.6281,4.874,5.0894,5.2914,5.3467,5.3888,5.4534,5.3943,5.3545,5.3624,5.4251,5.5246,5.6598,5.745,5.8417,5.9482,5.9539,5.9086,5.8098,5.7366,5.6854,5.6517,5.5188,5.4493,5.4465,0.0,0.0,5.0623,4.9806,4.8581,4.6976,4.6359,4.5364,4.4209,4.4656,4.4283,4.3504,4.4237,4.4491,4.44,4.3716,4.3191,4.2868,0.0,0.0,0.0,0.0,0.0,0.0,0.0,3.5859,3.6242,3.8031,3.9425,4.076,4.2147,4.2363,4.2065,4.1223,3.9857,3.9357,4.0051,3.9612,4.0073,4.1827,4.2322,4.2797,4.3278,4.3788,4.4256,4.4657,4.5589,4.6705,4.7946,4.7985,4.8466,4.9255,4.8053,4.7906,4.8606,4.8555,4.8266,4.79,4.9017,4.8927,4.8063,4.6735,4.5742,4.4824,4.3426,4.3372,4.3864,4.3287,4.3528,4.3912,4.3038,4.2265,4.1306,0.0,0.0,0.0,0.0,0.0,0.0,0.0,0.0,0.0,0.0,0.0,0.0,0.0,0.0,3.9599,4.1961,0.0,4.4518,4.8183,4.949,5.0586,5.2132,5.231,5.2853,5.4327,5.3497,5.3145,5.4041,5.4714,5.5566,5.6482,5.7486,5.8029,5.794,5.8166,5.7601,5.6137,5.5321,5.4654,5.4075,5.2578,5.2059,5.2578,5.089,4.9915,4.9527,4.8429,4.7398,4.6413,4.578,4.4809,4.3673,4.3387,4.2688,4.1869,4.23,4.2516,4.2572,4.221,4.1932,4.1777,0.0,0.0,0.0,0.0,0.0,0.0,0.0,3.5852,3.6141,3.6906,3.7832,3.891,4.0194,3.9297,3.8512,3.8325,3.6926,3.716,3.9779,4.0358,4.1056,4.2088,4.2598,4.278,4.2681,4.2748,4.3202,4.4036,4.4415,4.548,4.7241,4.8105,4.8769,4.9242,4.9185,4.9211,4.9274,4.8834,4.8438,4.8183,4.8896,4.8693,4.7764,4.6085,4.5562,4.55,4.4225,4.3794,4.4007,4.4898,4.4841,4.4449,4.4749,4.4355,4.3292,4.0909,4.0068,0.0,0.0,0.0,0.0,0.0,0.0,0.0,0.0,3.7087,3.7507,3.8396,3.9813,4.1763,4.4407,4.5163,4.6522,5.0046,5.0221,5.0372,5.1801,5.1566,5.2,5.4021,5.3107,5.2927,5.4515,5.5318,5.5937,5.6354,5.7542,5.7698,5.6469,5.686,5.6151,5.421,5.3478,5.2682,5.1705,5.0424,5.0111,5.0769,4.858,4.795,4.8555,4.6991,4.6023,4.5499,4.4565,4.3943,4.3527,4.2009,4.1095,4.0588,4.0373,4.0221,4.0085,4.0577,4.072,4.0668,0.0,0.0,0.0,0.0,0.0,0.0,0.0,0.0,3.6798,3.6983,3.7815,3.8201,3.7695,3.8203,3.8238,3.7346,3.7081,3.8254,4.1335,4.0962,4.1312,4.2899,4.2319,4.1591,4.0827,4.0877,4.1268,4.2008,4.3684,4.5355,4.697,4.8024,4.9329,5.0767,4.901,4.8687,4.9406,4.9524,4.8625,4.7274,4.864,4.8609,4.7568,4.5932,4.5765,4.616,4.4284,4.2793,4.1989,4.414,4.4457,4.4253,4.5917,4.5993,4.4965,4.2468,4.0834,3.9463,3.7864,3.6976,3.7125,3.9749,3.858,3.7679,0.0,4.0867,4.0225,4.1082,4.152,4.2408,4.4516,4.5499,4.6949,4.987,5.106,5.212,5.3517,5.2821,5.2454,5.3273,5.2747,5.2806,5.4129,5.4875,5.5697,5.6731,5.7225,5.7692,5.8079,5.791,5.6914,5.5012,5.4388,5.3143,5.1296,5.0521,4.9866,4.9204,4.8312,4.7527,4.6864,4.5996,4.4697,4.3128,4.2171,4.2549,4.3615,4.172,4.0541,3.9853,3.8969,3.8114,3.7552,3.98,4.0334,3.9919,0.0,0.0,0.0,0.0,0.0,0.0,0.0,0.0,0.0,3.7857,3.7776,3.7773,3.7988,3.7461,3.6695,3.5728,3.6541,3.8073,4.0307,4.1017,4.1682,4.2375,4.1992,4.1347,4.0515,4.0492,4.088,4.1696,4.2915,4.4405,4.6172,4.76,4.8996,5.0255,4.9779,4.9737,5.0028,4.9791,4.8947,4.777,4.866,4.8475,4.7571,4.642,4.5918,4.5551,4.3586,4.2193,0.0,4.2745,4.3103,4.3241,4.4522,4.4482,4.3733,4.2305,4.1113,3.9852,3.787,3.8306,3.9261,3.9146,3.9229,3.9783,4.1381,4.1574,4.1616,4.2468,4.2968,4.3717,4.5249,4.6067,4.7106,4.9011,5.0068,5.0862,5.1362,5.0646,5.0149,5.0265,5.0083,5.0849,5.3189,5.4213,5.5154,5.6079,5.6767,5.727,5.7462,5.6909,5.5757,5.3973,5.2966,5.1605,4.9896,4.8788,4.8294,4.823,4.6765,4.622,4.6406,4.4934,4.3751,4.2757,4.2238,4.1997,4.1849,4.0587,3.9477,3.8603,3.8182,3.7513,3.7008,3.8564,3.8908,3.869,0.0,0.0,0.0,0.0,0.0,0.0,0.0,0.0,0.0,0.0,3.7683,3.7231,3.7461,3.6387,3.5351,3.4668,3.5933,3.7647,3.9727,4.0977,4.1904,4.2553,4.2047,4.1459,4.085,4.053,4.0783,4.1645,4.2412,4.3848,4.5895,4.7356,4.875,4.9988,5.0389,5.0548,5.0451,4.9949,4.939,4.8877,4.912,4.876,4.7924,4.6884,4.5681,4.4304,4.2824,4.1475,4.0519,4.1061,4.1403,4.176,4.2415,4.2538,4.2344,4.1623,4.0736,3.9689,3.838,3.929,4.0399,3.9505,4.0331,4.1487,4.1898,4.2435,4.3014,4.3624,4.3856,4.4299,4.5425,4.5904,4.6571,4.788,4.9021,4.9709,4.9637,4.9066,4.8449,4.79,4.782,4.8631,5.0647,5.2444,5.3874,5.4681,5.5418,5.583,5.5669,5.5062,5.4045,5.2542,5.1483,5.0139,4.8618,4.7253,4.6697,4.6852,4.4989,4.4528,4.5301,4.3339,4.2359,4.2306,4.1824,4.113,4.0216,3.9756,3.8682,3.74,3.752,3.6996,3.6229,3.7131,3.7472,3.7515,0.0,0.0,0.0,0.0,0.0,0.0,0.0,0.0,0.0,0.0,0.0,0.0,0.0,3.4726,3.4707,3.4609,3.543,3.7304,4.0556,4.0881,4.1947,4.4209,4.2749,4.1835,4.1662,4.0783,4.071,4.1495,4.2374,4.4055,4.6502,4.751,4.8951,5.0657,5.0548,5.0491,5.0451,4.9949,5.0021,5.0496,5.02,4.9577,4.8686,4.7107,4.4842,4.2437,4.2114,4.051,3.8579,3.9079,3.9454,3.9735,4.0013,4.0829,4.1479,4.0661,3.9458,3.8616,3.9627,3.9407,3.9575,4.2497,4.263,4.2429,4.3877,4.4482,4.4745,4.483,4.4058,4.3597,4.4478,4.456,4.4983,4.6596,4.8409,4.9631,4.9691,4.9287,4.8478,4.7099,4.6949,4.6655,4.6005,4.9168,5.1633,5.2431,5.2848,5.2967,5.2834,5.2642,5.2042,5.107,5.0486,4.9409,4.785,4.6469,4.5488,4.4779,4.3353,4.2655,4.2674,4.0836,4.0372,4.1033,3.9977,3.9498,3.9462,3.9571,3.8346,3.6492,3.6823,3.5947,3.4601,3.5429,3.615,3.6676,0.0,0.0,0.0,0.0,0.0,0.0,0.0,0.0,0.0,0.0,0.0,0.0,0.0,0.0,0.0,0.0,3.6281,3.7474,3.915,4.084,4.2073,4.2782,4.2772,4.2434,4.1714,4.0764,4.071,4.1552,4.2393,4.3806,4.5717,4.6602,4.8029,4.9835,4.9798,5.0336,5.1291,5.0961,5.1064,5.1354,5.0034,4.9269,4.8612,4.5881,4.3841,4.2143,0.0,3.8692,3.7366,3.7033,3.7103,3.7394,3.8016,3.8623,3.9222,3.9564,3.9877,4.0042,3.9857,4.0912,4.217,4.2678,4.3417,4.4175,4.4719,4.4526,4.3999,4.3261,4.2272,4.1391,4.1004,4.2106,4.3347,4.4202,4.665,4.8343,4.8217,4.82,4.7407,4.5269,4.5731,4.5603,4.4074,4.7595,5.0204,5.092,5.1801,5.245,5.2805,5.1751,5.0752,4.9835,4.8543,4.7421,4.6416,4.5943,4.5635,4.5333,4.3778,4.2552,4.1775,4.0816,4.0324,4.0255,3.9588,3.9103,3.8741,3.872,3.7504,3.5761,3.628,3.5601,3.4414,3.4735,3.4971,3.527,0.0,0.0,0.0,0.0,0.0,0.0,0.0,0.0,0.0,0.0,0.0,0.0,0.0,0.0,0.0,0.0,0.0,3.725,3.8418,3.9996,4.1219,4.1995,4.1931,4.1678,4.1283,4.0068,4.0017,4.1167,4.1973,4.3387,4.5337,4.6097,4.7526,4.9431,4.9412,5.0106,5.1252,5.1086,5.0874,5.0566,4.964,4.845,4.702,4.496,4.3113,0.0,3.8989,3.7674,3.6871,3.5768,3.5951,3.6615,3.6656,3.7293,3.8171,3.8827,3.9852,4.0785,4.0898,4.2309,4.3702,4.3465,4.4226,4.4968,4.4745,4.3869,4.288,4.2172,4.0394,3.8951,3.8887,3.9651,4.0753,4.2214,4.4605,4.647,4.6936,4.6534,4.5817,4.4793,4.4829,4.4495,4.3462,4.5998,4.8019,4.8705,4.9879,5.0555,5.0583,4.9569,4.8711,4.808,4.6965,4.6008,4.5258,4.474,4.4031,4.3138,4.1881,4.089,4.0076,3.9681,3.9394,3.9083,3.8758,3.8455,3.8292,3.8003,3.7157,3.6069,3.6243,3.5677,3.4762,3.4762,3.4452,3.4167,0.0,0.0,0.0,0.0,0.0,0.0,0.0,0.0,0.0,0.0,0.0,0.0,0.0,0.0,0.0,0.0,0.0,0.0,3.8262,3.8449,3.9518,4.18,4.0401,3.986,4.0485,3.8885,3.8837,4.0473,4.1225,4.2872,4.5282,4.5903,4.7277,4.923,4.9176,4.9566,5.0298,5.0216,4.9501,4.8475,4.9063,4.7267,4.4266,4.4365,4.2623,3.997,3.8161,3.7415,3.7016,3.5319,3.5996,3.7339,3.6055,3.6932,3.845,3.861,3.9564,4.0933,4.267,4.3506,4.4077,4.4888,4.5087,4.4841,4.406,4.263,4.1456,4.138,3.8396,3.6311,3.7839,3.7142,3.7363,4.061,4.2508,4.4257,4.5975,4.463,4.402,4.5546,4.4432,4.3668,4.4125,4.4644,4.5295,4.5988,4.7111,4.7374,4.6552,4.627,4.6095,4.5913,4.5608,4.5095,4.4266,4.2891,4.1002,3.8683,3.8109,3.7868,3.7878,3.7615,3.7548,3.7539,3.7356,3.7577,3.804,3.7549,3.7288,3.7186,3.6519,3.5894,3.5357,3.5328,3.4395,3.3227,0.0,0.0,0.0,0.0,0.0,0.0,0.0,0.0,0.0,0.0,0.0,0.0,0.0,0.0,0.0,0.0,0.0,0.0,3.6601,3.7819,3.8731,3.9237,4.0031,4.0496,4.0573,4.0092,4.0332,4.137,4.1566,4.2296,4.3465,4.3636,4.4365,4.5551,4.5635,4.6392,4.7623,4.8299,4.8525,4.8447,4.8003,4.6807,4.5105,4.3305,4.154,3.9755,3.8227,3.7363,3.6779,3.5802,3.6667,3.8107,3.7886,3.9021,4.0463,4.0502,4.172,4.3095,4.3565,4.4209,4.4814,4.505,4.4642,4.3838,4.2448,4.0896,3.9101,3.6877,3.4724,3.3239,3.3149,3.438,3.615,3.8337,4.1525,4.4197,4.544,4.6191,4.6496,4.6045,4.6313,4.6018,4.4765,4.5723,4.6076,4.52,4.5358,4.5864,4.6692,4.5857,4.5032,4.4281,4.3416,4.2504,4.1573,4.1165,4.0688,4.0041,3.9205,3.8739,3.8524,3.7497,3.6852,3.661,3.6859,3.6849,3.6628,3.7125,3.7012,3.6504,3.5851,3.5137,3.4427,3.3931,3.3142,3.2434,0.0,0.0,0.0,0.0,0.0,0.0,0.0,0.0,0.0,0.0,0.0,0.0,0.0,0.0,0.0,0.0,0.0,0.0,0.0,3.6826,3.7617,3.831,3.847,3.8871,3.9522,3.9147,3.9143,3.9586,4.0652,4.1391,4.1797,4.2507,4.3348,4.4278,4.4341,4.5024,4.6148,4.6646,4.6487,0.0,0.0,4.4695,4.2987,4.1863,4.0742,3.9667,3.8504,3.7802,3.7419,3.7329,3.815,3.932,4.013,4.1261,4.2427,4.2797,4.38,4.4804,4.5155,4.5475,4.5644,4.5277,4.456,4.3401,4.1098,3.9314,3.7507,3.5096,3.269,3.1207,3.1785,3.291,3.4515,3.6783,3.9581,4.2402,4.501,4.558,4.6218,4.7472,4.747,4.7065,4.6221,4.6366,4.6094,4.5275,4.5138,4.5346,4.5789,4.5028,4.4174,4.3214,4.2423,4.138,3.9986,3.9986,3.9826,3.9414,3.8343,3.7738,3.7588,3.6498,3.5908,3.5736,3.5861,3.5852,3.5834,3.6073,3.5977,3.5568,3.4975,3.4335,3.3605,3.3245,3.2436,3.1603,0.0,0.0,0.0,0.0,0.0,0.0,0.0,0.0,0.0,0.0,0.0,0.0,0.0,0.0,0.0,0.0,0.0,0.0,0.0,0.0,3.6464,3.7986,3.6647,3.6552,3.8006,3.7411,3.7058,3.7058,3.9153,4.0156,4.0194,4.1583,4.2746,4.3678,4.3659,4.4075,4.4816,4.4878,4.3963,4.2514,4.3327,4.2193,4.0072,0.0,4.0295,3.9532,3.8807,3.8401,3.8337,3.9242,3.9922,4.0658,4.2155,4.3264,4.4169,4.489,4.5495,4.6047,4.6724,4.6676,4.6219,4.5472,4.453,4.2992,3.9786,3.7902,3.6276,3.4437,3.1654,3.0148,3.2007,3.2282,3.3066,3.5842,3.7638,4.0193,4.463,4.4218,4.4925,4.8865,4.8186,4.7445,4.7753,4.6649,4.5805,4.5577,4.5478,4.5154,4.4501,4.4173,4.3472,4.2342,4.1782,4.0689,3.9033,3.9046,3.8599,3.7769,3.6724,3.6136,3.5966,3.5284,3.4948,3.4841,3.4727,3.5021,3.5426,3.4939,3.476,3.4743,3.4027,3.3368,3.2806,3.2725,3.1929,3.0823,0.0,0.0,0.0,0.0,0.0,0.0,0.0,0.0,0.0,0.0,3.6798,3.66,0.0,0.0,0.0,0.0,0.0,0.0,0.0,0.0,0.0,3.6245,3.6588,3.6908,3.719,3.7657,3.7897,3.7897,3.8257,3.842,3.8354,3.8642,3.9218,4.0021,4.0126,4.0543,4.126,4.2069,4.2119,4.1682,4.2538,4.2134,4.1043,4.1168,0.0,0.0,3.8491,3.8241,3.8409,3.984,4.0817,4.1614,4.2541,4.3869,4.5087,4.5215,4.5794,4.6404,4.6531,4.6157,4.5669,4.5283,4.3733,4.1415,3.8034,3.6504,3.4957,3.1841,3.0754,3.0553,3.1009,3.1929,3.3389,3.5818,3.7793,4.0304,4.3957,4.5121,4.6317,4.8343,4.8633,4.8236,4.7069,4.6767,4.6125,4.4843,4.4312,4.3866,4.376,4.3897,4.3046,4.1014,3.9428,3.8408,3.8148,3.8148,3.7821,3.7155,3.6946,3.6358,3.543,3.505,3.4588,3.3953,3.4432,3.4706,3.4581,3.4634,3.476,3.4702,3.3552,3.2689,3.2024,3.1448,3.0711,3.0023,0.0,0.0,0.0,0.0,0.0,0.0,0.0,3.6588,3.7185,3.8141,3.8365,3.8113,3.7247,3.7233,3.7128,0.0,0.0,0.0,0.0,0.0,0.0,0.0,3.6416,3.6596,3.7097,3.7383,3.7307,3.6842,0.0,3.7743,3.729,3.7747,3.8155,3.8524,3.8565,3.8996,3.9763,4.0216,4.0551,4.0864,4.1245,4.1129,4.0708,4.052,0.0,0.0,3.8664,3.8451,3.847,3.9583,4.0508,4.1452,4.3047,4.4331,4.5381,4.5798,4.6196,4.6635,4.7277,4.6724,4.5878,4.5521,4.3556,4.08,3.7551,3.5858,3.4326,3.1869,3.1127,3.1142,3.1874,3.2531,3.358,3.5337,3.6278,3.8174,4.2223,4.3424,4.4844,4.7455,4.8549,4.8639,4.7489,4.7017,4.6324,4.5274,4.4236,4.363,4.363,4.2629,4.1365,3.9899,3.8562,3.7756,3.7429,3.7429,3.7129,3.6541,3.6253,3.5822,3.5286,3.4717,3.425,3.3894,3.3979,3.3811,3.3431,3.3381,3.3075,3.2555,3.1928,3.1319,3.0727,3.0445,3.0062,2.9792,0.0,0.0,0.0,0.0,0.0,0.0,0.0,3.6633,3.7532,3.9282,3.9765,3.977,3.9273,3.8405,3.7773,0.0,0.0,0.0,0.0,0.0,0.0,0.0,0.0,0.0,3.6916,0.0,0.0,3.5985,3.7334,0.0,0.0,0.0,0.0,0.0,3.7674,3.812,3.893,3.904,3.9465,0.0,0.0,4.0215,4.0176,0.0,0.0,0.0,0.0,3.8603,3.851,3.9249,3.9924,4.0797,4.2758,4.4152,4.5128,4.5599,4.6087,4.6712,4.775,4.735,4.6486,4.5862,4.3666,4.0831,3.7518,3.5714,3.4248,3.2531,3.1929,3.1983,3.2913,3.3268,3.3828,3.5132,3.519,3.6612,4.1016,4.2081,4.358,4.6806,4.8235,4.8623,4.7754,4.7017,4.6253,4.5494,4.3854,4.2985,4.319,4.0985,3.9486,3.902,3.8076,3.7299,3.6815,3.6815,3.6515,3.5926,3.5495,3.5221,3.509,3.4451,3.4095,3.3894,3.3559,3.2988,3.2466,3.2218,3.1556,3.0687,3.062,3.0281,2.9804,2.993,2.9892,2.9817,0.0,0.0,0.0,0.0,0.0,0.0,0.0,3.5888,3.7533,3.9277,4.032,4.1133,4.1779,4.053,3.9336,0.0,0.0,0.0,0.0,0.0,0.0,0.0,0.0,0.0,0.0,0.0,0.0,3.6878,3.7623,0.0,0.0,0.0,0.0,0.0,0.0,3.7267,3.8066,3.8802,0.0,0.0,0.0,0.0,0.0,0.0,0.0,0.0,0.0,3.8415,3.851,3.9331,3.961,3.9779,4.0724,4.2486,4.4077,4.3407,4.4784,4.6585,4.7073,4.743,4.7316,4.597,4.4084,4.1555,3.7611,3.6047,3.4785,3.264,3.2819,3.3338,3.3111,3.3455,3.4287,3.5933,3.6412,3.7972,4.192,4.3568,4.5044,4.6982,4.7821,4.7852,4.7017,4.6253,4.5494,4.4799,4.2132,4.0858,4.1778,3.9316,3.8101,3.8437,3.7056,3.624,3.6188,3.6188,3.5913,3.5365,3.5325,3.5012,3.4476,3.4424,3.3957,3.3312,3.323,3.2826,3.2043,3.1813,3.1377,3.0833,3.0687,3.0281,2.9854,3.0357,3.0218,2.9867,0.0,0.0,0.0,0.0,0.0,0.0,3.4844,3.5731,3.7158,3.9908,4.0204,4.0668,4.2057,4.125,4.0293,3.9453,0.0,0.0,0.0,0.0,0.0,0.0,0.0,0.0,0.0,0.0,3.7242,3.7724,3.7906,0.0,0.0,0.0,0.0,0.0,0.0,3.6877,3.7228,3.8047,0.0,0.0,0.0,0.0,0.0,0.0,0.0,0.0,0.0,0.0,3.8632,3.8862,3.894,3.8857,3.866,3.9833,4.1542,4.2612,4.4258,4.6121,4.7758,4.8263,4.8073,4.6967,4.3907,4.045,3.7953,3.5654,3.3831,3.3092,3.3273,3.3577,3.3415,3.3615,3.4183,3.5333,3.509,3.5945,3.9345,4.0239,4.1771,4.513,4.5841,4.6118,4.615,4.5872,4.4923,4.3042,4.0525,3.9123,3.9131,3.7524,3.6791,3.705,3.6389,3.5953,3.5626,3.5626,3.5325,3.4763,3.4763,3.4633,3.4397,3.4397,3.4014,3.3411,3.3247,3.238,3.1137,3.1309,3.0478,2.9095,3.0002,2.9799,2.9077,2.9874,2.9642,2.9155,0.0,0.0,0.0,0.0,0.0,3.2154,3.4268,3.4797,3.5996,3.8911,3.9069,3.953,4.1256,4.1023,4.0605,4.0273,3.869,0.0,0.0,0.0,0.0,0.0,0.0,0.0,0.0,0.0,3.7628,3.8194,3.8554,3.8623,0.0,0.0,3.7911,3.7065,0.0,0.0,0.0,0.0,0.0,0.0,0.0,0.0,0.0,0.0,0.0,0.0,0.0,0.0,0.0,0.0,0.0,3.84,3.7789,3.8314,3.947,4.1071,4.2992,4.5015,4.6796,4.7659,4.7753,4.6765,4.3488,4.0036,3.8205,3.558,3.3466,3.3418,3.3509,3.3605,3.3605,3.3698,3.4064,3.4862,3.447,3.5046,3.779,3.8412,3.9809,4.3212,4.3664,4.4026,4.4919,4.4633,4.3383,4.1015,3.8846,3.7351,3.6769,3.5723,3.5243,3.5574,3.56,3.5247,3.4541,3.4868,3.4737,3.4162,3.4319,3.4397,3.4384,3.4241,3.3849,3.3313,3.2982,3.1855,3.0476,3.062,2.9754,2.8211,2.9106,2.8949,2.8395,2.9065,2.8778,2.8235,0.0,0.0,0.0,0.0,0.0,0.0,3.1802,3.2667,3.3828,3.5524,3.6613,3.7848,3.9451,3.9789,4.0234,4.1016,3.9549,0.0,0.0,0.0,0.0,0.0,0.0,0.0,0.0,0.0,3.8189,3.8194,3.973,4.0065,3.9277,3.9277,3.8815,3.795,0.0,0.0,0.0,0.0,0.0,0.0,0.0,0.0,0.0,0.0,0.0,0.0,0.0,0.0,0.0,0.0,0.0,0.0,0.0,3.8446,3.8401,3.8376,4.0526,4.3013,4.3444,4.4909,4.6024,4.4745,4.2902,4.0775,3.8367,3.6026,3.4194,3.3526,3.3509,3.3605,3.3605,3.3698,3.4064,3.4862,3.5369,3.6381,3.8342,3.9582,4.0672,4.1707,4.1564,4.1824,4.3037,4.2023,4.0679,3.8929,3.6779,3.5377,3.4985,3.3702,3.3493,3.4358,3.441,3.3862,3.2725,3.3849,3.4136,3.36,3.4136,3.4397,3.4384,3.3849,3.3273,3.2672,3.211,3.1126,2.996,2.9793,2.9328,2.8712,2.8051,2.781,2.7788,2.7985,2.7681,2.7219,0.0,0.0,0.0,0.0,0.0,0.0,0.0,3.2201,3.2979,3.4669,3.5156,3.5999,3.7702,3.7944,3.8604,4.0155,3.9785,0.0,0.0,0.0,0.0,0.0,0.0,0.0,0.0,0.0,3.8458,3.9026,4.001,4.0307,3.9904,3.9904,3.9444,3.8601,3.8333,3.7977,0.0,0.0,0.0,0.0,0.0,0.0,3.9483,0.0,0.0,0.0,0.0,0.0,0.0,0.0,0.0,0.0,0.0,0.0,0.0,3.83,4.0263,4.2468,4.3398,4.4236,4.4683,4.3925,4.1395,3.8742,3.7428,3.5335,3.3611,3.3418,3.3509,3.3605,3.3605,3.3698,3.4064,3.4862,3.5387,3.6118,3.7266,3.8206,3.9443,4.1134,4.1445,4.131,4.0831,3.9237,3.8053,3.7667,3.5395,3.3973,3.3802,3.2673,3.2341,3.3208,3.3844,3.3686,3.2698,3.3456,3.3548,3.2986,3.3156,3.3234,3.3221,3.3051,3.2408,3.1445,3.1265,3.0244,2.8791,2.9172,2.845,2.7336,2.8143,2.7822,2.7021,2.7591,2.7124,2.634,0.0,0.0,0.0,0.0,0.0,0.0,0.0,3.1514,3.1884,3.292,3.3367,3.4229,3.5931,3.6452,3.7529,3.9677,3.9886,0.0,0.0,0.0,0.0,0.0,0.0,0.0,0.0,3.7758,3.8587,3.9397,4.0396,4.0663,4.0323,4.0463,4.012,3.9374,3.8957,3.8611,0.0,0.0,0.0,0.0,0.0,0.0,3.9032,0.0,0.0,0.0,0.0,0.0,0.0,0.0,0.0,0.0,0.0,0.0,0.0,0.0,3.915,4.0522,4.1456,4.2079,4.225,4.1572,3.927,3.7025,3.6486,3.4772,3.3352,3.3411,3.3509,3.3605,3.3605,3.3698,3.3972,3.4486,3.5048,3.5648,3.6134,3.7038,3.8074,3.9345,4.0237,4.0103,3.8335,3.7233,3.6428,3.5999,3.4016,3.276,3.2621,3.1785,3.1315,3.1485,3.271,3.2909,3.2058,3.2842,3.296,3.2372,3.2594,3.2685,3.2685,3.2463,3.185,3.0849,3.0646,2.965,0.0,2.8633,2.7983,2.6869,2.7672,2.7336,2.6528,2.6928,2.6423,2.5673,0.0,0.0,0.0,0.0,0.0,0.0,0.0,3.0704,3.069,3.069,3.1455,3.2598,3.4158,3.5218,3.6837,3.9393,0.0,0.0,0.0,0.0,0.0,0.0,0.0,0.0,3.6884,3.7815,3.8646,3.9397,4.0833,4.1184,4.0553,4.0974,4.0853,4.0196,3.9197,3.8819,0.0,0.0,0.0,0.0,0.0,0.0,0.0,0.0,0.0,0.0,0.0,0.0,0.0,0.0,0.0,0.0,0.0,0.0,0.0,0.0,0.0,0.0,0.0,3.87,3.9037,3.8156,3.6834,3.5679,3.558,3.4382,0.0,3.3302,3.3419,3.3514,3.3514,3.3662,3.3788,3.3807,3.4519,3.5117,3.517,3.6219,3.6942,3.6949,3.8394,3.8392,3.584,3.6001,3.5614,3.4045,3.272,3.1796,3.1355,3.097,3.0304,2.9419,3.0972,3.1576,3.0924,3.2071,3.2346,3.1707,3.2319,3.2568,3.2555,3.2019,3.1371,3.0773,3.0175,2.9263,2.8099,2.8099,2.7777,2.7149,2.6704,2.6528,2.6445,2.6052,2.5633,2.5285,0.0,0.0,0.0,0.0,0.0,0.0,0.0,0.0,0.0,0.0,3.0843,3.1375,3.248,3.3394,3.5002,0.0,0.0,0.0,0.0,0.0,0.0,0.0,0.0,0.0,3.6884,3.8356,3.9206,3.9397,4.102,4.151,4.0971,4.1699,4.151,4.0575,4.0314,3.9981,0.0,0.0,0.0,0.0,0.0,0.0,0.0,0.0,0.0,0.0,3.7074,3.7257,0.0,0.0,0.0,0.0,0.0,0.0,0.0,0.0,3.6636,3.6526,3.5952,0.0,3.6827,3.657,3.5726,3.4939,0.0,3.3658,3.2488,3.2488,3.2555,3.262,3.2675,3.325,3.3753,3.3807,3.4519,3.5295,3.5847,3.7404,3.8513,3.8606,3.8674,3.7822,3.5682,3.4978,3.4128,3.2648,3.1106,3.0215,3.0152,2.9484,2.9118,2.9209,2.9613,2.9927,3.0203,3.1743,3.2051,3.1182,3.1615,3.1681,3.1378,3.1248,3.0548,2.9502,2.9378,2.8633,2.7464,2.7464,2.7313,2.7149,2.7056,2.6798,2.6528,2.6362,2.6124,2.5728,0.0,0.0,0.0,0.0,0.0,0.0,0.0,0.0,0.0,0.0,0.0,0.0,0.0,0.0,0.0,0.0,0.0,0.0,0.0,0.0,0.0,0.0,0.0,3.729,3.8083,3.898,3.9753,4.0358,4.1668,4.2087,4.167,4.2389,4.2002,4.0685,4.0309,3.9744,0.0,0.0,0.0,0.0,3.8382,0.0,0.0,0.0,0.0,0.0,3.645,3.6578,0.0,3.6945,3.634,3.5752,0.0,0.0,0.0,0.0,3.5818,3.5689,3.4797,3.5312,3.6033,3.5597,3.5119,3.475,3.4691,3.3426,3.2254,3.2198,3.1974,3.191,3.2329,3.2702,3.3103,3.3496,3.3992,3.4674,3.5767,3.7432,3.8502,3.8606,3.827,3.7402,3.5849,3.4507,3.3282,3.229,3.067,2.9704,2.9704,2.8961,2.859,2.8645,2.8973,2.9353,2.9871,3.0957,3.1198,3.0748,3.1123,3.1198,3.0986,3.0986,3.0266,2.9081,2.9081,2.8395,2.7231,2.7231,2.7231,2.7231,2.7231,2.7056,2.6798,2.6798,2.655,2.6218,0.0,0.0,0.0,0.0,0.0,0.0,0.0,0.0,0.0,0.0,0.0,0.0,0.0,0.0,0.0,0.0,0.0,0.0,0.0,0.0,0.0,0.0,3.8549,3.874,3.9487,3.9507,4.0119,4.1353,4.237,4.2679,4.2309,4.3102,4.2513,4.0795,3.9839,3.8983,0.0,0.0,0.0,0.0,3.7328,0.0,0.0,0.0,0.0,0.0,0.0,0.0,0.0,3.6101,3.6009,3.5936,3.6064,0.0,0.0,0.0,0.0,0.0,3.4201,3.5091,3.5991,3.4999,3.4767,3.4783,3.4586,3.3375,3.2292,3.2226,3.1765,3.1545,3.211,3.2274,3.2516,3.302,3.3488,3.4324,3.5745,3.7229,3.8152,3.8071,3.7697,3.71,3.6213,3.4374,3.2961,3.229,3.0579,2.9539,2.9549,2.8809,2.8347,2.8259,2.8736,2.9197,2.9471,3.0114,3.0432,3.0508,3.0823,3.1048,3.1061,3.1061,3.0355,2.9238,2.916,2.8474,2.7301,2.7231,2.7231,2.7231,2.7231,2.7231,2.7231,2.7231,2.6962,2.661,0.0,0.0,0.0,0.0,0.0,0.0,0.0,0.0,0.0,0.0,0.0,0.0,0.0,0.0,0.0,0.0,0.0,0.0,0.0,0.0,0.0,4.0617,3.9199,3.874,3.9487,3.9507,3.9902,4.0752,4.2356,4.285,4.2328,4.3861,4.3439,4.137,3.9788,3.8655,3.8,0.0,0.0,0.0,3.6518,0.0,0.0,0.0,0.0,0.0,0.0,0.0,0.0,3.5192,3.4761,3.4302,3.5,0.0,0.0,0.0,0.0,0.0,3.406,3.519,3.6067,3.4465,3.4458,3.4704,3.4018,3.3086,3.2375,3.2292,3.2238,3.2037,3.1419,3.2475,3.3148,3.227,3.4412,3.6509,3.7495,3.8621,3.9206,3.8896,3.7978,3.7071,3.6166,3.4626,3.3003,3.1462,2.9931,2.8909,2.8712,2.8156,2.8041,2.8419,2.851,2.8578,2.8657,2.9793,3.0482,3.0797,3.0872,3.1097,3.1482,3.1123,3.0583,2.9793,2.9316,2.87,2.8018,2.7464,2.7231,2.7231,2.7231,2.7231,2.7231,2.7231,2.7149,2.7056,0.0,0.0,0.0,0.0,0.0,0.0,0.0,0.0,0.0,0.0,0.0,0.0,0.0,0.0,0.0,0.0,0.0,0.0,0.0,0.0,4.0572,4.0976,3.9785,3.9456,4.0191,4.0191,4.0725,4.1793,4.3166,4.3733,4.3492,4.3198,4.2277,4.0789,3.9138,3.7978,3.7251,3.7042,3.6528,3.5807,0.0,0.0,0.0,0.0,0.0,0.0,0.0,0.0,0.0,0.0,3.4146,3.3915,3.4301,0.0,0.0,0.0,0.0,0.0,3.3586,3.4666,3.5483,3.3751,3.4485,3.542,3.4568,3.336,3.2565,3.2939,3.2721,3.2456,3.2502,3.3395,3.3942,3.3413,3.4565,3.5719,3.6168,3.6818,3.712,3.6901,3.6055,3.5288,3.4774,3.2881,3.1335,3.0459,2.8931,2.79,2.7645,2.7428,2.7536,2.8065,2.8089,2.8222,2.851,2.904,2.9729,3.0558,3.0797,3.1014,3.1089,3.0944,3.0186,2.9062,2.8449,2.8074,2.7636,2.6746,2.6737,2.7196,2.6921,2.699,2.7231,2.7231,2.7231,2.7231,0.0,0.0,0.0,0.0,0.0,0.0,0.0,0.0,0.0,0.0,0.0,0.0,0.0,0.0,0.0,0.0,0.0,0.0,0.0,0.0,3.9811,4.0397,3.9753,3.983,4.0771,4.0597,4.1195,4.261,4.3612,4.4174,4.4207,4.2192,4.0871,4.0126,3.8739,3.758,3.6668,3.6198,3.5477,3.4604,0.0,0.0,0.0,0.0,0.0,0.0,0.0,0.0,0.0,0.0,0.0,0.0,0.0,0.0,0.0,3.4099,3.4,3.377,3.3157,3.3889,3.4444,3.2915,3.4326,3.5899,3.5347,3.4257,3.3616,3.4355,3.389,3.3451,3.3634,3.3869,3.4117,3.434,3.4507,3.4601,3.4592,3.4801,3.4936,3.4748,3.4083,3.3521,3.3276,3.1446,3.0133,2.9787,2.8227,2.7225,2.6986,2.6803,2.6983,2.7524,2.7536,2.7729,2.8138,2.8138,2.8721,2.9973,3.0213,3.029,3.0262,3.0105,2.9365,2.8157,2.7545,2.7255,2.7079,2.6213,2.6278,2.6864,2.6703,2.6887,2.7231,2.7231,2.7231,2.7231,0.0,0.0,0.0,0.0,0.0,0.0,0.0,0.0,0.0,0.0,0.0,0.0,0.0,0.0,0.0,0.0,0.0,0.0,0.0,0.0,3.8617,3.8677,3.8511,3.9161,4.0752,4.001,4.0398,4.2044,4.2883,4.3386,4.351,4.1241,4.0178,4.0055,3.9206,3.8007,3.6618,3.663,3.5856,3.4602,3.4561,0.0,0.0,0.0,0.0,0.0,0.0,0.0,0.0,0.0,0.0,0.0,0.0,0.0,3.4099,3.4099,3.361,3.3064,3.3008,3.3054,3.2871,3.2006,3.3529,3.545,3.6046,3.6119,3.6237,3.6966,3.6538,3.5512,3.3907,3.3086,3.2973,3.3873,3.4337,3.4566,3.4347,3.4275,3.4102,3.3678,3.3119,3.2732,3.2601,3.1754,3.0861,3.0023,2.853,2.7511,2.7224,2.6504,2.6406,2.6971,2.6995,2.7007,2.7043,2.7043,2.7639,2.9013,2.8673,2.86,2.8846,2.8341,2.8036,2.7852,2.7025,2.6661,2.6657,2.6523,2.6175,2.5911,2.6818,2.7196,2.7231,2.7231,2.7231,2.7231,0.0,0.0,0.0,0.0,0.0,0.0,0.0,0.0,0.0,0.0,0.0,0.0,0.0,0.0,0.0,0.0,0.0,0.0,0.0,3.6522,3.737,3.8458,3.8414,3.8646,3.9238,3.9939,4.0868,4.2002,4.246,4.2406,4.186,4.071,3.9586,3.8519,3.7794,3.7165,3.6525,3.5565,3.5138,3.5128,3.472,3.4564,0.0,0.0,0.0,0.0,0.0,0.0,0.0,0.0,3.3895,3.3947,3.3921,3.3998,3.4006,3.3506,3.3184,3.2767,3.1764,3.2576,3.3388,3.2048,3.3487,3.5311,3.5524,3.5946,3.667,3.7943,3.7979,3.7411,3.6245,3.4578,3.373,3.4599,3.4086,3.3607,3.3607,3.2878,3.1895,3.0736,3.0353,2.9724,2.8567,2.813,2.7728,2.7301,2.6218,2.5453,2.5192,2.5117,2.5372,2.5901,2.6238,2.6586,2.6935,2.6935,2.7001,2.714,2.7841,2.817,2.8196,2.783,2.7356,2.6772,2.5961,2.5789,2.6024,2.5396,2.5314,2.575,2.614,2.6668,2.7185,2.6875,2.6955,2.7231,0.0,0.0,0.0,0.0,0.0,0.0,0.0,0.0,0.0,0.0,0.0,0.0,0.0,0.0,0.0,0.0,0.0,0.0,3.4654,3.4976,3.5644,3.6836,3.7339,3.759,3.7506,3.9154,4.0539,4.1622,4.1644,4.1366,4.0788,3.9862,3.8815,3.7759,3.7432,3.71,3.6676,3.5469,3.5157,3.5448,3.4717,3.4404,0.0,0.0,0.0,0.0,0.0,0.0,0.0,0.0,3.3972,3.4023,3.3972,3.4049,3.3957,3.316,3.2781,3.2321,3.0987,3.1615,3.247,3.1589,3.2945,3.4781,3.5708,3.6305,3.7202,3.9074,3.8854,3.7961,3.6772,3.5151,3.4082,3.4264,3.3382,3.2562,3.214,3.0932,2.9526,2.8082,2.7733,2.7054,2.5601,2.5365,2.5348,2.5423,2.4608,2.4099,2.4067,2.422,2.4587,2.5035,2.5408,2.5781,2.6166,2.6334,2.6057,2.5372,2.6451,2.7026,2.7037,2.6897,2.6416,2.5746,2.5099,2.5026,2.5283,2.4646,2.4935,2.5693,2.552,2.5991,2.6726,2.6542,2.6691,2.7013,0.0,0.0,0.0,0.0,0.0,0.0,0.0,0.0,0.0,0.0,0.0,0.0,0.0,0.0,0.0,0.0,0.0,0.0,3.2193,3.295,3.3398,3.3418,3.5002,3.5859,3.58,3.7425,3.9108,4.0771,4.0249,4.0194,4.054,3.859,3.7875,3.8194,3.8615,3.8157,3.7051,3.6731,3.6163,3.5423,3.4476,3.4293,3.4602,0.0,0.0,0.0,0.0,0.0,0.0,0.0,3.4049,3.4099,3.408,3.4148,3.403,3.3213,3.2414,3.1615,3.082,3.002,2.9611,3.0411,3.1774,3.3778,3.6962,3.7614,3.8175,4.0579,3.9148,3.6875,3.4891,3.4221,3.3624,3.247,3.2132,3.1416,2.9897,2.8471,2.7164,2.6066,2.5495,2.492,2.4312,2.4272,2.4433,2.4925,2.4229,2.393,2.4267,2.4067,2.4177,2.4482,2.4506,2.4506,2.4506,2.5035,2.4783,2.3773,2.4278,2.4783,2.53,2.517,2.4981,2.479,2.4574,2.4418,2.4235,2.4717,2.5222,2.5658,2.5119,2.5233,2.5773,2.6278,2.6541,2.6542,0.0,0.0,0.0,0.0,0.0,0.0,0.0,0.0,0.0,0.0,0.0,0.0,0.0,0.0,0.0,0.0,0.0,0.0,3.2028,3.2283,3.2973,3.4258,3.4742,3.5256,3.5858,3.6875,3.7909,3.8955,3.8489,3.8554,3.9115,3.8167,3.7426,3.6943,3.7048,3.6609,3.5725,3.5114,3.5087,3.5354,3.4476,3.4197,3.4316,0.0,0.0,0.0,0.0,0.0,0.0,0.0,0.0,0.0,3.3383,3.3611,3.3734,3.1807,3.1518,3.1485,3.0132,3.0411,3.1154,3.1374,3.3358,3.5615,3.714,3.7537,3.7709,3.8145,3.6979,3.5588,3.4709,3.3591,3.2802,3.2731,3.144,2.9999,2.873,2.7084,2.5165,2.2973,2.26,2.2156,2.1199,2.1535,2.1982,2.2502,2.2217,2.1981,2.1989,2.2543,2.2904,2.2883,2.3604,2.3989,2.3989,2.4145,2.4073,2.3773,2.3917,2.4073,2.4242,2.4465,2.4447,2.4272,2.4411,2.4418,2.4212,2.4349,2.4705,2.5107,2.4602,2.4946,2.5727,2.5876,2.6163,2.6542,0.0,0.0,0.0,0.0,0.0,0.0,0.0,0.0,0.0,0.0,3.0598,3.0742,0.0,0.0,0.0,0.0,0.0,0.0,0.0,3.155,3.2177,3.3633,3.3969,3.4672,3.5831,3.6616,3.7069,3.7208,3.7045,3.7294,3.7853,3.7742,3.7151,3.623,3.6845,3.6431,3.5192,3.4568,3.4623,3.51,3.433,3.3889,3.3703,0.0,0.0,0.0,0.0,0.0,0.0,0.0,0.0,0.0,3.3062,3.3006,3.285,3.1069,3.0906,3.1021,2.976,3.0376,3.1533,3.2139,3.406,3.6001,3.668,3.7533,3.7899,3.6852,3.5876,3.5037,3.4501,3.3033,3.1945,3.2214,3.0594,2.896,2.7938,2.6145,2.4137,2.191,2.1075,2.0287,1.9257,1.9484,1.9924,2.0476,2.0221,2.0244,2.0742,2.1095,2.1476,2.1922,2.2561,2.2931,2.3135,2.3352,2.3352,2.3147,2.3364,2.334,2.3171,2.3838,2.4077,2.4107,2.4412,2.4418,2.4345,2.42,2.4372,2.4602,2.4315,2.4568,2.5153,2.5566,2.5911,2.6267,0.0,0.0,0.0,0.0,0.0,0.0,0.0,0.0,0.0,0.0,3.0613,3.07,0.0,0.0,0.0,0.0,0.0,0.0,0.0,0.0,3.1248,3.2261,3.3222,3.4459,3.6008,3.6684,3.6616,3.58,3.5997,3.6354,3.6855,3.745,3.7022,3.5903,3.7449,3.6982,3.5008,3.4703,3.4561,3.4556,3.4091,3.3493,3.2969,3.3635,0.0,0.0,0.0,0.0,0.0,0.0,0.0,0.0,3.2957,3.2432,3.1708,3.0782,3.0541,3.0429,2.963,3.0085,3.1136,3.2553,3.4198,3.5588,3.603,3.7528,3.8259,3.622,3.5403,3.4809,3.4067,3.2409,3.119,3.119,2.9696,2.818,2.7284,2.5469,2.3622,2.2022,2.0426,1.907,1.821,1.8129,1.8355,1.892,1.8485,1.88,2.0097,1.9691,2.0029,2.1316,2.1331,2.1536,2.1969,2.2498,2.2522,2.2053,2.2582,2.2606,2.2221,2.3244,2.391,2.422,2.4284,2.435,2.435,2.4181,2.4131,2.4131,2.4177,2.42,2.4315,2.5279,2.5647,2.5773,0.0,0.0,0.0,0.0,0.0,0.0,0.0,0.0,0.0,0.0,0.0,0.0,0.0,0.0,0.0,0.0,0.0,0.0,0.0,0.0,3.1409,3.2998,3.521,3.6866,3.7907,3.7365,3.6945,3.6635,3.5719,3.5615,3.6366,3.734,3.6934,3.5495,3.704,3.6043,3.3223,3.387,3.3758,3.3217,3.3762,3.3543,3.2913,3.3025,3.3148,0.0,0.0,0.0,0.0,0.0,0.0,0.0,3.2519,3.2358,3.234,3.0262,3.0113,3.0429,2.963,3.0085,3.1026,3.1995,3.4548,3.7033,3.7571,3.7216,3.615,3.4013,3.3755,3.3579,3.2715,3.1679,3.0847,3.049,2.8938,2.7175,2.5366,2.3796,2.1948,1.9521,1.859,1.8033,1.7604,1.7564,1.779,1.8342,1.7934,1.7922,1.8498,1.8867,1.9222,1.9679,2.0504,2.0737,2.0298,2.0851,2.1067,2.0959,2.1488,2.1897,2.2209,2.2859,2.3358,2.3661,2.336,2.3258,2.3225,2.3501,2.3532,2.3649,2.4039,2.42,2.4269,2.4866,2.5084,2.5176,0.0,0.0,0.0,0.0,0.0,0.0,0.0,0.0,0.0,0.0,0.0,0.0,0.0,0.0,0.0,0.0,0.0,0.0,0.0,0.0,3.1532,3.3271,3.5419,3.6796,3.7242,3.6735,3.6435,3.6334,3.5007,3.4977,3.6122,3.7281,3.711,3.5927,3.6919,3.5729,3.2949,3.3049,3.2619,3.1871,3.2518,3.233,3.1737,3.2077,3.218,3.2237,3.3026,0.0,0.0,0.0,0.0,0.0,0.0,0.0,3.1043,2.9779,2.9704,2.9927,2.9561,3.0129,3.1293,3.3234,3.5284,3.6868,3.7088,3.6131,3.4636,3.2769,3.2677,3.2753,3.2187,3.1146,3.0252,2.9922,2.8094,2.6286,2.5091,2.3247,2.1387,1.966,1.847,1.7677,1.7329,1.7106,1.7087,1.7375,1.6965,1.6983,1.7684,1.7703,1.8085,1.8873,1.9393,1.9673,1.978,2.0069,2.0213,2.0225,2.0767,2.1308,2.1837,2.263,2.3135,2.3269,2.3242,2.3203,2.3182,2.3445,2.3513,2.357,2.4005,2.42,2.4258,2.474,2.4912,2.4992,0.0,0.0,0.0,0.0,0.0,0.0,0.0,0.0,0.0,0.0,0.0,0.0,0.0,0.0,0.0,0.0,0.0,0.0,0.0,0.0,0.0,3.3719,3.5275,3.6108,3.6127,3.5904,3.5764,3.5709,3.4359,3.4547,3.6226,3.7299,3.7276,3.6316,3.6941,3.5709,3.3125,3.2482,3.1828,3.1229,3.1364,3.1096,3.0674,3.1191,3.1198,3.1073,3.2427,3.2713,3.2483,3.2976,0.0,0.0,0.0,0.0,2.9593,2.9444,2.9407,2.9429,2.9472,3.0188,3.1636,3.4708,3.5597,3.569,3.5677,3.4697,3.3387,3.19,3.1909,3.2092,3.169,3.0543,2.9544,2.9183,2.7148,2.5526,2.5196,2.3122,2.1335,2.0511,1.9012,1.7774,1.724,1.6863,1.6607,1.6522,1.6064,1.6215,1.7212,1.6742,1.7003,1.8253,1.8288,1.8661,1.936,1.9468,1.9504,1.9516,2.0069,2.0658,2.1296,2.2077,2.2582,2.2871,2.3108,2.3209,2.3257,2.3384,2.3468,2.3456,2.3916,2.4062,2.412,2.4613,2.4786,2.4855,0.0,0.0,0.0,0.0,0.0,0.0,0.0,0.0,0.0,0.0,3.0479,3.0617,0.0,0.0,0.0,0.0,0.0,0.0,3.1883,0.0,0.0,3.5316,3.6391,3.6965,3.7021,3.6219,3.5763,3.5699,3.4353,3.4851,3.7057,3.7636,3.7015,3.5512,3.6962,3.5781,3.2708,3.2632,3.2522,3.2324,3.1728,3.1476,3.1394,3.0785,3.0714,3.0942,3.1276,3.1838,3.2422,3.2502,3.226,0.0,0.0,0.0,3.0318,2.9611,2.945,2.9472,2.9492,3.0227,3.1619,3.432,3.4117,3.3457,3.4185,3.3194,3.187,3.1011,3.1332,3.1355,3.0001,2.9355,2.8737,2.7835,2.6422,2.5146,2.4216,2.2763,2.128,1.9924,1.9192,1.8405,1.731,1.7157,1.6947,1.6522,1.6064,1.6044,1.6591,1.6569,1.6759,1.722,1.7627,1.7837,1.7724,1.8181,1.841,1.8422,1.8951,1.9744,2.0706,2.037,2.0971,2.2306,2.2178,2.2139,2.2111,2.2439,2.2531,2.2503,2.3387,2.3687,2.3603,2.4108,2.4292,2.4303,0.0,0.0,0.0,0.0,0.0,0.0,0.0,0.0,0.0,0.0,0.0,3.0578,0.0,0.0,0.0,3.1386,3.1094,3.1025,3.1352,3.1564,3.2464,3.4214,3.4263,3.4924,3.6386,3.509,3.4804,3.5628,3.4334,3.4908,3.7209,3.7206,3.7283,3.7359,3.7128,3.5928,3.3997,3.3051,3.2364,3.1861,3.106,3.082,3.0793,3.0028,2.9845,3.009,3.0753,3.0902,3.0902,3.1393,3.1186,3.0621,3.0083,0.0,0.0,0.0,2.9531,2.9626,2.9754,3.048,3.1588,3.3107,3.2954,3.2601,3.3329,3.25,3.1284,3.0276,3.0356,3.0374,2.9683,2.92,2.8516,2.7324,2.5919,2.4618,2.366,2.2313,2.1063,2.007,1.9368,1.8712,1.7988,1.7475,1.7115,1.6905,1.6466,1.6293,1.6479,1.6516,1.6712,1.7103,1.7338,1.7468,1.7521,1.7763,1.7967,1.8205,1.8434,1.8951,1.9696,1.9456,2.0213,2.1753,2.168,2.1786,2.2097,2.2432,2.245,2.239,2.3003,2.3144,2.3075,2.3592,2.3775,2.381,0.0,0.0,0.0,0.0,0.0,0.0,0.0,0.0,0.0,0.0,0.0,0.0,0.0,0.0,0.0,0.0,3.1067,3.1189,3.1091,3.0917,3.1526,3.3111,3.2834,3.3418,3.5096,3.4156,3.4165,3.5276,3.4219,3.4908,3.7209,3.6851,3.7533,3.8952,3.747,3.6205,3.5091,3.3558,3.2559,3.1898,3.0687,3.0239,3.0236,2.9492,2.924,2.9418,3.0263,3.0133,2.9664,3.034,3.0114,2.9532,2.9429,2.9407,0.0,0.0,0.0,2.9822,3.0019,3.0556,3.1241,3.1963,3.1807,3.1631,3.2244,3.1575,3.0552,2.9503,2.935,2.9349,2.9071,2.866,2.8029,2.6949,2.5409,2.4092,2.3311,2.209,2.1023,2.0413,1.9743,1.9126,1.8679,1.7868,1.7323,1.7199,1.6778,1.6522,1.6522,1.6522,1.6635,1.6983,1.6995,1.7119,1.7423,1.7423,1.7593,1.8001,1.7724,1.7953,1.859,1.8458,1.9263,2.0803,2.1079,2.1584,2.2221,2.248,2.2443,2.2298,2.2671,2.2747,2.2615,2.3121,2.3328,2.3429,0.0,0.0,0.0,0.0,0.0,0.0,0.0,0.0,0.0,0.0,0.0,0.0,3.0578,3.1458,3.1709,3.0878,3.1613,3.2039,3.1864,3.1776,3.2135,3.3074,3.3926,0.0,3.3351,3.4129,3.4484,3.4364,3.3917,3.4908,3.7209,3.6851,3.7559,3.9064,3.8062,3.6712,3.5119,3.4146,3.3715,3.3476,3.1146,3.0239,3.0236,2.9492,2.924,2.9326,2.9569,2.9569,2.9448,2.9608,2.9569,2.9407,2.9407,2.9407,2.9409,0.0,0.0,0.0,3.0226,3.0218,3.0361,3.1238,3.0574,2.9889,3.0493,2.9938,2.9144,2.8564,2.858,2.8359,2.7325,2.7014,2.6806,2.6469,2.4925,2.3613,2.3257,2.2322,2.1433,2.086,2.0395,1.9829,1.9037,1.8224,1.7598,1.724,1.6778,1.6522,1.6522,1.6522,1.6491,1.6442,1.6442,1.6628,1.7036,1.6898,1.706,1.7448,1.6392,1.6452,1.7484,1.6979,1.7616,1.9179,2.0201,2.1235,2.2197,2.2221,2.2097,2.1957,2.2479,2.2486,2.2294,2.2715,2.3156,2.3372,0.0,0.0,0.0,0.0,0.0,0.0,0.0,0.0,0.0,0.0,0.0,0.0,0.0,3.1265,3.1309,3.1546,3.1914,3.2111,3.2031,3.1893,3.2203,3.3114,3.2951,3.3444,3.4785,3.4627,3.4445,3.4231,3.4012,3.448,3.5583,3.5446,3.5875,3.6798,3.6887,3.6602,3.5947,3.443,3.3807,3.3623,3.1733,3.0987,3.0864,2.9628,2.9197,2.9262,2.937,2.939,2.9407,2.947,2.945,2.9407,2.9407,2.9451,2.957,2.9864,3.0099,3.026,3.0348,3.0316,3.0343,3.0519,3.0243,2.9929,2.9926,2.9738,2.9435,2.8897,2.8476,2.7995,2.7313,2.697,2.6427,2.5252,2.4306,2.3465,2.2779,2.2128,2.1509,2.1039,2.0763,2.0292,1.9536,1.8916,1.8419,1.8068,1.7352,1.6947,1.6947,1.665,1.6479,1.6479,1.6479,1.6449,1.6483,1.6666,1.6854,1.6907,1.6476,1.6488,1.6907,1.6714,1.7303,1.853,1.9263,2.0382,2.1716,2.2053,2.2061,2.1949,2.2127,2.2084,2.1975,2.239,2.2573,2.2705,0.0,0.0,0.0,0.0,0.0,0.0,0.0,0.0,0.0,3.0292,0.0,0.0,0.0,0.0,3.2287,3.2853,3.2658,3.2499,3.2494,3.2351,3.2555,3.3218,3.2966,3.359,3.5259,3.5061,3.486,3.4704,3.4224,3.4407,3.5191,3.4482,3.4641,3.5497,3.561,3.5835,3.6011,3.4724,3.4045,3.366,3.2045,3.1384,3.1262,2.9987,2.9701,2.995,2.9739,2.9709,2.9697,2.9458,2.9365,2.9365,2.9386,2.9531,2.9734,3.0066,3.0241,3.0343,3.0359,3.0371,3.0316,3.0133,3.0109,3.0015,2.9681,2.9699,2.9645,2.9126,2.8679,2.808,2.7073,2.6731,2.6072,2.4617,2.392,2.329,2.2566,2.2203,2.1823,2.1354,2.1071,2.063,1.996,1.9361,1.8864,1.8539,1.7679,1.7199,1.7199,1.6765,1.6522,1.6522,1.6522,1.6436,1.6275,1.6487,1.6536,1.6399,1.6353,1.6308,1.6308,1.6308,1.6943,1.7965,1.8494,1.9636,2.1163,2.1512,2.1692,2.1737,2.1737,2.172,2.1796,2.2126,2.2233,2.2383,0.0,0.0,0.0,0.0,0.0,0.0,0.0,0.0,3.035,3.035,0.0,0.0,0.0,0.0,0.0,3.4705,3.3867,3.3346,3.3331,3.3278,3.3272,3.3336,3.4148,3.4578,3.4538,3.5377,3.5756,3.5665,3.4552,3.4737,3.6102,3.4167,3.4046,3.5392,3.4407,3.4423,3.5172,3.5037,3.4523,3.366,3.2063,3.1403,3.1336,3.0575,3.0765,3.1335,3.0609,3.0378,3.0268,2.9539,2.9302,2.936,2.9423,2.9607,2.9841,3.0049,3.0147,3.0215,0.0,0.0,0.0,3.0138,3.0109,3.0015,2.9698,2.9699,2.9645,2.9126,2.9107,2.8562,2.6535,2.6134,2.5745,2.4679,2.3826,2.3126,2.2677,2.2598,2.2381,2.1768,2.1354,2.0878,2.0277,1.9528,1.8902,1.8539,1.776,1.724,1.724,1.6778,1.6522,1.6522,1.6522,1.6479,1.6392,1.6275,1.6144,1.5988,1.5869,1.5792,1.5792,1.5828,1.6404,1.7448,1.7989,1.9119,2.0574,2.0574,2.0887,2.138,2.1392,2.1595,2.1913,2.1925,2.2119,2.2421,0.0,0.0,0.0,0.0,0.0,3.1028,3.0997,3.1097,3.1161,0.0,0.0,0.0,3.2688,3.3842,3.4561,3.4622,3.4389,3.4245,3.4237,3.4171,3.4199,3.4316,3.4452,3.4802,3.5441,3.5632,3.5407,3.4756,3.4442,3.4392,3.458,3.3304,3.3167,3.3958,3.3441,3.2995,3.2681,3.3695,3.4009,3.3715,3.2687,3.1916,3.1292,3.0527,3.0018,2.9734,2.9535,2.9507,2.9514,2.9292,2.965,3.0197,3.0351,3.017,2.9869,2.9931,3.0109,3.0267,3.0182,0.0,0.0,0.0,0.0,0.0,2.9984,2.9905,2.9787,2.9551,2.9045,2.837,2.7555,2.6808,2.5996,2.5018,2.3975,2.3193,2.285,2.2677,2.2419,2.1969,2.1691,2.1293,2.0679,2.0413,2.0035,1.942,1.8841,1.8419,1.8147,1.7434,1.6863,1.6522,1.6522,1.6479,1.6392,1.6362,1.6219,1.5988,1.5957,1.5869,1.5816,1.6584,1.7135,1.746,1.8374,1.9023,1.9492,2.0261,2.067,2.0875,2.126,2.144,2.1608,2.1992,2.2083,2.2084,0.0,0.0,0.0,0.0,0.0,3.2039,3.1905,3.202,3.2096,0.0,0.0,0.0,3.4135,3.5059,3.5446,3.5076,3.5027,3.5016,3.4978,3.4932,3.4959,3.5071,3.4975,3.5144,3.5671,3.5663,3.5408,3.4855,3.4552,3.4446,3.4515,3.3134,3.2632,3.288,3.256,3.1903,3.1167,3.2341,3.3025,3.3201,3.2063,3.1733,3.177,3.0632,3.0142,3.0023,2.9669,2.9784,3.0014,2.9374,2.9533,3.003,3.0243,3.0057,2.9786,2.9853,2.9996,3.0114,3.0011,3.009,3.0226,3.0226,0.0,0.0,3.0109,2.9734,2.9342,2.9192,2.8444,2.7624,2.698,2.6606,2.5958,2.4679,2.439,2.4014,2.3107,2.2876,2.2624,2.2068,2.1899,2.157,2.086,2.0794,2.0478,1.9762,1.9251,1.875,1.8226,1.7557,1.7073,1.682,1.6595,1.6479,1.6436,1.6392,1.6306,1.6175,1.6032,1.5957,1.5905,1.6702,1.7291,1.7787,1.8391,1.8939,1.934,1.9758,2.0045,2.0322,2.0851,2.1199,2.1464,2.1993,2.2123,2.2071,0.0,0.0,3.08,3.1405,3.2352,3.2936,3.2778,3.2924,3.3064,0.0,3.3323,3.4173,3.5989,3.6731,3.6781,3.6042,3.5745,3.5584,3.5589,3.5526,3.5502,3.5524,3.5474,3.5446,3.5438,3.5491,3.5458,3.5303,3.4778,3.4755,3.5139,3.3452,3.2571,3.2355,3.1933,3.1246,3.0452,3.1102,3.1771,3.2228,3.0889,3.1201,3.2302,3.0779,3.0595,3.1035,3.032,3.0522,3.095,2.9655,2.9248,2.9323,2.9625,2.9645,2.9608,2.9718,2.9823,2.9855,2.9808,2.9924,3.0079,3.0094,3.018,0.0,3.0123,2.9474,2.8818,2.8589,2.7884,2.7009,2.604,2.6316,2.6126,2.4407,2.5141,2.5305,2.3397,2.319,2.2963,2.2169,2.2056,2.1718,2.0974,2.086,2.0579,1.9854,1.9361,1.8712,1.7908,1.7557,1.7323,1.7199,1.685,1.6595,1.6565,1.6522,1.6522,1.6522,1.625,1.612,1.61,1.6548,1.7269,1.8191,1.8314,1.8955,1.985,1.9396,1.9371,1.9812,2.0447,2.0933,2.1392,2.203,2.2247,2.2258,0.0,3.1043,3.082,3.153,3.2358,3.3109,3.3651,3.3853,3.3955,3.3953,3.4679,3.5928,3.7804,3.741,3.7205,3.7674,3.6415,3.5734,3.6039,3.5666,3.5329,3.5128,3.5095,3.5091,3.5109,3.5066,3.4713,3.4066,3.4878,3.4988,3.4404,3.3925,3.3605,3.3367,3.2448,3.1451,3.0483,3.0586,3.0664,3.0759,3.1042,3.1347,3.1531,3.0577,2.9898,2.9457,2.9287,2.9347,2.9531,2.9931,2.9646,2.9285,3.0086,2.9956,2.9514,2.9491,2.9645,2.9789,2.9738,2.979,2.9891,3.0064,3.0123,0.0,3.0109,3.0032,2.9889,2.9595,2.9375,2.9135,2.8763,2.863,2.8191,2.7023,2.6946,2.6146,2.3614,2.3813,2.3804,2.264,2.2292,2.1982,2.1556,2.134,2.1023,2.0628,1.9945,1.9207,1.8422,1.8305,1.7908,1.724,1.7434,1.7393,1.7073,1.7031,1.7186,1.7421,1.6993,1.671,1.6607,1.7445,1.7932,1.8239,1.9083,1.978,2.0459,2.0308,1.9809,1.9293,2.0791,2.1092,2.0933,2.2392,2.2641,2.2209,3.1197,3.1197,3.1428,3.2128,3.3017,3.3865,3.4508,3.4779,3.5066,3.5545,3.6814,3.7899,3.8392,3.8272,3.7981,3.7536,3.6829,3.6118,3.5458,3.5401,3.5173,3.4661,3.4604,3.4584,3.4602,3.4602,3.4263,3.3598,3.4273,3.426,3.3607,3.3815,3.3379,3.2463,3.2619,3.1663,2.995,3.0678,3.0964,3.0875,3.0399,3.0448,3.0705,2.9916,2.9342,2.8994,2.8994,2.8994,2.9127,3.0005,2.977,2.9204,2.968,2.9644,2.9394,2.9368,2.9491,2.9626,2.9608,2.9664,2.979,2.9921,3.0,0.0,0.0,2.9818,2.9499,2.9166,2.8776,2.844,2.8241,2.8336,2.8121,2.7159,2.7175,2.6669,2.48,2.453,2.4056,2.2842,2.2527,2.2445,2.2534,2.2205,2.1956,2.1843,2.1023,2.0212,1.9637,1.9065,1.8472,1.7868,1.7828,1.772,1.7516,1.7516,1.7598,1.776,1.7462,1.7284,1.7186,1.8122,1.8719,1.9061,1.9799,2.0447,2.097,2.0709,2.0258,1.9963,2.1342,2.172,2.1606,2.2686,2.2919,2.258,3.1197,3.1594,3.2235,3.2914,3.3769,3.4557,3.5124,3.5455,3.6002,3.71,3.852,3.9308,3.8953,3.9146,3.8889,3.7859,3.7281,3.6486,3.5318,3.5189,3.4809,3.4013,3.4078,3.4054,3.39,3.4153,3.3995,3.341,3.3616,3.354,3.3173,3.3627,3.3144,3.192,3.277,3.1967,3.0083,3.1043,3.1381,3.1194,2.9816,2.9824,3.0558,2.9604,2.9214,2.9195,2.9049,2.8994,2.9104,2.9916,2.9816,2.9306,2.931,2.9396,2.9484,2.9339,2.9388,2.9471,2.9492,2.9569,2.9664,2.977,2.9872,2.9956,0.0,0.0,0.0,2.8736,2.814,2.7638,2.7438,2.7781,2.7834,2.6995,2.7271,2.7222,2.6165,2.544,2.4572,2.3501,2.2955,2.2942,2.3624,2.3212,2.2899,2.2893,2.1972,2.1224,2.0842,1.9753,1.8991,1.8602,1.8226,1.7988,1.7948,1.7908,1.7948,1.8028,1.7908,1.7814,1.7747,1.8698,1.9314,1.9716,2.0422,2.0992,2.1343,2.1051,2.0908,2.1014,2.1957,2.2271,2.2385,2.3013,2.3225,2.3027,3.2781,3.283,3.3,3.3743,3.4057,3.4462,3.5174,3.5463,3.6212,3.7921,3.8385,3.9122,4.0616,3.9903,3.9816,4.1102,3.8107,3.6534,3.7455,3.5522,3.3876,3.2845,3.3478,3.3515,3.2801,3.3734,3.3841,3.3071,3.3601,3.384,3.3788,3.3918,3.4116,3.4339,3.3142,3.2581,3.2507,3.1376,3.0772,3.0594,3.0277,3.1029,3.2173,3.065,3.0063,2.9971,2.925,2.8994,2.908,2.9584,2.9904,3.0039,2.9806,2.993,3.0074,2.9484,2.9323,2.9347,2.9471,2.9512,2.9551,2.9683,2.9771,2.982,2.9823,0.0,2.9904,2.9691,0.0,2.9451,2.9251,0.0,0.0,2.8589,2.8573,2.8209,2.7012,2.6782,2.6365,2.549,2.3927,2.3415,2.4608,2.4154,2.3537,2.2941,2.2185,2.16,2.126,2.0201,1.9427,1.8977,1.8945,1.8784,1.8422,1.8422,1.8592,1.8936,1.8592,1.8344,1.824,1.9204,1.9446,1.9266,2.0645,2.1279,2.1412,2.1853,2.203,2.2052,2.2242,2.2298,2.2454,2.3484,2.3589,2.3088,3.1715,3.2317,3.2917,3.3149,3.3671,3.4333,3.5057,3.6733,3.8006,3.8263,3.9683,4.095,4.1661,4.1113,4.0976,4.1685,4.0356,3.9032,3.7973,3.7211,3.6122,3.4524,3.4324,3.4116,3.3777,3.3889,3.3667,3.3003,3.3368,3.3428,3.3203,3.3191,3.3249,3.3318,3.2674,3.209,3.1637,3.1901,3.1689,3.1228,3.1597,3.214,3.2477,3.0325,2.9512,2.9475,2.9104,2.8994,2.9007,2.9032,2.9159,2.921,2.8917,2.9072,2.9326,2.9035,2.9115,2.9326,2.9513,2.957,2.9608,2.977,2.9823,2.9805,2.9857,0.0,2.9888,2.9755,0.0,0.0,0.0,0.0,0.0,0.0,2.8414,2.7997,2.7727,2.6889,2.6167,2.5796,2.5047,2.4822,2.5429,2.549,2.5129,2.4135,2.3262,2.2458,2.1631,2.0802,2.005,1.9427,1.9406,1.925,1.886,1.886,1.8936,1.9101,1.8936,1.8822,1.8798,1.9495,1.99,2.0077,2.0965,2.1558,2.1865,2.2118,2.2184,2.2212,2.2227,2.271,2.3414,2.4259,2.4423,2.4105,3.0707,3.1937,3.3075,3.2909,3.3614,3.4522,3.5381,3.7434,3.8829,3.8686,4.0352,4.1712,4.2153,4.1929,4.1897,4.2355,4.1764,4.0497,3.8383,3.8098,3.6997,3.4736,3.4816,3.4563,3.3797,3.4064,3.3956,3.3361,3.3419,3.3412,3.3347,3.3037,3.2917,3.2921,3.2751,3.2143,3.1318,3.2288,3.2191,3.1436,3.1959,3.2022,3.1629,2.9963,2.92,2.8994,2.8905,2.8881,2.887,2.8709,2.8729,0.0,2.8368,2.8551,2.8822,2.8601,2.8827,2.9156,2.9235,2.9399,2.9589,2.966,0.0,0.0,0.0,0.0,0.0,0.0,2.9701,0.0,0.0,0.0,2.8984,2.8827,0.0,2.7743,2.8139,2.721,2.6461,2.6461,2.6392,2.6247,2.6053,2.643,2.6236,2.5077,2.406,2.3036,2.2009,2.1225,2.0545,2.003,1.9797,1.9581,1.9288,1.9139,1.9101,1.9101,1.9101,1.9101,1.913,1.9666,2.0148,2.0567,2.1197,2.166,2.2038,2.2207,2.2231,2.2198,2.2367,2.3097,2.4165,2.4584,2.4831,2.4892,3.0552,3.2312,3.3827,3.3688,3.4282,3.5172,3.6366,3.6852,3.7674,3.9338,3.9627,4.033,4.202,4.1968,4.2419,4.398,4.1518,3.967,3.9208,3.7341,3.4918,3.1862,3.4312,3.4488,3.1742,3.4118,3.5001,3.4274,3.3941,3.4203,3.4997,3.4091,3.3979,3.4492,3.3847,3.3312,3.2901,3.2355,3.1549,3.0631,3.0583,3.0032,2.9292,2.9991,2.9724,2.897,2.8718,0.0,0.0,2.8765,2.9012,0.0,0.0,0.0,0.0,2.8344,2.8386,2.8651,0.0,0.0,0.0,2.9182,0.0,0.0,0.0,0.0,2.9701,0.0,0.0,2.9645,2.9448,2.8719,2.8281,2.8717,2.8117,0.0,0.0,2.8146,2.811,2.811,2.8027,2.7511,2.6481,2.6559,2.6286,2.5263,2.4128,2.3155,2.2426,2.1373,2.0794,2.0761,2.0065,1.969,1.969,1.9273,1.9101,1.9101,1.9101,1.9101,1.913,1.9666,1.9984,2.0164,2.1183,2.1597,2.1668,2.2175,2.2324,2.224,2.2831,2.3477,2.4118,2.4109,2.4498,2.5005,3.1008,3.2074,3.2938,3.258,3.3569,3.4879,3.6329,3.8084,3.9676,4.0905,4.2102,4.3447,4.5007,4.4499,4.4476,4.5557,4.414,4.2486,4.0831,4.0094,3.845,3.5613,3.5896,3.5431,3.3939,3.4619,3.4766,3.4311,3.4547,3.4808,3.5073,3.4166,3.3772,3.3778,3.2974,3.2156,3.1433,3.1759,3.1406,3.0593,3.0572,3.032,2.9927,2.9628,2.919,2.8718,2.8626,2.8456,0.0,2.8071,2.807,2.8099,2.7705,2.7844,2.8118,2.7847,2.8057,0.0,0.0,0.0,2.8515,2.9154,0.0,0.0,0.0,0.0,0.0,0.0,0.0,0.0,2.9448,2.9229,2.902,2.8814,2.8578,2.836,0.0,2.8025,2.7864,2.7864,2.8025,2.788,2.7203,2.6513,2.5641,2.4481,2.3374,2.2442,2.1714,2.1795,2.1535,2.081,2.0967,2.074,2.005,1.9894,1.9732,1.9508,1.9508,1.9362,1.9116,1.9295,1.9604,2.0027,2.0752,2.1269,2.1625,2.2161,2.237,2.2338,2.2456,2.2873,2.3519,2.4362,2.5084,2.5564,3.1543,3.1805,3.1997,3.1932,3.3265,3.4881,3.6387,3.8644,4.054,4.1527,4.291,4.4324,4.564,4.5205,4.5122,4.5916,4.4967,4.3396,4.1241,4.0878,3.9516,3.6612,3.6612,3.5865,3.4092,3.5139,3.5103,3.3863,3.5021,3.5396,3.5092,3.4488,3.3942,3.3406,3.312,3.2096,3.0695,3.147,3.1173,3.0169,3.0169,3.0123,2.9939,0.0,2.9093,2.8974,0.0,2.8147,2.7897,2.7535,2.743,2.7369,2.7072,2.6994,2.7031,2.6996,2.7109,2.7237,2.7374,2.7392,0.0,2.8239,2.8091,0.0,2.9042,0.0,2.8686,0.0,0.0,0.0,0.0,2.9111,2.8899,2.8718,2.8439,2.8243,0.0,2.7922,2.7701,2.7701,2.7777,2.7719,2.7417,2.6573,2.5609,2.4546,2.372,2.2898,2.2118,2.2556,2.2489,2.1789,2.1798,2.1465,2.0786,2.04,2.007,1.9889,1.9889,1.9732,1.9479,1.9479,1.9737,2.0181,2.0793,2.1323,2.1728,2.2312,2.2477,2.237,2.2324,2.2752,2.3533,2.4399,2.5177,2.5839,3.2029,3.152,3.1272,3.1849,3.3494,3.5192,3.6597,3.8535,4.0243,4.1341,4.22,4.31,4.4135,4.4212,4.4459,4.5115,4.4018,4.2419,4.0412,3.9766,3.8038,3.4848,3.6392,3.5755,3.2389,3.5514,3.5869,3.3156,3.5306,3.5909,3.5092,3.502,3.4472,3.3543,3.429,3.317,3.0762,3.1496,3.0913,2.9463,2.9425,2.9421,2.9413,2.9237,2.9428,2.9583,2.8227,2.7683,2.7612,2.7178,2.7034,2.7002,2.6807,2.6377,2.5905,2.5846,2.5628,2.5366,2.5312,2.5883,2.648,2.6536,0.0,0.0,0.0,0.0,2.7207,0.0,0.0,0.0,0.0,2.8368,2.7962,2.8424,2.7853,2.7536,2.8102,2.7922,2.7683,2.7672,2.7369,2.7181,2.7181,2.6757,2.6118,2.5346,2.4942,2.4386,2.3545,2.3598,2.3598,2.3513,2.2492,2.1887,2.1824,2.0821,2.0273,2.0208,2.0208,2.0208,2.0208,2.0208,2.035,2.0609,2.1335,2.1683,2.1859,2.2552,2.2689,2.2417,2.2417,2.3102,2.4118,2.4188,2.4896,2.5893,3.1929,3.2007,3.2335,3.2737,3.397,3.5395,3.6878,3.8917,4.0935,4.2659,4.3795,4.4966,4.6266,4.5748,4.5122,4.4738,4.3503,4.198,4.0105,3.9425,3.8187,3.6243,3.6331,3.5578,3.3803,3.5151,3.5285,3.3975,3.5003,3.5373,3.5092,3.5075,3.4509,3.3544,3.4372,3.3272,3.082,3.1665,3.1383,3.0311,2.9651,3.0089,3.0927,0.0,2.9112,2.9368,2.836,2.7742,2.7303,2.653,2.6247,2.6051,2.5124,2.4867,2.4917,2.4683,2.4812,2.5046,2.5057,2.4945,2.4973,2.56,2.5597,2.5661,0.0,0.0,0.0,0.0,0.0,0.0,0.0,0.0,2.8015,2.8424,2.8192,2.8031,2.8191,2.7922,2.7612,2.7369,2.7053,2.6825,2.6825,2.6184,2.5581,2.5094,2.4428,2.3964,2.3734,2.4208,2.4207,2.3582,2.3821,2.3412,2.2261,2.1952,2.1434,2.0646,2.0646,2.0496,2.0208,2.0208,2.0231,2.0355,2.153,2.1922,2.1736,2.2789,2.3023,2.2689,2.2477,2.3102,2.423,2.5093,2.5626,2.5893,3.3287,3.3234,3.3305,3.348,3.437,3.5563,3.7006,3.8958,4.0784,4.2174,4.3323,4.4183,4.4608,4.4437,4.3968,4.3269,4.1983,4.0593,3.9104,3.8113,3.6907,3.5451,3.5167,3.4347,3.284,3.4178,3.4366,3.325,3.4548,3.4973,3.4541,3.4921,3.4166,3.2561,3.411,3.3333,3.0922,3.1352,3.1422,3.1155,2.9895,3.0148,0.0,2.9531,2.8943,2.8856,2.8344,2.7542,2.6661,2.5794,2.5476,2.5316,2.4486,2.4163,2.4015,2.3754,2.3658,2.3658,2.3813,2.368,2.3606,2.4173,2.4138,2.4159,2.4973,2.4835,2.4899,0.0,0.0,0.0,0.0,0.0,2.7807,2.8288,2.8291,2.8182,2.8182,2.7922,2.7642,2.743,2.6971,2.6691,2.6691,2.6168,2.5696,2.5469,2.5071,2.4806,2.4736,2.5097,2.5114,2.4615,2.4955,2.4593,2.3418,2.3059,2.2441,2.1486,2.1166,2.0909,2.0697,2.0697,2.0597,2.054,2.1874,2.2126,2.17,2.2971,2.3231,2.2778,2.2776,2.3158,2.3786,2.5036,2.5655,2.5893,3.5147,3.4722,3.4197,3.4063,3.4751,3.5735,3.6996,3.8867,4.029,4.0844,4.1894,4.2267,4.1445,4.1841,4.1878,4.1141,3.9928,3.8697,3.76,3.6238,3.4938,3.3676,3.3494,3.2638,3.0993,3.2939,3.3323,3.2037,3.3922,3.448,3.3817,3.4464,3.3538,3.1442,3.3525,3.3146,3.0941,3.0864,3.1215,3.1678,3.0064,2.9816,3.0352,2.9453,2.8709,2.8136,2.7968,2.7113,2.5975,2.5176,2.4849,2.4658,2.4222,2.3688,2.3182,2.2926,2.2458,2.2039,2.2275,2.2395,2.2485,2.2651,2.266,2.2799,2.3421,2.3119,2.3172,2.4918,2.4804,2.4724,0.0,0.0,2.7284,2.7897,2.811,2.8146,2.8039,2.7968,2.7883,2.7719,2.7164,0.0,2.6691,2.6399,2.6168,2.6026,2.6115,2.6132,2.5934,2.599,2.599,2.5934,2.5791,2.546,2.4857,2.4035,2.33,2.2669,2.194,2.16,2.1584,2.1503,2.1344,2.1242,2.2378,2.249,2.2018,2.3254,2.3451,2.3059,2.3283,2.339,2.3526,2.4573,2.5359,2.5893,3.558,3.5372,3.4964,3.4345,3.5214,3.6117,3.6554,3.8928,4.0633,4.0509,4.1625,4.2087,4.118,4.1093,4.05,3.908,3.8391,3.7327,3.5527,3.4429,3.3647,3.3231,3.2282,3.1662,3.1306,3.1796,3.2311,3.281,3.2806,3.3146,3.3785,3.3215,3.2686,3.2199,3.2468,3.1839,3.0609,3.0807,3.084,3.0692,2.9844,2.9524,2.9498,2.8582,2.7844,2.723,2.6545,2.6231,2.6006,2.5235,2.4517,2.375,2.2801,2.2428,2.2286,2.2052,2.1969,2.194,2.2039,2.2068,2.2096,2.2136,2.2203,2.232,2.2456,2.2265,2.2348,2.3325,2.2931,2.2915,2.4569,0.0,0.0,2.6715,2.7599,0.0,0.0,2.8297,2.8752,2.7801,2.7369,2.7021,2.6725,2.6399,2.6168,2.6168,2.6168,2.6168,2.6132,2.6168,2.6115,0.0,2.5917,2.5742,0.0,0.0,2.4256,2.411,2.343,2.3124,2.3074,2.2475,2.2506,2.3038,2.3296,2.3431,2.3552,2.4335,2.4468,2.4086,2.4051,2.437,2.4841,2.4948,2.5359,2.5893,3.6597,3.6352,3.6049,3.6162,3.629,3.6638,0.0,3.8659,3.9406,3.9105,3.9533,3.9408,3.8169,3.829,3.7879,3.6503,3.5332,3.4233,3.3209,3.1896,3.1319,3.1588,3.0585,3.0279,3.0814,3.0469,3.093,3.2284,3.1701,3.1939,3.2958,3.2542,3.2052,3.1582,3.18,3.2101,3.2344,3.1145,0.0,3.0917,2.9243,2.8553,2.8418,2.7506,2.6891,2.6408,2.5958,2.5456,2.4953,2.4505,2.3839,2.3069,2.2445,2.226,2.2231,2.1969,2.184,2.1781,2.184,2.1691,2.1524,2.1524,2.1584,2.1628,2.1628,2.1645,2.1804,2.2378,2.2191,2.2509,2.4322,2.4936,0.0,0.0,0.0,0.0,0.0,2.8548,2.8742,2.8599,2.7917,2.7338,2.6989,2.664,2.6399,2.6203,2.6364,2.6382,2.6203,2.622,2.6168,0.0,0.0,0.0,2.5864,0.0,2.5106,2.509,2.4016,2.3691,2.3981,2.3284,2.3139,2.3529,2.3886,2.3975,2.3932,2.4413,2.4471,2.425,2.4282,2.4429,2.4632,2.5,2.5216,2.5472,3.7265,3.7067,3.6861,3.7458,3.6915,3.669,3.7485,3.7449,3.7446,3.7801,3.7644,3.6977,3.5654,3.5855,3.5602,3.4501,3.28,3.1645,3.125,2.9638,2.9022,2.9683,2.8588,2.851,2.972,2.8816,2.9179,3.0941,3.0327,0.0,3.1581,3.1768,3.1427,3.0686,3.1381,3.2293,0.0,0.0,3.0646,3.0812,2.8617,2.7526,2.712,2.6352,2.585,2.5558,2.5372,2.4673,2.3843,2.3732,2.3251,2.2659,2.2515,2.2432,2.2349,2.213,2.1899,2.1694,2.1694,2.145,2.1135,2.1135,2.1135,2.1135,2.1135,2.1277,2.1448,2.1721,2.1853,2.245,2.414,2.4414,0.0,0.0,0.0,0.0,0.0,2.8492,2.8485,2.8536,2.8012,2.7382,2.6716,2.6736,2.6573,2.6042,2.6217,2.6319,2.6203,2.6071,2.612,0.0,0.0,2.6751,2.6488,0.0,2.5966,2.595,2.4769,2.4389,2.4729,2.4032,2.3821,2.3948,2.4321,2.4397,2.4268,2.4491,2.4544,2.4522,2.4805,2.4683,2.4528,2.5257,2.5426,2.5247,3.6639,3.6868,3.6754,3.6405,3.6055,3.5474,3.4599,3.4373,3.5156,3.7559,3.7535,3.6965,3.6197,3.5635,3.4985,3.4198,3.2689,3.1384,3.0384,2.8544,2.7683,2.8169,2.6273,2.6053,2.7906,2.6549,2.6808,2.8773,2.836,2.8635,0.0,3.032,3.0487,3.0226,0.0,0.0,0.0,3.0397,2.9935,2.8985,2.8202,2.6933,2.5484,2.5165,2.4789,2.4398,2.4086,2.3715,2.3359,2.3359,2.3067,2.2685,2.2685,2.2542,2.2394,2.2377,2.2049,2.1694,2.1694,2.1511,2.1277,2.1277,2.1277,2.1277,2.1277,2.1309,2.1309,2.134,2.1556,2.2123,2.3457,2.3562,2.3887,0.0,0.0,0.0,0.0,2.772,2.8383,2.5973,2.6778,2.6801,2.5026,2.623,2.6666,2.5464,2.5295,2.5526,2.617,2.5574,2.5822,2.7168,2.6475,2.6718,2.8003,2.7246,2.6864,2.6776,2.6586,2.6173,2.557,2.4745,2.4774,2.5373,2.4758,2.4851,2.5443,2.547,2.5584,2.578,2.6295,2.6184,2.5918,2.6499,2.6371,2.5809,0.0,0.0,0.0,0.0,0.0,0.0,0.0,3.4747,3.4602,3.5356,3.5,3.4431,3.3824,3.3149,3.2425,3.1708,3.0189,2.8908,2.8022,2.6793,2.6468,2.7348,2.5595,2.5601,2.7725,2.6061,2.5948,0.0,0.0,0.0,0.0,0.0,0.0,0.0,0.0,3.0088,3.0202,2.971,2.8963,2.8031,2.6823,2.5332,2.3845,2.3696,2.3523,2.3319,2.3091,2.2946,2.2813,2.2637,2.2553,2.2515,2.2515,2.2569,2.2579,2.2579,2.236,2.2106,2.2106,2.1738,2.1371,2.1371,2.1277,2.1199,2.1199,2.1246,2.1309,2.1309,2.1729,2.2394,2.3353,2.3817,2.4414,0.0,0.0,0.0,0.0,0.0,2.7599,2.6982,2.6571,2.5906,2.4901,2.5842,2.6422,2.6152,2.6202,2.6219,2.6187,2.5938,2.6236,2.7284,0.0,2.7109,2.7818,2.7771,2.7545,2.7179,2.7483,2.7163,2.6352,2.6192,2.6262,2.6482,2.6016,2.5988,2.6231,2.5794,2.5905,2.6414,2.6704,2.6927,2.7084,2.731,2.7159,2.6811,3.5294,0.0,3.6162,0.0,3.6205,3.5282,3.5118,3.4298,3.3554,3.308,3.257,3.2235,3.2132,3.1539,3.0784,2.9935,2.8466,2.7254,2.6376,2.5647,2.5547,2.6143,2.4876,0.0,2.6777,2.5172,2.4858,2.5913,2.643,0.0,0.0,0.0,0.0,0.0,2.801,2.8653,2.9278,2.8259,2.749,2.6922,2.555,2.4156,2.291,2.2756,2.2651,2.2571,2.2381,2.2271,2.2243,2.2056,2.2073,2.2248,2.2349,2.2487,2.2605,2.2685,2.2569,2.2405,2.2405,2.1945,2.1479,2.1479,2.1309,2.1167,2.1167,2.1214,2.1309,2.1309,2.1892,2.262,2.3367,2.4064,2.4854,2.5865,0.0,0.0,0.0,2.683,2.6453,2.675,2.6377,2.5673,2.4591,2.567,2.6364,2.6129,2.6447,2.6639,2.6609,2.6245,2.6457,0.0,0.0,0.0,2.7698,2.8144,2.7932,2.713,2.7809,2.7683,2.6902,2.7333,2.7524,2.7427,2.7212,2.7071,2.6944,2.6231,2.6361,2.7001,2.7109,2.7399,2.7809,2.801,2.7815,2.7414,3.3475,3.3732,3.4212,3.544,3.4288,3.3099,3.2757,3.2182,3.1567,3.1176,3.0785,3.0973,3.2053,3.1523,3.064,2.9595,2.8339,2.712,2.5983,2.5441,2.4896,0.0,0.0,2.3705,2.4523,2.3339,2.3091,2.385,0.0,0.0,2.4408,0.0,2.6619,2.6602,2.6619,2.6637,2.6602,2.5781,2.5447,2.5376,2.4593,2.3786,2.2952,2.2546,2.2402,2.2343,2.1957,2.1768,2.1724,2.1724,2.1738,2.1886,2.2276,2.2405,2.2432,2.2632,2.2569,2.2405,2.2405,2.2049,2.1694,2.1694,2.1511,2.1309,2.1309,2.1309,2.1309,2.1309,2.1892,2.262,2.3367,2.4064,2.4762,2.557,0.0,0.0,0.0,2.5023,0.0,2.4039,2.604,2.6424,2.3789,2.5798,2.6564,2.4838,0.0,0.0,0.0,0.0,0.0,2.7559,2.688,0.0,2.8,2.8453,2.7955,2.6502,2.7666,2.7805,2.7147,2.7992,2.8307,2.819,2.819,2.7994,2.764,2.696,2.7089,2.7688,2.7705,2.7732,2.7899,2.8637,2.8304,2.7515,3.2481,3.2703,3.3037,3.3446,3.3155,3.2654,3.184,3.178,3.1553,3.0969,3.0983,3.083,3.0309,2.9743,2.902,0.0,2.7186,2.6167,0.0,2.49,2.4662,2.4227,2.3661,2.3482,2.3688,2.2801,2.2423,2.2581,0.0,0.0,0.0,2.5286,2.511,2.4251,2.5426,2.5734,2.5461,2.6065,2.5716,2.4704,2.3984,2.3192,2.2432,2.2226,2.2113,2.2044,2.1869,2.1797,2.1738,2.1448,2.1526,2.1708,2.1661,2.2003,2.2405,2.2487,2.2542,2.2605,2.2605,2.2388,2.2135,2.1957,2.1721,2.1526,2.134,2.1309,2.1309,2.1309,2.1892,2.2475,2.2701,2.3317,2.3902,2.4218,2.4845,0.0,2.456,0.0,2.4868,2.412,2.4242,2.4031,2.3179,2.4678,2.5777,2.5836,0.0,0.0,0.0,0.0,0.0,0.0,2.7915,0.0,2.8894,2.9251,2.8941,2.8003,2.9206,2.9513,2.9085,2.9345,2.9538,2.9534,2.9381,2.9085,2.8755,2.8033,2.7988,2.845,2.845,2.8785,2.9255,2.93,2.9136,2.8779,3.1058,3.1238,3.1584,3.1795,3.1917,3.1776,3.1272,3.1061,3.0881,3.0805,3.0646,3.0236,2.9405,2.8882,0.0,2.6889,2.6428,2.561,2.4265,2.4782,2.4656,2.3684,2.3718,2.3502,2.2904,2.2387,0.0,2.1807,2.2737,2.3474,2.4109,2.3925,2.3481,2.2799,2.3879,2.4194,2.3949,2.4706,2.4509,2.363,2.3173,2.2688,2.2225,2.2044,2.1969,2.1928,2.184,2.1738,2.1587,2.1479,2.1448,2.1495,2.1479,2.1781,2.2192,2.2349,2.2487,2.2605,2.2685,2.2552,2.2349,2.2073,2.184,2.1634,2.134,2.1309,2.1325,2.145,2.2003,2.2622,2.2998,2.3457,2.3949,2.4508,2.4763,2.476,2.445,0.0,2.4276,2.4076,0.0,0.0,0.0,2.5357,2.638,0.0,0.0,0.0,0.0,0.0,0.0,2.7984,2.8502,0.0,2.9257,2.9661,2.948,2.8725,2.9617,3.0089,3.0153,3.037,3.0544,3.0711,3.0463,3.0095,2.9601,2.8916,2.8862,2.9178,2.8903,2.9227,2.9874,2.971,2.9576,2.9425,2.931,2.9498,2.993,0.0,3.0578,0.0,3.082,3.0114,2.9842,3.0628,2.9971,2.9392,2.93,2.8949,2.7906,2.6025,0.0,0.0,0.0,2.5002,2.4895,2.2866,2.3794,2.3695,2.2202,2.2015,2.1811,2.1528,2.1229,2.168,2.2778,2.2098,2.1932,2.2214,2.2355,2.2355,2.2214,2.2372,2.2383,2.2282,2.2282,2.2282,2.2282,2.2073,2.1998,2.1998,2.184,2.1601,2.1371,2.1678,2.1509,2.1261,2.1556,2.1708,2.1827,2.2248,2.2377,2.2432,2.2632,2.2552,2.2332,2.2056,2.184,2.1603,2.134,2.1309,2.1402,2.1664,2.2205,2.2959,2.3944,2.4093,2.4529,2.593,2.498,2.4141,2.4343,2.3695,2.3422,2.3952,0.0,0.0,0.0,2.7347,2.8045,0.0,0.0,0.0,0.0,0.0,2.921,2.8443,2.8755,2.9097,2.9268,2.9777,2.9626,2.8874,2.9386,2.99,3.0551,3.1045,3.1428,3.162,3.1449,3.0965,3.0327,2.9683,2.9625,2.9837,2.9156,2.9275,2.9918,2.9918,2.9726,2.9531,0.0,0.0,2.9013,2.9406,2.9735,2.9879,2.961,2.986,3.0054,2.987,3.0377,3.028,2.9276,2.9274,2.8589,2.6605,2.6461,2.6077,2.5029,2.5694,2.5277,2.3455,2.4029,2.3647,2.2007,2.1691,2.163,2.1823,2.1213,2.1521,2.2619,2.1958,2.1869,2.2333,2.3422,2.3257,2.2281,2.3315,2.3147,2.2225,2.2225,2.2254,2.2282,2.2197,2.2106,2.1998,2.1928,2.1781,2.1631,2.1464,2.134,2.1277,2.1293,2.1245,2.1323,2.1998,2.2287,2.2432,2.2632,2.2659,2.2525,2.2113,2.1675,2.1371,2.1309,2.1464,2.1634,2.1694,2.1943,2.2425,2.3284,2.3022,2.3165,2.476,2.4262,2.3784,2.3927,2.4213,2.4379,0.0,2.5603,2.6522,2.6425,2.739,2.7889,0.0,0.0,0.0,2.8855,2.9847,3.0122,2.9479,2.9675,2.9901,3.0021,2.9995,3.0168,3.052,3.1253,3.1636,3.1636,3.2092,3.2144,3.1984,3.1912,3.16,3.1027,3.062,3.0369,3.0182,2.9794,2.9756,2.9918,2.9918,2.9858,2.977,2.8457,2.8587,2.8908,2.9099,2.9463,2.9651,2.954,2.9651,2.9837,3.0007,2.9797,2.9383,2.8754,2.865,2.8096,2.6756,2.6332,2.5845,2.5162,2.544,2.4936,2.3393,2.3918,2.3445,2.1724,2.1448,2.1616,2.2117,2.1584,2.185,2.2817,2.2151,2.1941,2.2197,2.2839,2.2725,2.2099,2.2687,2.2632,2.2106,2.2106,2.218,2.2225,2.2123,2.2032,2.1998,2.1899,2.1721,2.1587,2.1556,2.1433,2.1309,2.1448,2.1386,2.1417,2.2015,2.2203,2.2287,2.2605,2.2712,2.2588,2.2113,2.1794,2.1601,2.1495,2.1678,2.1869,2.1991,2.2387,2.2958,2.3867,2.3471,2.3522,2.5,2.4694,2.4281,2.4298,2.4925,2.5369,2.5349,2.6637,2.7473,2.7348,2.8329,2.87,2.8096,2.8588,0.0,2.9258,3.0249,3.0594,3.0105,3.0363,3.0601,3.0845,3.0828,3.0971,3.1376,3.1841,3.2056,3.2162,3.2266,3.2283,3.2161,3.1966,3.1637,3.1257,3.0747,3.046,3.0251,3.0017,2.9918,2.9918,2.9918,2.9918,2.9874,2.821,2.8587,2.9035,2.9099,2.9352,2.9665,2.9851,2.954,2.9435,3.0182,2.9064,2.8144,2.8211,2.7888,2.7418,2.6884,2.616,2.5526,2.4972,2.5088,2.4519,2.306,2.3719,2.3256,2.1419,2.1311,2.1618,2.2301,2.194,2.2202,2.2984,2.2351,2.202,2.1911,2.1834,2.1847,2.1899,2.176,2.1834,2.1998,2.1998,2.2061,2.2152,2.1986,2.194,2.1969,2.1869,2.1617,2.1433,2.1691,2.1587,2.134,2.1691,2.1678,2.1603,2.2123,2.2147,2.2113,2.2561,2.2685,2.2535,2.2113,2.1998,2.194,2.1738,2.1869,2.2163,2.2552,2.3164,2.3967,2.5034,2.4614,2.4617,2.6182,2.5762,2.5289,2.5374,0.0,2.6591,2.682,2.83,2.9135,2.8599,2.9639,2.9798,2.8589,2.8576,2.8918,2.9602,3.0274,3.0593,3.0504,3.0925,3.1312,3.1579,3.1731,3.1823,3.1787,3.186,3.2056,3.2386,3.2162,3.2127,3.2283,3.1841,3.1507,3.1334,3.0625,3.0393,3.0335,3.0017,2.9918,2.9918,2.9918,2.9918,2.9918,2.821,2.8406,2.878,2.9035,2.9352,2.9477,2.9058,2.9373,2.9439,2.8844,2.9064,2.903,2.8188,2.8198,2.8032,2.7518,2.6822,2.6216,2.5664,2.5788,2.4965,2.2984,2.3686,2.3224,2.1341,2.1264,2.1397,2.1813,2.1734,2.1979,2.2397,2.2086,2.181,2.1601,2.241,2.2452,2.1932,2.2443,2.2391,2.1928,2.1928,2.1969,2.2044,2.1998,2.1969,2.1911,2.1899,2.1811,2.1738,2.1781,2.1587,2.134,2.1691,2.1462,2.1229,2.2049,2.2147,2.2113,2.2561,2.2596,2.236,2.2056,2.1998,2.194,2.1738,2.202,2.2586,2.348,2.3937,2.4629,2.6065,2.5385,2.5453,2.8035,2.6977,2.6292,2.7502,0.0,2.8394,2.802,2.966,3.0917,3.1092,3.0731,3.0422,3.0302,2.9094,2.8627,2.9258,2.939,2.9933,3.0973,3.1708,3.2039,3.1932,3.2266,3.2386,3.2197,3.2555,3.2737,3.2802,3.242,3.2283,3.2283,3.1912,3.1746,3.1671,3.1004,3.0707,3.0683,3.0103,2.9918,2.9918,2.9918,2.9918,2.9918,2.7907,2.8356,2.8908,2.9099,2.9352,2.9401,2.8867,2.9449,2.9538,2.8469,2.8489,2.8397,2.7669,2.74,2.7214,2.7115,2.6666,2.6259,2.6001,2.5987,2.4997,2.2859,2.3551,2.3031,2.0974,2.1419,2.1516,2.1171,2.2218,2.2385,2.1781,2.2256,2.213,2.1448,2.196,2.2065,2.1857,2.1962,2.1944,2.184,2.184,2.2132,2.2508,2.2078,2.2149,2.2432,2.2003,2.1827,2.1797,2.1797,2.1708,2.1587,2.1768,2.157,2.1448,2.2123,2.2332,2.2409,2.2659,2.2632,2.2515,2.226,2.2315,2.2326,2.2135,2.2426,2.3033,2.392,2.498,2.5975,2.6677,2.6694,2.7005,2.8308,2.7762,0.0,0.0,2.9494,2.9964,3.0123,3.1028,3.1658,3.1706,3.138,3.1082,3.0794,3.0076,2.9609,2.952,2.9942,3.0373,3.0751,3.1918,3.2453,3.2335,3.2654,3.2737,3.2639,3.2802,3.2787,3.2573,3.2606,3.2318,3.1768,3.1839,3.1617,3.1218,3.0707,3.0543,3.0477,3.006,2.9918,2.9918,2.9918,2.9918,2.9918,2.7523,2.8138,2.8752,2.8878,2.9192,2.9338,2.8789,2.9261,2.9184,2.7921,2.7492,2.7213,2.7025,2.6562,2.6399,2.6659,2.6555,2.6319,2.6012,2.602,2.5156,2.3206,2.3383,2.2637,2.0695,2.1466,2.1478,2.0722,2.2353,2.2521,2.1317,2.2256,2.2223,2.1386,2.1493,2.1661,2.1797,2.1706,2.1802,2.2062,2.2228,2.2673,2.315,2.2358,2.2455,2.2884,2.2076,2.1797,2.1797,2.1797,2.1797,2.1797,2.1797,2.1724,2.168,2.2168,2.2487,2.2712,2.2712,2.2859,2.2945,2.2511,2.2689,2.2856,2.2466,2.2929,2.3671,2.4731,2.6239,2.7492,2.7869,2.8326,2.8739,2.908,0.0,0.0,0.0,3.0928,3.1549,3.1887,3.218,3.2247,3.2036,3.1888,3.159,3.1063,3.0876,3.0556,3.0062,3.0451,3.0576,3.0349,3.1858,3.2719,3.2737,3.2898,3.2858,3.263,3.2827,3.2598,3.2037,3.255,3.2231,3.1317,3.162,3.1393,3.0804,3.0477,3.0293,3.0251,3.0017,2.9918,2.9918,2.9918,2.9918,2.9918,2.6897,2.7325,2.7857,2.8215,2.8775,2.9022,2.857,2.831,2.7701,2.6516,2.5993,2.5923,2.6304,2.6257,2.6332,2.6564,2.6912,2.6642,2.5456,2.6075,2.5825,2.443,2.3173,2.1972,2.081,2.1109,2.1081,2.0722,2.147,2.1605,2.1224,2.1612,2.1627,2.1309,2.1648,2.1797,2.1831,2.2495,2.2808,2.2874,2.3553,2.3868,2.3835,2.3089,2.2841,2.2791,2.2062,2.1797,2.1797,2.1797,2.1797,2.1797,2.1797,2.1724,2.168,2.2168,2.2487,2.2712,2.2712,2.3371,2.3816,2.2685,2.3065,2.3474,2.2586,2.3353,2.4731,2.6514,2.772,2.8946,3.045,3.0316,3.0385,3.1608,0.0,0.0,3.2258,3.3136,3.334,3.2456,3.2976,3.3241,3.2952,3.224,3.1775,3.1709,3.1094,3.0711,3.0725,3.0143,2.98,2.9853,3.1696,3.2816,3.3055,3.3011,3.2572,3.1796,3.2527,3.2314,3.123,3.1984,3.202,3.1397,3.1355,3.1235,3.0935,3.0477,3.0293,3.0251,3.0017,2.9918,2.9918,2.9918,2.9918,2.9918,2.6285,2.6533,2.6983,2.7471,2.779,2.794,2.7879,2.7954,2.7635,2.6535,2.6607,2.6773,2.6814,2.6454,2.6308,2.6587,2.6244,2.5929,2.5701,2.5815,2.5345,2.4159,2.3178,2.2134,2.1055,2.1593,2.1497,2.0744,2.1848,2.189,2.097,2.1754,2.1843,2.1309,2.1691,2.184,2.1814,2.2096,2.2477,2.2874,2.2708,2.3172,2.3868,2.2675,2.2493,2.2791,2.2046,2.2079,2.241,2.1947,2.2096,2.2394,2.193,2.1724,2.168,2.2003,2.2517,2.2919,2.2738,2.2972,2.3163,2.2701,2.2838,2.3057,2.2886,2.3706,2.5027,2.6916,2.8537,2.9942,3.1038,3.143,3.1777,3.2265,0.0,3.2308,3.3272,3.371,3.3732,3.325,3.3497,3.3522,3.3086,3.2786,3.2606,3.2606,3.2294,3.1966,3.1611,3.0902,3.0505,3.0532,3.1678,3.2325,3.2433,3.2809,3.2805,3.2438,3.2741,3.2396,3.1498,3.2313,3.1967,3.0821,3.1393,3.1162,3.0384,3.0559,3.0502,3.0293,3.0199,3.0156,3.0113,2.9946,2.9918,2.9918,2.5673,2.5913,2.627,2.6609,2.702,2.7195,2.6987,2.7271,2.7124,2.6109,2.6164,2.6386,2.6503,2.6003,2.5701,2.5926,2.5664,2.5534,2.5589,2.568,2.5272,2.4314,2.377,2.2916,2.1617,2.2102,2.1842,2.0794,2.1729,2.1782,2.0974,2.1698,2.1826,2.1464,2.1751,2.184,2.1814,2.2278,2.2642,2.2891,2.2826,2.3273,2.3868,2.2595,2.2429,2.2791,2.2046,2.2129,2.2477,2.1963,2.2129,2.246,2.1947,2.1814,2.1844,2.1998,2.2627,2.3293,2.3083,2.3246,2.3315,2.2832,2.3136,2.3537,2.3498,2.4704,2.6291,2.784,2.9661,3.1201,3.2008,3.2596,3.3028,3.3348,3.334,3.3603,3.4319,3.4469,3.4351,3.3983,3.3998,3.3876,3.3419,3.3339,3.325,3.319,3.3055,3.2719,3.2097,3.1578,3.1219,3.0975,3.16,3.1817,3.1583,3.2509,3.2822,3.2541,3.2791,3.2347,3.1351,3.2398,3.2074,3.0675,3.1432,3.124,3.0426,3.0683,3.0675,3.0493,3.0599,3.0507,3.0267,3.0087,2.9989,2.9918,2.5118,2.548,2.5828,2.5547,2.6436,2.6884,2.5926,2.6179,2.6075,2.4949,2.4162,2.4096,2.518,2.4694,2.4369,2.4582,2.54,2.5604,2.495,2.5717,2.5889,2.5143,2.511,2.4264,2.2459,2.2459,2.1956,2.0843,2.0877,2.1039,2.1309,2.1309,2.1495,2.1797,2.1797,2.1797,2.1897,2.3371,2.357,2.3023,2.4413,2.4595,2.3918,2.3093,2.2828,2.2791,2.2062,2.1797,2.1814,2.1814,2.1814,2.1814,2.1797,2.202,2.2282,2.2141,2.2937,2.3805,2.3805,2.4402,2.4643,2.3108,2.4077,2.52,2.447,2.6545,2.8826,2.9631,3.1305,3.2852,3.3642,3.386,3.4215,3.5143,3.5369,3.5454,3.5576,3.5693,3.5439,3.4521,3.4517,3.4435,3.4031,3.3805,3.3625,3.3419,3.316,3.2719,3.2056,3.2002,3.1672,3.0946,3.1494,3.144,3.0707,3.2148,3.2491,3.1706,3.2509,3.2064,3.0575,3.2183,3.2248,3.1123,3.1283,3.1338,3.1269,3.1002,3.0871,3.0831,3.1246,3.0952,3.0309,3.0309,3.013,2.9918,2.5369,2.5097,2.5097,2.5702,2.5716,2.5846,2.6371,2.6226,2.6061,2.6007,2.534,2.5118,2.5713,2.4838,2.4476,2.5057,2.4914,2.4939,2.5291,2.5754,2.5944,2.5905,2.5392,2.4613,2.3556,2.3123,2.271,2.2356,2.1875,2.1705,2.1721,2.1661,2.1691,2.1797,2.1797,2.1797,2.1847,2.2808,2.3106,2.294,2.3291,2.3373,2.3139,2.2318,2.2068,2.2162,2.246,2.2891,2.3338,2.3338,2.3338,2.3187,2.2304,2.2924,2.3891,2.3374,2.3949,2.4767,2.4672,2.4833,2.4885,2.4436,2.5289,2.61,2.5471,2.7479,2.9624,3.024,3.1575,3.2904,3.3901,3.4434,3.4879,3.5235,3.5343,3.5454,3.5595,3.5248,3.482,3.4446,3.4517,3.4495,3.4179,3.3972,3.3743,3.3486,3.3202,3.2996,3.2762,3.2349,3.2187,3.2445,3.1518,3.1154,3.1458,3.2416,3.2491,3.1706,3.2509,3.2347,3.1369,3.2398,3.2109,3.0699,3.1227,3.1244,3.0905,3.1236,3.1582,3.1968,3.2378,3.21,3.1466,3.1212,3.0615,2.9918,2.5494,2.5188,2.5057,2.548,2.5439,2.552,2.595,2.6173,2.6342,2.6413,2.5873,2.5599,2.581,2.4832,2.4341,2.4875,2.4782,2.5013,2.561,2.5791,2.597,2.6096,2.5702,2.5159,2.4448,2.4114,2.3612,2.2953,2.2578,2.2212,2.1869,2.1811,2.1797,2.1797,2.1797,2.1797,2.1847,2.2576,2.2725,2.2477,2.2698,2.2679,2.241,2.1859,2.1708,2.188,2.2611,2.2975,2.3222,2.3802,2.4,2.3884,2.3079,2.3701,2.4616,2.423,2.4844,2.5669,2.56,2.5737,2.5971,2.6264,2.679,2.7236,2.7184,2.9114,3.1034,3.1459,3.271,3.3913,3.4563,3.5247,3.5715,3.5725,3.5771,3.5766,3.5547,3.5277,3.4936,3.4532,3.4626,3.4649,3.448,3.425,3.3979,3.3671,3.3455,3.3309,3.3262,3.3194,3.325,3.3521,3.2276,3.1768,3.2232,3.2362,3.217,3.1706,3.2509,3.2555,3.1949,3.2588,3.2179,3.1004,3.1473,3.1376,3.1002,3.1663,3.2109,3.2445,3.316,3.2998,3.2361,3.2174,3.1353,3.0295,2.5647,2.5605,2.555,2.5298,2.5693,2.5813,2.5268,2.619,2.6818,2.6422,2.5987,2.571,2.5678,2.4744,2.4227,2.4462,2.5147,2.5664,2.5979,2.593,2.5897,2.5897,2.5954,2.573,2.5175,2.5195,2.4497,2.3089,2.3034,2.2635,2.191,2.1814,2.1797,2.1797,2.1797,2.1797,2.1847,2.2659,2.2526,2.1864,2.2599,2.2465,2.1768,2.1634,2.1664,2.1897,2.2632,2.2514,2.2195,2.3619,2.4149,2.4183,2.4066,2.4435,2.4919,2.4821,2.5639,2.6498,2.6486,2.6922,2.7575,2.8316,2.8473,2.8602,2.9155,3.1021,3.272,3.2873,3.4245,3.5417,3.546,3.6224,3.6779,3.6602,3.6546,3.6287,3.5651,3.5619,3.5405,3.4695,3.4771,3.4889,3.4908,3.4682,3.4423,3.4194,3.3981,3.3771,3.3679,3.4243,3.4474,3.4225,3.3359,3.292,3.3023,3.2206,3.176,3.1706,3.2509,3.2705,3.2318,3.2705,3.2437,3.164,3.1841,3.1674,3.1336,3.223,3.256,3.2638,3.3782,3.3768,3.3125,3.3098,3.2161,3.0972,2.6312,2.6336,2.6654,2.7389,2.7085,2.6793,2.693,2.714,2.7161,2.6832,2.6188,2.588,2.6212,2.5418,2.5184,2.603,2.6432,2.6657,2.6683,2.6043,2.5749,2.5881,2.5917,2.5888,2.5796,2.541,2.5029,2.4713,2.3581,2.2915,2.2734,2.2076,2.1797,2.1797,2.1797,2.1797,2.188,2.3189,2.3007,2.1897,2.3095,2.2832,2.1708,2.1509,2.1556,2.1889,2.3177,2.3604,2.3653,2.4564,2.5259,2.5559,2.4625,2.538,2.653,2.5914,2.6519,2.7385,2.7147,2.7624,2.8334,2.9075,2.9911,3.0331,2.9508,3.1304,3.2994,3.2406,3.3952,3.5515,3.5878,3.7055,3.7971,3.7952,3.7306,3.6783,3.667,3.5535,3.4678,3.462,3.4728,3.4849,3.4889,3.5214,3.5647,3.6224,3.5428,3.4929,3.4911,3.4193,3.3993,3.4498,3.3468,3.3187,3.383,3.3027,3.2313,3.1706,3.2509,3.2705,3.2318,3.2705,3.23,3.1278,3.175,3.1694,3.1309,3.253,3.333,3.3797,3.4644,3.4701,3.4261,3.3661,3.2578,3.1342,2.6563,2.6797,2.7225,2.7594,2.7413,2.7186,2.7054,2.7229,2.7363,2.7203,2.662,2.6346,2.6654,2.6146,2.6088,2.6913,2.6971,2.6907,2.6808,2.6367,2.601,2.5766,2.586,2.5934,2.5954,2.5771,2.5476,2.5162,2.4032,2.3302,2.2936,2.2524,2.2129,2.1814,2.2162,2.2129,2.1864,2.299,2.2793,2.1837,2.2881,2.2636,2.1634,2.1448,2.1738,2.237,2.3457,2.438,2.506,2.5094,2.5607,2.6071,2.5447,2.6163,2.7095,2.6622,2.7057,2.7712,2.7886,2.8157,2.8661,2.9782,3.0508,3.0972,3.096,3.2182,3.3249,3.3115,3.4749,3.626,3.6462,3.7901,3.8897,3.8432,3.7934,3.7479,3.7149,3.6318,3.5641,3.5392,3.5713,3.596,3.6041,3.5854,3.61,3.7009,3.6138,3.5509,3.5392,3.4684,3.4393,3.4629,3.3512,3.3323,3.4225,3.2965,3.2295,3.2259,3.2688,3.277,3.2606,3.2705,3.23,3.1565,3.1913,3.1674,3.1213,3.2722,3.3556,3.3973,3.5057,3.5262,3.4908,3.4518,3.3238,3.1589,2.6654,2.721,2.766,2.7578,2.7694,2.7593,2.7024,2.738,2.7658,2.753,2.7119,2.6902,2.7031,2.6855,2.6913,2.7512,2.7316,2.7062,2.6863,2.6749,2.6377,2.5648,2.5787,2.5881,2.5897,2.6079,2.587,2.5292,2.4547,2.3884,2.3272,2.3156,2.2692,2.1996,2.2626,2.2477,2.1847,2.2708,2.2597,2.1941,2.2635,2.2471,2.1722,2.1482,2.1984,2.2848,2.3572,2.484,2.612,2.5508,2.5706,2.622,2.6168,2.6572,2.7068,2.6956,2.7244,2.7739,2.8369,2.857,2.8937,3.0351,3.0782,3.1202,3.2444,3.297,3.3382,3.3889,3.5586,3.6967,3.7055,3.8584,3.9558,3.8765,3.8501,3.8169,3.7553,3.7324,3.7003,3.6423,3.6738,3.7071,3.7303,3.6556,3.6478,3.7473,3.6632,3.5991,3.581,3.5416,3.5081,3.4804,3.3857,3.3773,3.4609,3.2939,3.2438,3.308,3.2987,3.2916,3.2884,3.2847,3.251,3.2003,3.2177,3.1812,3.1213,3.2927,3.3622,3.3833,3.5248,3.5633,3.5328,3.4985,3.3631,3.1817,2.7122,2.783,2.8728,2.9314,2.9143,2.886,2.8779,2.8809,2.8561,2.7755,2.7574,2.741,2.7211,2.7338,2.7679,2.8206,2.8217,2.804,2.7608,2.7025,2.6377,2.5648,2.568,2.5791,2.5897,2.599,2.603,2.6071,2.5325,2.4911,2.4795,2.4149,2.3454,2.2758,2.2857,2.2477,2.188,2.3143,2.3276,2.2699,2.326,2.3046,2.2297,2.1583,2.1906,2.2801,2.3555,2.484,2.6187,2.6087,2.6137,2.6168,2.6063,2.6297,2.6607,2.6657,2.6891,2.7353,2.8211,2.8868,2.9575,3.0472,3.1179,3.1771,3.2266,3.2619,3.2937,3.3124,3.5064,3.6857,3.727,3.8561,3.9656,3.9984,3.9113,3.8433,3.8574,3.7829,3.7232,3.7076,3.6524,3.6491,3.7313,3.7275,3.7559,3.8431,3.7692,3.7156,3.7068,3.604,3.5361,3.5206,3.5211,3.5281,3.5421,3.4336,3.383,3.3937,3.3223,3.2916,3.2902,3.3399,3.3037,3.2038,3.2751,3.2424,3.156,3.3282,3.4037,3.4152,3.5335,3.5941,3.5917,3.4047,3.2817,3.1882,2.7929,2.8431,2.8983,2.9153,2.9152,2.8958,2.8449,2.8414,2.8408,2.8171,2.7964,2.7774,2.7648,2.7515,2.7987,2.927,2.9026,2.867,2.8336,2.7656,2.6944,2.6308,2.5891,2.5775,2.5954,2.6156,2.6332,2.6486,2.5562,2.511,2.5094,2.4348,2.3603,2.2891,2.2891,2.2477,2.188,2.3242,2.3375,2.2735,2.3357,2.3126,2.2378,2.1584,2.2118,2.3473,2.4709,2.5603,2.622,2.622,2.622,2.6168,2.6026,2.6526,2.7126,2.7178,2.7743,2.8527,2.9438,2.992,3.0351,3.111,3.1558,3.1893,3.2214,3.2553,3.2875,3.3104,3.4644,3.6193,3.6883,3.8,3.91,3.9941,3.9612,3.9326,3.9604,3.9185,3.8817,3.8625,3.7532,3.71,3.7932,3.8026,3.8218,3.866,3.8338,3.7879,3.7319,3.6162,3.528,3.4809,3.4596,3.4479,3.4479,3.433,3.4211,3.4115,3.4169,3.3723,3.2902,3.2926,3.2686,3.2179,3.2348,3.2372,3.2393,3.3589,3.4335,3.4766,3.5256,3.5155,3.4516,3.278,3.1918,3.154]},{"header":{"parameterUnit":"m.s-1","parameterCategory":1,"la1":30.6,"la2":28.766,"lo1":-90.7593,"lo2":-88.6598,"dy":0.0162,"dx":0.0183,"nx":116,"ny":114,"refTime":"2023-08-29T06:00:00:Z","depth":0,"parameterNumber":3,"parameterNumberName":"V-component_of_WINDS"},"data":[0.0,0.0,0.0,0.0,0.0,0.0,0.0,0.0,0.0,0.0,0.0,0.0,0.0,0.0,0.0,0.0,0.0,0.0,0.0,0.0,0.0,0.0,0.0,0.0,0.0,0.0,0.0,0.0,0.0,0.0,0.0,0.0,0.0,0.0,0.0,0.0,0.0,0.0,0.0,0.0,0.0,0.0,0.0,0.0,0.0,0.0,0.0,0.0,0.0,0.0,0.0,0.0,0.0,0.0,0.0,0.0,0.0,0.0,0.0,0.0,0.0,0.0,0.0,0.0,0.0,0.0,0.0,0.0,0.0,0.0,0.0,0.0,0.0,0.0,0.0,0.0,0.0,0.0,0.0,0.0,0.0,0.0,0.0,0.0,0.0,0.0,0.0,0.0,0.0,0.0,0.0,0.0,0.0,0.0,0.0,0.0,0.0,0.0,0.0,0.0,0.0,0.0,0.0,0.0,0.0,0.0,0.0,0.0,0.0,0.0,0.0,0.0,0.0,0.0,0.0,0.0,0.0,0.0,0.0,0.0,0.0,0.0,0.0,0.0,0.0,0.0,0.0,0.0,0.0,0.0,0.0,0.0,0.0,0.0,0.0,0.0,0.0,0.0,0.0,0.0,0.0,0.0,0.0,0.0,0.0,0.0,0.0,0.0,0.0,0.0,0.0,0.0,0.0,0.0,0.0,0.0,0.0,0.0,0.0,0.0,0.0,0.0,0.0,0.0,0.0,0.0,0.0,0.0,0.0,0.0,0.0,0.0,0.0,0.0,0.0,0.0,0.0,0.0,0.0,0.0,0.0,0.0,0.0,0.0,0.0,0.0,0.0,0.0,0.0,0.0,0.0,0.0,0.0,0.0,0.0,0.0,0.0,0.0,0.0,0.0,0.0,0.0,0.0,0.0,0.0,0.0,0.0,0.0,0.0,0.0,0.0,0.0,0.0,0.0,0.0,0.0,0.0,0.0,0.0,0.0,0.0,0.0,0.0,0.0,0.0,0.0,0.0,0.0,0.0,0.0,0.0,0.0,0.0,0.0,0.0,0.0,0.0,0.0,0.0,0.0,0.0,0.0,0.0,0.0,0.0,0.0,0.0,0.0,0.0,0.0,0.0,0.0,0.0,0.0,0.0,0.0,0.0,0.0,0.0,0.0,0.0,0.0,0.0,0.0,0.0,0.0,0.0,0.0,0.0,0.0,0.0,0.0,0.0,0.0,0.0,0.0,0.0,0.0,0.0,0.0,0.0,0.0,0.0,0.0,0.0,0.0,0.0,0.0,0.0,0.0,0.0,0.0,0.0,0.0,0.0,0.0,0.0,0.0,0.0,0.0,0.0,0.0,0.0,0.0,0.0,0.0,0.0,0.0,0.0,0.0,0.0,0.0,0.0,0.0,0.0,0.0,0.0,0.0,0.0,0.0,0.0,0.0,0.0,0.0,0.0,0.0,0.0,0.0,0.0,0.0,0.0,0.0,0.0,0.0,0.0,0.0,0.0,0.0,0.0,0.0,0.0,0.0,0.0,0.0,0.0,0.0,0.0,0.0,0.0,0.0,0.0,0.0,0.0,0.0,0.0,0.0,0.0,0.0,0.0,0.0,0.0,0.0,0.0,0.0,0.0,0.0,0.0,0.0,0.0,0.0,0.0,0.0,0.0,0.0,0.0,0.0,0.0,0.0,0.0,0.0,0.0,0.0,0.0,0.0,0.0,0.0,0.0,0.0,0.0,0.0,0.0,0.0,0.0,0.0,0.0,0.0,0.0,0.0,0.0,0.0,0.0,0.0,0.0,0.0,0.0,0.0,0.0,0.0,0.0,0.0,0.0,0.0,0.0,0.0,0.0,0.0,0.0,0.0,0.0,0.0,0.0,0.0,0.0,0.0,0.0,0.0,0.0,0.0,0.0,0.0,0.0,0.0,0.0,0.0,0.0,0.0,0.0,0.0,0.0,0.0,0.0,0.0,0.0,0.0,0.0,0.0,0.0,0.0,0.0,0.0,0.0,0.0,0.0,0.0,0.0,0.0,0.0,0.0,0.0,0.0,0.0,0.0,0.0,0.0,0.0,0.0,0.0,0.0,0.0,0.0,0.0,0.0,0.0,0.0,0.0,0.0,0.0,0.0,0.0,0.0,0.0,0.0,0.0,0.0,0.0,0.0,0.0,0.0,0.0,0.0,0.0,0.0,0.0,0.0,0.0,0.0,0.0,0.0,0.0,0.0,0.0,0.0,0.0,0.0,0.0,0.0,0.0,0.0,0.0,0.0,0.0,0.0,0.0,0.0,0.0,0.0,0.0,0.0,0.0,0.0,0.0,0.0,0.0,0.0,0.0,0.0,0.0,0.0,0.0,0.0,0.0,0.0,0.0,0.0,0.0,0.0,0.0,0.0,0.0,0.0,0.0,0.0,0.0,0.0,0.0,0.0,0.0,0.0,0.0,0.0,0.0,0.0,0.0,0.0,0.0,0.0,0.0,0.0,0.0,0.0,0.0,0.0,0.0,0.0,0.0,0.0,0.0,0.0,0.0,0.0,0.0,0.0,0.0,0.0,0.0,0.0,0.0,0.0,0.0,0.0,0.0,0.0,0.0,0.0,0.0,0.0,0.0,0.0,0.0,0.0,0.0,0.0,0.0,0.0,0.0,0.0,0.0,0.0,0.0,0.0,0.0,0.0,0.0,0.0,0.0,0.0,0.0,0.0,0.0,0.0,0.0,0.0,0.0,0.0,0.0,0.0,0.0,0.0,0.0,0.0,0.0,0.0,0.0,0.0,0.0,0.0,0.0,0.0,0.0,0.0,0.0,0.0,0.0,0.0,0.0,0.0,0.0,0.0,0.0,0.0,0.0,0.0,0.0,0.0,0.0,0.0,0.0,0.0,0.0,0.0,0.0,0.0,0.0,0.0,0.0,0.0,0.0,0.0,0.0,0.0,0.0,0.0,0.0,0.0,0.0,0.0,0.0,0.0,0.0,0.0,0.0,0.0,0.0,0.0,0.0,0.0,0.0,0.0,0.0,0.0,0.0,0.0,0.0,0.0,0.0,0.0,0.0,0.0,0.0,0.0,0.0,0.0,0.0,0.0,0.0,0.0,0.0,0.0,0.0,0.0,0.0,0.0,0.0,0.0,0.0,0.0,0.0,0.0,0.0,0.0,0.0,0.0,0.0,0.0,0.0,0.0,0.0,0.0,0.0,0.0,0.0,0.0,0.0,0.0,0.0,0.0,0.0,0.0,0.0,0.0,0.0,0.0,0.0,0.0,0.0,0.0,0.0,0.0,0.0,0.0,0.0,0.0,0.0,0.0,0.0,0.0,0.0,0.0,0.0,0.0,0.0,0.0,0.0,0.0,0.0,0.0,0.0,0.0,0.0,0.0,0.0,0.0,0.0,0.0,0.0,0.0,0.0,0.0,0.0,0.0,0.0,0.0,0.0,0.0,0.0,0.0,0.0,0.0,0.0,0.0,0.0,0.0,0.0,0.0,0.0,0.0,0.0,0.0,0.0,0.0,0.0,0.0,0.0,0.0,0.0,0.0,0.0,0.0,0.0,0.0,0.0,0.0,0.0,0.0,0.0,0.0,0.0,0.0,0.0,0.0,0.0,0.0,0.0,0.0,0.0,0.0,0.0,0.0,0.0,0.0,0.0,0.0,0.0,0.0,0.0,0.0,0.0,0.0,0.0,0.0,0.0,0.0,0.0,0.0,0.0,0.0,0.0,0.0,0.0,0.0,0.0,0.0,0.0,0.0,0.0,0.0,0.0,0.0,0.0,0.0,0.0,0.0,0.0,0.0,0.0,0.0,0.0,0.0,0.0,0.0,0.0,0.0,0.0,0.0,0.0,0.0,0.0,0.0,0.0,0.0,0.0,0.0,0.0,0.0,0.0,0.0,0.0,0.0,0.0,0.0,0.0,0.0,0.0,0.0,0.0,0.0,0.0,0.0,0.0,0.0,0.0,0.0,0.0,0.0,0.0,0.0,0.0,0.0,0.0,0.0,0.0,0.0,0.0,0.0,0.0,0.0,0.0,0.0,0.0,0.0,0.0,0.0,0.0,0.0,0.0,0.0,0.0,0.0,0.0,0.0,0.0,0.0,0.0,0.0,0.0,0.0,0.0,0.0,0.0,0.0,0.0,0.0,0.0,0.0,0.0,0.0,0.0,0.0,0.0,0.0,0.0,0.0,0.0,0.0,0.0,0.0,0.0,0.0,0.0,0.0,0.0,0.0,0.0,0.0,0.0,0.0,0.0,0.0,0.0,0.0,0.0,0.0,0.0,0.0,0.0,0.0,0.0,0.0,0.0,0.0,0.0,0.0,0.0,0.0,0.0,0.0,0.0,0.0,0.0,0.0,0.0,0.0,0.0,0.0,0.0,0.0,0.0,0.0,0.0,0.0,0.0,0.0,0.0,0.0,0.0,0.0,0.0,0.0,0.0,0.0,0.0,0.0,0.0,0.0,0.0,0.0,0.0,0.0,0.0,0.0,0.0,0.0,0.0,0.0,0.0,0.0,0.0,0.0,0.0,0.0,0.0,0.0,0.0,0.0,0.0,0.0,0.0,0.0,0.0,0.0,0.0,0.0,0.0,0.0,0.0,0.0,0.0,0.0,0.0,0.0,0.0,0.0,0.0,0.0,0.0,0.0,0.0,0.0,0.0,0.0,0.0,0.0,0.0,0.0,0.0,0.0,0.0,0.0,0.0,0.0,0.0,0.0,0.0,0.0,0.0,0.0,0.0,0.0,0.0,0.0,0.0,0.0,0.0,0.0,0.0,0.0,0.0,0.0,0.0,0.0,0.0,0.0,0.0,0.0,0.0,0.0,0.0,0.0,0.0,0.0,0.0,0.0,0.0,0.0,0.0,0.0,0.0,0.0,0.0,0.0,0.0,0.0,0.0,0.0,0.0,0.0,0.0,0.0,0.0,0.0,0.0,0.0,0.0,0.0,0.0,0.0,0.0,0.0,0.0,0.0,0.0,0.0,0.0,0.0,0.0,0.0,0.0,0.0,0.0,0.0,0.0,0.0,0.0,0.0,0.0,0.0,0.0,0.0,0.0,0.0,0.0,0.0,0.0,0.0,0.0,0.0,0.0,0.0,0.0,0.0,0.0,0.0,0.0,0.0,0.0,0.0,0.0,0.0,0.0,0.0,0.0,0.0,0.0,0.0,0.0,0.0,0.0,0.0,0.0,0.0,0.0,0.0,0.0,0.0,0.0,0.0,0.0,0.0,0.0,0.0,0.0,0.0,0.0,0.0,0.0,0.0,0.0,0.0,0.0,0.0,0.0,0.0,0.0,0.0,0.0,0.0,0.0,0.0,0.0,0.0,0.0,0.0,0.0,0.0,0.0,0.0,0.0,0.0,0.0,0.0,0.0,0.0,0.0,0.0,0.0,0.0,0.0,0.0,0.0,0.0,0.0,0.0,0.0,0.0,0.0,0.0,0.0,0.0,0.0,0.0,0.0,0.0,0.0,0.0,0.0,0.0,0.0,0.0,0.0,0.0,0.0,0.0,0.0,0.0,0.0,0.0,0.0,0.0,0.0,0.0,0.0,0.0,0.0,0.0,0.0,0.0,0.0,0.0,0.0,0.0,0.0,0.0,0.0,0.0,0.0,0.0,0.0,0.0,0.0,0.0,0.0,0.0,0.0,0.0,0.0,0.0,0.0,0.0,0.0,0.0,0.0,0.0,0.0,0.0,0.0,0.0,0.0,0.0,0.0,0.0,0.0,0.0,0.0,0.0,0.0,0.0,0.0,0.0,0.0,0.0,0.0,0.0,0.0,0.0,0.0,0.0,0.0,0.0,0.0,0.0,0.0,0.0,0.0,0.0,0.0,0.0,0.0,0.0,0.0,0.0,0.0,0.0,0.0,0.0,0.0,0.0,0.0,0.0,0.0,0.0,0.0,0.0,0.0,0.0,0.0,0.0,0.0,0.0,0.0,0.0,0.0,0.0,0.0,0.0,0.0,0.0,0.0,0.0,0.0,0.0,0.0,0.0,0.0,0.0,0.0,0.0,0.0,0.0,0.0,0.0,0.0,0.0,0.0,0.0,0.0,0.0,0.0,0.0,0.0,0.0,0.0,0.0,0.0,0.0,0.0,0.0,0.0,0.0,0.0,0.0,-0.8026,0.0,0.0,0.0,0.0,0.0,0.0,0.0,0.0,0.0,0.0,0.0,0.0,0.0,0.0,0.0,0.0,0.0,0.0,0.0,0.0,0.0,0.0,0.0,0.0,0.0,0.0,0.0,0.0,0.0,0.0,0.0,0.0,0.0,0.0,0.0,0.0,0.0,0.0,-0.1366,-0.1442,-0.225,-0.3808,-0.557,-0.6121,-0.5711,0.0,0.0,0.0,0.0,0.0,0.0,0.0,0.0,0.0,0.0,0.0,0.0,0.0,0.0,0.0,0.0,0.0,0.0,0.0,0.0,0.0,0.0,0.0,0.0,0.0,0.0,0.0,0.0,0.0,0.0,0.0,0.0,0.0,0.0,0.0,0.0,0.0,0.0,0.0,0.0,0.0,0.0,0.0,0.0,0.0,0.0,0.0,0.0,0.0,0.0,0.0,0.0,0.0,0.0,0.0,0.0,0.0,0.0,0.0,0.0,0.0,0.0,0.0,0.0,0.0,0.0,0.0,0.0,0.0,0.0,0.0,-0.8428,0.0,0.0,0.0,0.0,0.0,0.0,0.0,0.0,0.0,0.0,0.0,0.0,0.0,0.0,0.0,0.0,0.0,0.0,0.0,0.0,0.0,0.0,0.0,-0.6938,-0.7695,-0.769,-0.3674,-0.0795,0.0,0.0,0.0,0.0,0.0,0.0,-0.1346,-0.1435,-0.1357,-0.138,-0.1361,-0.2763,-0.5482,-0.6831,-0.6966,-0.6295,-0.6157,0.0,0.0,0.0,0.0,0.0,0.0,0.0,0.0,0.0,0.0,0.0,0.0,0.0,0.0,0.0,0.0,0.0,0.0,0.0,0.0,0.0,0.0,0.0,0.0,0.0,0.0,0.0,0.0,0.0,0.0,0.0,0.0,0.0,0.0,0.0,0.0,0.0,0.0,0.0,0.0,0.0,0.0,0.0,0.0,0.0,0.0,0.0,0.0,0.0,0.0,0.0,0.0,0.0,0.0,0.0,0.0,0.0,0.0,0.0,0.0,0.0,0.0,0.0,-0.9987,-1.0201,-1.0347,-1.0347,-1.0262,-1.0099,-0.9807,-0.9575,-0.9376,-0.9015,0.0,0.0,0.0,0.0,0.0,0.0,0.0,0.0,0.0,0.0,0.0,0.0,0.0,0.0,0.0,0.0,0.0,0.0,0.0,0.0,0.0,-0.6264,-0.6565,-0.662,-0.5955,-0.3929,-0.0196,0.0,0.0,0.0,0.0,0.0,-0.1433,-0.1434,-0.1436,-0.1438,-0.1366,-0.1698,-0.2287,-0.6683,-0.855,-0.8456,-0.7885,-0.7811,-0.7811,0.0,0.0,0.0,0.0,0.0,0.0,0.0,0.0,0.0,0.0,0.0,0.0,0.0,0.0,0.0,0.0,0.0,0.0,0.0,0.0,0.0,0.0,0.0,0.0,0.0,0.0,0.0,0.0,0.0,0.0,0.0,0.0,0.0,0.0,0.0,0.0,0.0,0.0,0.0,0.0,0.0,-0.7319,-0.7541,0.0,0.0,0.0,0.0,0.0,0.0,0.0,0.0,0.0,0.0,0.0,0.0,0.0,-0.918,-0.9915,-1.0375,-1.0562,-1.059,-1.0899,-1.1057,-1.1082,-1.1082,-1.107,-1.1045,-1.0997,0.0,-0.9563,-0.9009,0.0,0.0,0.0,0.0,0.0,0.0,0.0,0.0,0.0,0.0,0.0,0.0,0.0,0.0,0.0,0.0,0.0,0.0,0.0,0.0,0.0,-0.614,-0.6354,-0.6434,-0.4245,-0.2271,-0.0883,-0.03,0.0,0.0,0.0,-0.1369,-0.1429,-0.3491,-0.3534,-0.139,-0.1547,-0.3011,-0.5815,-0.856,-0.9859,-0.9842,-0.9265,-0.8663,-0.8026,-0.8656,0.0,0.0,0.0,0.0,0.0,0.0,0.0,0.0,0.0,0.0,0.0,0.0,0.0,0.0,0.0,0.0,0.0,0.0,0.0,0.0,0.0,0.0,0.0,0.0,0.0,0.0,0.0,0.0,0.0,0.0,0.0,0.0,0.0,0.0,0.0,0.0,0.0,0.0,0.0,-0.698,-0.7545,-0.7514,-0.7403,-0.7343,0.0,0.0,0.0,0.0,0.0,0.0,0.0,0.0,0.0,-0.906,-0.9419,-0.9991,-1.0687,-1.1056,-1.1301,-1.1301,-1.2147,-1.2573,-1.2569,-1.3156,-1.2989,-1.2409,-1.2294,-1.1565,-1.0355,-0.9891,-0.9466,-0.9156,0.0,0.0,0.0,0.0,-0.8509,-0.8938,0.0,0.0,0.0,0.0,0.0,0.0,0.0,0.0,0.0,0.0,0.0,0.0,-0.5703,-0.6016,-0.6352,-0.6567,-0.3948,-0.2661,-0.3692,-0.162,-0.1086,-0.2811,-0.2821,-0.2901,-0.2853,-0.5673,-0.5281,-0.1459,-0.1728,-0.4418,-0.9333,-1.0233,-1.0668,-1.063,-1.0186,-0.9385,-0.8525,-0.9595,-0.9079,-0.7473,0.0,0.0,0.0,0.0,0.0,0.0,0.0,0.0,0.0,0.0,0.0,0.0,0.0,0.0,0.0,0.0,0.0,0.0,0.0,0.0,0.0,0.0,0.0,0.0,0.0,0.0,0.0,0.0,0.0,0.0,0.0,0.0,0.0,0.0,0.0,0.0,0.0,-0.7373,-0.7861,-0.7575,-0.7609,-0.7739,0.0,0.0,0.0,0.0,0.0,0.0,-0.8245,-0.855,-0.8961,-0.949,-1.0226,-1.0691,-1.1222,-1.1675,-1.1841,-1.1841,-1.2741,-1.343,-1.378,-1.4447,-1.4229,-1.3358,-1.3192,-1.2302,-1.0944,-1.074,-1.0314,-0.9846,-0.9563,-0.9384,-0.9321,-0.9075,-0.9172,-0.9458,0.0,0.0,0.0,0.0,0.0,0.0,0.0,0.0,0.0,0.0,0.0,-0.6225,-0.5706,-0.5769,-0.6155,-0.7053,-0.7979,-0.8909,-1.0195,-0.4673,-0.2977,-0.6691,-0.6847,-0.685,-0.6811,-0.696,-0.5272,-0.1546,-0.1756,-0.4788,-1.0584,-1.0679,-1.0655,-1.0741,-1.0544,-1.0137,-0.9723,-0.9385,-0.9018,-0.8661,-0.8247,0.0,0.0,0.0,0.0,0.0,0.0,0.0,0.0,0.0,0.0,0.0,0.0,0.0,0.0,0.0,0.0,0.0,0.0,0.0,0.0,0.0,0.0,0.0,0.0,0.0,0.0,0.0,0.0,0.0,0.0,0.0,0.0,0.0,0.0,0.0,0.0,0.0,0.0,-0.8076,-0.9253,0.0,0.0,0.0,0.0,-0.8754,-0.8636,-0.873,-0.8869,-0.9174,-0.9586,-1.0247,-1.0789,-1.1336,-1.176,-1.1849,-1.2016,-1.2016,-1.1975,-1.2487,-1.3665,-1.3775,-1.3665,-1.3367,-1.3353,-1.2436,-1.1064,-1.1092,-1.0894,-1.053,-1.0641,-1.0454,-0.9972,-0.979,-0.9647,-0.9592,0.0,0.0,0.0,0.0,0.0,0.0,0.0,0.0,-0.5168,-0.5642,-0.5886,-0.5761,-0.5342,-0.6065,-0.6897,-0.7624,-0.574,-0.4613,-0.4798,-0.2795,-0.2109,-0.3417,-0.5819,-0.7132,-0.7131,-0.7486,-0.5718,-0.1552,-0.1696,-0.2935,-0.5023,-0.8863,-1.0667,-1.072,-1.0659,-1.0679,-1.0663,-1.0248,-0.956,-0.8885,-0.8745,-0.8341,0.0,0.0,0.0,0.0,0.0,0.0,0.0,0.0,0.0,0.0,0.0,0.0,0.0,0.0,0.0,0.0,0.0,0.0,0.0,0.0,0.0,0.0,0.0,0.0,0.0,0.0,0.0,0.0,0.0,0.0,0.0,0.0,0.0,0.0,0.0,0.0,0.0,-0.8877,-0.9541,0.0,-0.9827,-0.8452,-0.8173,-0.9652,-0.8729,-0.872,-0.9986,-1.0057,-1.027,-1.0756,-1.1302,-1.1675,-1.2126,-1.2322,-1.2434,-1.2207,-1.3,-1.3441,-1.378,-1.5162,-1.5319,-1.4406,-1.4256,-1.3461,-1.2215,-1.1846,-1.1315,-1.0847,-1.0858,-1.0773,-1.0484,-1.0087,-0.9941,-0.9996,0.0,0.0,0.0,0.0,0.0,0.0,0.0,0.0,-0.5186,-0.5617,-0.5689,-0.5642,-0.5491,-0.6471,-0.7349,-0.7868,-0.4265,-0.1893,-0.1574,-0.1611,-0.154,-0.1367,-0.5056,-0.7071,-0.7095,-0.6272,-0.4489,-0.1655,-0.1805,-0.1844,-0.1875,-0.7883,-1.0716,-1.0704,-1.0806,-1.0874,-1.0937,-1.0843,-1.0297,-0.9578,-0.9449,-0.9013,-0.8317,0.0,0.0,0.0,0.0,0.0,0.0,0.0,0.0,0.0,0.0,0.0,0.0,0.0,0.0,0.0,0.0,0.0,0.0,0.0,0.0,0.0,0.0,0.0,0.0,0.0,0.0,0.0,0.0,0.0,0.0,0.0,0.0,0.0,0.0,-0.8437,-0.9244,-0.9309,-1.0085,-1.0568,-1.049,-0.9355,-0.9109,-1.0685,-0.9806,-0.9654,-1.0807,-1.0948,-1.1091,-1.1221,-1.1721,-1.2045,-1.2309,-1.2644,-1.2596,-1.2304,-1.3104,-1.351,-1.3775,-1.566,-1.5989,-1.5057,-1.4839,-1.407,-1.297,-1.2617,-1.22,-1.18,-1.1629,-1.1344,-1.0986,-1.058,-1.0352,-1.0298,0.0,0.0,0.0,0.0,0.0,0.0,0.0,-0.558,-0.5181,-0.5606,-0.5651,-0.5882,-0.638,-0.6867,-0.7369,-0.7786,-0.411,-0.1728,-0.1701,-0.1685,-0.1583,-0.1426,-0.5073,-0.7018,-0.6954,-0.3388,-0.1693,-0.1759,-0.1766,-0.1794,-0.1949,-0.7744,-1.059,-1.0684,-1.0777,-1.0795,-1.086,-1.1074,-1.1177,-1.0975,-1.0384,-0.982,-0.9307,0.0,0.0,0.0,0.0,0.0,0.0,0.0,0.0,0.0,0.0,0.0,0.0,0.0,0.0,0.0,0.0,0.0,0.0,0.0,0.0,0.0,0.0,0.0,0.0,0.0,0.0,0.0,0.0,0.0,0.0,0.0,0.0,0.0,-0.7628,-0.8871,-0.964,-0.9391,-1.098,-1.1885,-1.1338,-1.1607,-1.1737,-1.1868,-1.1567,-1.1568,-1.1649,-1.1691,-1.178,-1.178,-1.2173,-1.2301,-1.2309,-1.2519,-1.2471,-1.2304,-1.2117,-1.2538,-1.3651,-1.495,-1.5401,-1.5249,-1.5201,-1.446,-1.3367,-1.3456,-1.3598,-1.3727,-1.3096,-1.2384,-1.1787,-1.1576,-1.0964,-1.0272,0.0,0.0,0.0,0.0,0.0,0.0,0.0,-0.5851,-0.5431,-0.5256,-0.5505,-0.5908,-0.6326,-0.6876,-0.7248,-0.7428,-0.3834,-0.2475,-0.4847,-0.2776,-0.2478,-0.4809,-0.5667,-0.5127,-0.3192,-0.22,-0.174,-0.166,-0.1704,-0.1621,-0.1737,-0.5161,-0.7993,-1.0305,-0.9716,-1.0126,-1.118,-1.15,-1.1763,-1.1898,-1.0941,-1.0414,-1.0108,0.0,0.0,0.0,0.0,0.0,0.0,0.0,0.0,0.0,0.0,0.0,0.0,0.0,0.0,0.0,0.0,0.0,0.0,0.0,0.0,0.0,0.0,0.0,0.0,0.0,0.0,0.0,0.0,0.0,0.0,0.0,-0.7485,-0.7994,-0.8208,-0.9873,-1.1268,-1.1727,-1.363,-1.4513,-1.3561,-1.3026,-1.2804,-1.2858,-1.1678,-1.1475,-1.2481,-1.2281,-1.2177,-1.2177,-1.2053,-1.2311,-1.2704,-1.2532,-1.2353,-1.2304,-1.2117,-1.2109,-1.2508,-1.4533,-1.5427,-1.5342,-1.5994,-1.6057,-1.5652,-1.4659,-1.4493,-1.4797,-1.4334,-1.3919,-1.3513,-1.2679,-1.1759,-1.0879,0.0,0.0,0.0,0.0,0.0,0.0,0.0,-0.5817,-0.5292,-0.5077,-0.5597,-0.6178,-0.6651,-0.5192,-0.4208,-0.4172,-0.2456,-0.2174,-0.4109,-0.3737,-0.41,-0.5689,-0.5888,-0.5232,-0.3613,-0.2413,-0.1738,-0.1641,-0.1677,-0.1915,-0.2473,-0.3836,-0.5887,-0.8366,-0.8741,-0.9459,-1.0514,-1.1285,-1.1838,-1.228,-1.1812,-1.1443,-1.1125,-1.064,-0.9978,-0.9405,-0.9212,-0.8748,-0.8202,-0.8062,0.0,0.0,0.0,0.0,0.0,0.0,0.0,0.0,0.0,0.0,0.0,0.0,0.0,0.0,0.0,0.0,0.0,0.0,0.0,0.0,0.0,0.0,0.0,0.0,-0.7906,-0.8374,-0.8798,-1.0595,-1.2009,-1.2649,-1.4604,-1.5499,-1.4565,-1.4159,-1.3756,-1.3412,-1.2565,-1.2327,-1.2988,-1.2942,-1.3072,-1.3496,-1.3378,-1.3501,-1.3749,-1.3527,-1.313,-1.2566,-1.2856,-1.296,-1.2885,-1.5216,-1.6139,-1.6054,-1.6631,-1.6883,-1.6813,-1.5902,-1.5757,0.0,0.0,0.0,0.0,0.0,-1.3144,-1.2441,0.0,0.0,0.0,0.0,0.0,0.0,0.0,-0.5559,-0.4973,-0.4981,-0.5766,-0.6362,-0.6424,-0.2583,0.0,0.0,-0.0886,-0.1426,-0.1436,-0.4457,-0.5985,-0.5322,-0.5986,-0.6401,-0.6357,-0.3375,-0.1904,-0.211,-0.1819,-0.2265,-0.3498,-0.3493,-0.4376,-0.5856,-0.7744,-0.8841,-0.9495,-1.0928,-1.1784,-1.2211,-1.278,-1.2775,-1.2221,-1.1715,-1.1215,-1.0791,-1.0846,-1.02,-0.9336,-0.9646,0.0,0.0,0.0,0.0,0.0,0.0,0.0,0.0,0.0,0.0,0.0,0.0,0.0,0.0,0.0,0.0,0.0,0.0,0.0,0.0,0.0,0.0,0.0,0.0,-0.8418,-0.8733,-0.9303,-1.102,-1.2373,-1.2795,-1.4728,-1.5688,-1.51,-1.5298,-1.4963,-1.391,-1.4019,-1.3906,-1.3496,-1.366,0.0,0.0,0.0,-1.5137,-1.5256,-1.5334,-1.4607,-1.3346,-1.4206,-1.4437,-1.441,-1.6447,-1.7261,-1.7036,-1.7259,-1.7299,-1.7209,-1.726,-1.74,-1.752,-1.6121,-1.5575,-1.5414,-1.4923,-1.4721,-1.4543,0.0,0.0,0.0,0.0,0.0,0.0,0.0,-0.5559,-0.4973,-0.4981,-0.5473,-0.473,-0.1713,-0.0592,0.0,0.0,-0.0851,-0.1382,-0.1427,-0.4466,-0.6675,-0.737,-0.6762,-0.6281,-0.6132,-0.4388,-0.3543,-0.3837,-0.2642,-0.2188,-0.2545,-0.2933,-0.3918,-0.5656,-0.6941,-0.8136,-0.9313,-1.1221,-1.2178,-1.2531,-1.2991,-1.3001,-1.288,-1.3033,-1.2662,-1.2042,-1.1734,-1.1399,-1.1175,-1.1005,-1.0793,-1.0477,-1.0197,-0.9524,0.0,0.0,0.0,0.0,0.0,0.0,0.0,0.0,0.0,0.0,0.0,0.0,0.0,0.0,0.0,0.0,0.0,0.0,0.0,-0.8369,-0.8594,-0.8974,-0.933,-1.1487,-1.3311,-1.4103,-1.6621,-1.8046,-1.7683,-1.8152,-1.7684,-1.5829,-1.6474,-1.6063,-1.428,-1.4707,-1.5143,-1.5296,-1.5237,-1.5634,-1.6607,-1.6347,-1.6012,-1.5618,0.0,0.0,-1.5719,-1.715,-1.7682,-1.7798,-1.873,-1.879,-1.8312,-1.8611,-1.914,-1.9597,-1.7985,-1.7078,-1.6601,-1.5803,-1.6041,-1.6563,0.0,0.0,0.0,0.0,0.0,0.0,0.0,-0.5439,-0.5255,-0.5007,-0.519,-0.4014,-0.0368,0.0,-0.0642,-0.2341,-0.3137,-0.3703,-0.4033,-0.5832,-0.7246,-0.7752,-0.7082,-0.6587,-0.6275,-0.557,-0.4945,-0.4497,-0.4189,-0.3984,-0.3668,-0.3671,-0.4027,-0.4634,-0.654,-0.7909,-0.868,-1.1433,-1.2595,-1.2835,-1.3709,-1.4029,-1.3782,-1.3733,-1.3441,-1.3171,-1.3277,-1.2847,-1.2268,-1.272,-1.2379,-1.1869,-1.1734,-1.1226,-1.049,0.0,0.0,0.0,0.0,0.0,0.0,0.0,0.0,0.0,0.0,0.0,0.0,0.0,0.0,-1.0982,-1.0365,0.0,-0.9057,-0.8713,-0.8726,-0.9147,-1.0016,-1.1837,-1.3423,-1.443,-1.6868,-1.8429,-1.8345,-1.8973,-1.8592,-1.7134,-1.7987,-1.8018,-1.6751,-1.7229,-1.7748,-1.8105,-1.8645,-1.9086,-1.9548,-1.9658,-1.9205,-1.7976,-1.8648,-1.8414,-1.7417,-1.9077,-1.9391,-1.8752,-1.9315,-1.9251,-1.8876,-1.9431,-2.0247,-2.0989,-2.0063,-1.96,-1.9289,-1.8904,-1.8999,-1.9149,0.0,0.0,0.0,0.0,0.0,0.0,0.0,-0.5358,-0.5401,-0.5023,-0.4394,-0.2977,-0.0263,0.0,-0.1345,-0.4706,-0.5436,-0.5969,-0.6657,-0.7207,-0.7517,-0.7516,-0.732,-0.7063,-0.6569,-0.6389,-0.5976,-0.5309,-0.5749,-0.5887,-0.5487,-0.495,-0.4374,-0.3875,-0.6475,-0.7794,-0.8135,-1.1611,-1.3092,-1.3136,-1.4484,-1.4887,-1.4717,-1.4199,-1.4038,-1.4237,-1.469,-1.4124,-1.3245,-1.4264,-1.3924,-1.3061,-1.3149,-1.2823,-1.2209,-1.1153,-1.0362,0.0,0.0,0.0,0.0,0.0,0.0,0.0,0.0,-1.214,-1.255,-1.2661,-1.2267,-1.1582,-1.0969,-1.0323,-0.9782,-0.9275,-0.8968,-0.9336,-1.0775,-1.2023,-1.3448,-1.5108,-1.6872,-1.8224,-1.8771,-1.9318,-1.9261,-1.8447,-1.9393,-1.9726,-1.9031,-1.9579,-2.0299,-2.0809,-2.2015,-2.2498,-2.2348,-2.3113,-2.2573,-2.0641,-2.1884,-2.1474,-1.9864,-2.1415,-2.1461,-2.0257,-2.0192,-2.0142,-2.0066,-2.1059,-2.1851,-2.2498,-2.2842,-2.2872,-2.2795,-2.2031,-2.1765,-2.1738,0.0,0.0,0.0,0.0,0.0,0.0,0.0,0.0,-0.509,-0.5033,-0.2396,-0.0417,-0.0,0.0,-0.1335,-0.4668,-0.5459,-0.6059,-0.6824,-0.7039,-0.7192,-0.7179,-0.7557,-0.7521,-0.7015,-0.6474,-0.6629,-0.7407,-0.6334,-0.6374,-0.7334,-0.5684,-0.5076,-0.5224,-0.6888,-0.7602,-0.7936,-1.1661,-1.3371,-1.3556,-1.4523,-1.5093,-1.5341,-1.4813,-1.476,-1.4998,-1.5248,-1.4839,-1.4355,-1.5306,-1.4983,-1.4165,-1.4148,-1.3624,-1.2894,-1.2178,-1.1133,-1.0206,-0.9441,-0.8537,-0.8145,-0.9543,-1.0338,-1.1161,0.0,-1.3082,-1.2587,-1.2658,-1.2496,-1.196,-1.1099,-1.1028,-1.0839,-1.0373,-0.9694,-0.966,-1.1253,-1.2316,-1.4178,-1.7438,-1.7905,-1.857,-1.9969,-2.0653,-2.0686,-1.995,-2.1395,-2.1427,-1.9574,-2.0365,-2.0997,-2.1117,-2.2112,-2.3107,-2.3648,-2.4777,-2.4998,-2.4532,-2.4219,-2.3955,-2.375,-2.3562,-2.3268,-2.2811,-2.2778,-2.2982,-2.3681,-2.5068,-2.5456,-2.5267,-2.6783,-2.7186,-2.6662,-2.3211,-2.2473,-2.3163,0.0,0.0,0.0,0.0,0.0,0.0,0.0,0.0,0.0,-0.4984,-0.2062,0.0,0.0,0.0,-0.056,-0.1951,-0.4163,-0.569,-0.6204,-0.6588,-0.6882,-0.6996,-0.7499,-0.7663,-0.7326,-0.7231,-0.7392,-0.7916,-0.7664,-0.753,-0.7623,-0.722,-0.6559,-0.5948,-0.744,-0.8212,-0.8596,-1.1724,-1.323,-1.3811,-1.4993,-1.5517,-1.5457,-1.5083,-1.492,-1.491,-1.5114,-1.4838,0.0,-1.5558,-1.537,-1.4678,-1.4789,-1.4346,-1.3475,-1.2732,-1.2081,-1.1239,-0.997,-0.9196,-0.8884,-0.9038,-0.9781,-1.0753,-1.1573,-1.1823,-1.2031,-1.2178,-1.2626,-1.2639,-1.1702,-1.2128,-1.2402,-1.1541,-1.1214,-1.1859,-1.4244,-1.4762,-1.6053,-1.9421,-1.9728,-2.0287,-2.1896,-2.2179,-2.2144,-2.209,-2.2792,-2.2849,-2.2201,-2.3427,-2.4099,-2.3889,-2.569,-2.6578,-2.6391,-2.7323,-2.7324,-2.6597,-2.6458,-2.5752,-2.4675,-2.4524,-2.4002,-2.3336,-2.4263,-2.4985,-2.5645,-2.6864,-2.7386,-2.7408,-2.8124,-2.814,-2.751,-2.5284,-2.4787,-2.5126,0.0,0.0,0.0,0.0,0.0,0.0,0.0,0.0,0.0,0.0,-0.2883,-0.1056,-0.0082,0.0,0.0,0.0,-0.2434,-0.4456,-0.5583,-0.6215,-0.6731,-0.7121,-0.7414,-0.759,-0.7663,-0.7878,-0.8112,-0.8284,-0.8629,-0.8622,-0.8196,-0.8457,-0.783,-0.6803,-0.8094,-0.8686,-0.9123,-1.1647,-1.3234,-1.4131,-1.5487,-1.5843,-1.5572,-1.5234,-1.4953,-1.4824,-1.5165,-1.4993,-1.4648,-1.5659,-1.5583,-1.4891,-1.4916,-1.444,-1.3656,-1.3024,-1.2454,-1.1662,-1.0104,-0.9614,-0.9513,-0.9302,-0.9962,-1.0729,-1.0933,-1.1271,-1.1526,-1.1587,-1.2369,-1.2807,-1.1959,-1.273,-1.3244,-1.2606,-1.2564,-1.3552,-1.6368,-1.6656,-1.7874,-2.1202,-2.1667,-2.2291,-2.4022,-2.3624,-2.3286,-2.3634,-2.4096,-2.4421,-2.4785,-2.5969,-2.6506,-2.6197,-2.8099,-2.9094,-2.8638,-2.9384,-2.9463,-2.8993,-2.88,-2.7959,-2.6419,-2.6428,-2.6085,-2.542,-2.6645,-2.7352,-2.7899,-2.8884,-2.9282,-2.922,-2.9446,-2.9165,-2.856,-2.7476,-2.6976,-2.6883,0.0,0.0,0.0,0.0,0.0,0.0,0.0,0.0,0.0,0.0,0.0,0.0,0.0,0.0,0.0,0.0,-0.0077,-0.171,-0.5429,-0.5927,-0.6456,-0.7398,-0.725,-0.7377,-0.8098,-0.8112,-0.8375,-0.882,-0.9007,-0.9364,-0.9778,-0.9127,-0.8521,-0.8023,-0.8572,-0.8903,-0.9123,-1.1647,-1.352,-1.4718,-1.5828,-1.6109,-1.5819,-1.5306,-1.5004,-1.5028,-1.5746,-1.5348,-1.4713,-1.5789,-1.5641,-1.4856,-1.4268,-1.376,-1.3477,-1.3212,-1.2158,-1.08,-0.988,-0.9461,-0.9684,-1.1189,-1.1522,-1.1667,-1.2789,-1.2231,-1.1468,-1.097,-1.1394,-1.1988,-1.2022,-1.2462,-1.3111,-1.3582,-1.3198,-1.3764,-1.6265,-1.7333,-1.9218,-2.2972,-2.3408,-2.4158,-2.5896,-2.4648,-2.3803,-2.4171,-2.5349,-2.6264,-2.6486,-2.6823,-2.7092,-2.7012,-2.8129,-2.9104,-2.9755,-3.0467,-3.1263,-3.2236,-3.1209,-3.0707,-3.058,-3.0217,-3.0285,-3.0641,-3.0676,-3.0721,-3.0831,-3.2044,-3.1751,-3.062,-3.1589,-3.1525,-3.0748,-2.9729,-2.8755,-2.8016,0.0,0.0,0.0,0.0,0.0,0.0,0.0,0.0,0.0,0.0,0.0,0.0,0.0,0.0,0.0,0.0,-0.1425,-0.221,-0.1966,-0.4563,-0.6007,-0.5727,-0.687,-0.7578,-0.7825,-0.8108,-0.8375,-0.8643,-0.8914,-0.9311,-0.9717,-0.9587,-0.9119,-0.8451,-0.8669,-0.9102,-0.9738,-1.1065,-1.285,-1.4847,-1.5178,-1.5534,-1.5795,-1.4908,-1.4669,-1.4923,0.0,-1.4853,-1.4813,-1.4962,-1.4522,-1.3981,-1.3931,-1.3393,-1.2649,-1.2475,-1.1717,-1.0917,-1.04,-1.0295,-1.0416,-1.0641,-1.0825,-1.1014,-1.1253,-1.0895,-1.0665,-1.0886,-1.1426,-1.1966,-1.2243,-1.3377,-1.4609,-1.5544,-1.6177,-1.7595,-2.0219,-2.1586,-2.2739,-2.3691,-2.4572,-2.4889,-2.4305,-2.4382,-2.4758,-2.5249,-2.5405,-2.5723,-2.6327,-2.8098,-2.9007,-2.8917,-3.1074,-3.2137,-3.205,-3.2319,-3.2551,-3.2937,-3.284,-3.2065,-3.0491,-3.1603,-3.1504,-3.0472,-3.1773,-3.2091,-3.1794,-3.3216,-3.289,-3.15,-3.224,-3.1915,-3.0986,-3.0596,-3.0266,-2.9858,0.0,0.0,0.0,0.0,0.0,0.0,0.0,0.0,0.0,0.0,0.0,0.0,0.0,0.0,0.0,0.0,0.0,-0.1626,-0.0084,-0.3587,-0.5335,-0.4599,-0.6173,-0.7255,-0.7465,-0.7698,-0.796,-0.8282,-0.873,-0.9123,-0.9533,-0.9903,-0.9453,-0.8383,-0.8491,-0.8948,-0.9731,-1.0277,-1.1979,-1.4261,-1.4586,-1.4813,-1.4938,-1.4068,-1.4008,0.0,-1.3998,-1.4179,-1.4524,-1.418,-1.371,-1.3327,-1.2981,-1.2388,-1.1761,-1.1409,-1.1522,-1.1599,-1.1342,-1.1733,-1.212,-1.1952,-1.2057,-1.2154,-1.178,-1.1345,-1.1189,-1.1497,-1.1965,-1.2468,-1.2917,-1.4236,-1.5644,-1.6842,-1.7909,-1.9487,-2.2137,-2.371,-2.4618,-2.4701,-2.5752,-2.621,-2.5346,-2.5629,-2.5801,-2.5761,-2.6381,-2.7022,-2.7465,-2.9637,-3.0883,-3.0926,-3.2733,-3.3735,-3.3796,-3.3867,-3.4246,-3.4777,-3.4832,-3.4008,-3.2598,-3.3444,-3.3056,-3.1932,-3.2811,-3.3135,-3.2995,-3.377,-3.3456,-3.2476,-3.2633,-3.2123,-3.13,-3.13,-3.1294,-3.1172,0.0,0.0,0.0,0.0,0.0,0.0,0.0,0.0,0.0,0.0,0.0,0.0,0.0,0.0,0.0,0.0,0.0,0.0,-0.0,-0.311,-0.4765,-0.4209,-0.5409,-0.6402,-0.7048,-0.7119,-0.7374,-0.7867,-0.8294,-0.8722,-0.9316,-0.9967,-0.9404,-0.7797,-0.8009,-0.8406,-0.8982,-0.9534,-1.0974,-1.3102,-1.3837,-1.4001,-1.3534,-1.2931,-1.3031,-1.3374,-1.3233,-1.3526,-1.3932,-1.3558,-1.3369,-1.3039,-1.1715,-1.1203,-1.1025,-1.0526,-1.1532,-1.2808,-1.2741,-1.3613,-1.4641,-1.4802,-1.4759,-1.457,-1.3998,-1.3339,-1.2773,-1.2553,-1.2847,-1.3306,-1.396,-1.5006,-1.6246,-1.7447,-1.8373,-1.9589,-2.1929,-2.373,-2.516,-2.6032,-2.6962,-2.782,-2.8519,-2.8032,-2.7082,-2.5887,-2.8307,-2.9891,-2.98,-3.1504,-3.2577,-3.2901,-3.3289,-3.3981,-3.5054,-3.5357,-3.6276,-3.7683,-3.7125,-3.6729,-3.6578,-3.5695,-3.5168,-3.5006,-3.4081,-3.3983,-3.4402,-3.3809,-3.3574,-3.3483,-3.2881,-3.2319,-3.1836,-3.181,-3.1934,-3.2087,0.0,0.0,0.0,0.0,0.0,0.0,0.0,0.0,0.0,0.0,0.0,0.0,0.0,0.0,0.0,0.0,0.0,0.0,-0.008,-0.3142,-0.4927,-0.4818,-0.5804,-0.6505,-0.6881,-0.725,-0.7566,-0.7854,-0.808,-0.8413,-0.8843,-0.9076,-0.8825,-0.834,-0.7637,-0.8076,-0.9365,-0.8843,-1.0314,-1.2755,-1.275,-1.2981,-1.3254,-1.252,-1.2898,-1.3883,-1.3163,-1.3784,-1.486,-1.4465,-1.4351,-1.4248,-1.3602,-1.3436,-1.3441,-1.3258,-1.3556,-1.4002,-1.3945,-1.4364,-1.4777,-1.4746,-1.4613,-1.4244,-1.3588,-1.2993,-1.2705,-1.3059,-1.281,-1.2926,-1.4328,-1.5217,-1.6379,-1.8389,-1.9918,-2.1437,-2.3403,-2.5604,-2.6575,-2.5786,-2.7009,-2.7925,-2.7837,-2.8294,-2.8652,-2.8796,-2.9597,-3.0356,-3.1051,-3.271,-3.3934,-3.4752,-3.5949,-3.7111,-3.8094,-3.8219,-3.8443,-3.8836,-3.9377,-3.8739,-3.7202,-3.7991,-3.7501,-3.5976,-3.5439,-3.4969,-3.4607,-3.387,-3.3326,-3.2868,-3.228,-3.2339,-3.267,-3.2199,-3.2427,-3.2861,0.0,0.0,0.0,0.0,0.0,0.0,0.0,0.0,0.0,0.0,0.0,0.0,0.0,0.0,0.0,0.0,0.0,0.0,0.0,-0.2817,-0.4702,-0.5129,-0.5407,-0.5636,-0.5907,-0.6288,-0.655,-0.6624,-0.7443,-0.7952,-0.8219,-0.8455,-0.8328,-0.7807,-0.7321,-0.7736,-0.8762,-0.8435,-0.9564,0.0,0.0,-1.1663,-1.1921,-1.1807,-1.2165,-1.2602,-1.3258,-1.4228,-1.5309,-1.5272,-1.474,-1.4117,-1.4112,-1.4308,-1.4402,-1.4528,-1.4975,-1.5537,-1.5658,-1.6104,-1.65,-1.6368,-1.6109,-1.5582,-1.4655,-1.4018,-1.3559,-1.3648,-1.3042,-1.3006,-1.4653,-1.5521,-1.6648,-1.8843,-2.0277,-2.1838,-2.3932,-2.5657,-2.655,-2.6314,-2.7545,-2.842,-2.8603,-2.9255,-3.022,-3.1262,-3.1459,-3.1605,-3.2062,-3.3777,-3.5138,-3.61,-3.7204,-3.8419,-3.9812,-3.9812,-4.0,-4.046,-4.0406,-3.9768,-3.8585,-3.8629,-3.8005,-3.6844,-3.6175,-3.5852,-3.5678,-3.4988,-3.4441,-3.4049,-3.3482,-3.3302,-3.3459,-3.3101,-3.3297,-3.3742,0.0,0.0,0.0,0.0,0.0,0.0,0.0,0.0,0.0,0.0,0.0,0.0,0.0,0.0,0.0,0.0,0.0,0.0,0.0,0.0,-0.4316,-0.5339,-0.4743,-0.4407,-0.4414,-0.4925,-0.5208,-0.5208,-0.6728,-0.7442,-0.745,-0.7989,-0.7826,-0.7016,-0.7013,-0.7376,-0.7902,-0.8115,-0.8745,-0.9815,-1.0202,-1.0324,-1.027,0.0,-1.1175,-1.1149,-1.3457,-1.4741,-1.5489,-1.5855,-1.5026,-1.3901,-1.4412,-1.4791,-1.5101,-1.5347,-1.6222,-1.7216,-1.7469,-1.8034,-1.8556,-1.8372,-1.7991,-1.7261,-1.6074,-1.5313,-1.4749,-1.4088,-1.3355,-1.3344,-1.501,-1.5658,-1.6757,-1.8957,-1.9907,-2.1259,-2.373,-2.489,-2.5937,-2.7226,-2.8101,-2.9074,-2.9985,-3.0584,-3.1628,-3.3266,-3.3499,-3.3412,-3.308,-3.4667,-3.6156,-3.7296,-3.7952,-3.9121,-4.0774,-4.0788,-4.1212,-4.1947,-4.0786,-4.0133,-3.9944,-3.8505,-3.7806,-3.7691,-3.6755,-3.6584,-3.7007,-3.6338,-3.5995,-3.5821,-3.5236,-3.4705,-3.427,-3.4185,-3.4239,-3.4534,0.0,0.0,0.0,0.0,0.0,0.0,0.0,0.0,0.0,0.0,-0.509,-0.4332,0.0,0.0,0.0,0.0,0.0,0.0,0.0,0.0,0.0,-0.5498,-0.4898,-0.4042,-0.2927,-0.454,-0.541,-0.541,-0.6402,-0.6947,-0.7195,-0.7249,-0.7357,-0.7418,-0.6715,-0.7058,-0.8114,-0.7513,-0.7996,-0.9336,-0.9625,-0.9727,-0.9759,-1.0074,0.0,0.0,-1.4391,-1.5257,-1.5518,-1.6096,-1.6284,-1.6287,-1.665,-1.717,-1.7647,-1.7697,-1.8039,-1.8513,-1.8564,-1.8182,-1.7875,-1.8526,-1.7669,-1.6418,-1.556,-1.512,-1.4569,-1.3762,-1.3372,-1.3683,-1.5545,-1.5401,-1.6015,-1.9045,-1.9569,-2.0536,-2.3249,-2.4754,-2.5939,-2.6797,-2.7796,-2.9126,-3.1154,-3.1396,-3.2297,-3.4409,-3.509,-3.5522,-3.5436,-3.5547,-3.6602,-3.8751,-4.0474,-4.1549,-4.1814,-4.1814,-4.1637,-4.1265,-4.1033,-4.0379,-3.9349,-3.927,-3.8923,-3.8546,-3.7907,-3.771,-3.7904,-3.6656,-3.5995,-3.5779,-3.4745,-3.4597,-3.4949,-3.447,-3.4712,-3.5309,0.0,0.0,0.0,0.0,0.0,0.0,0.0,-0.5713,-0.5557,-0.536,-0.5307,-0.4511,-0.2686,-0.0975,-0.0162,0.0,0.0,0.0,0.0,0.0,0.0,0.0,-0.4552,-0.3443,-0.2594,-0.4012,-0.4663,-0.4605,0.0,-0.674,-0.6827,-0.6826,-0.6986,-0.714,-0.68,-0.7052,-0.7729,-0.7544,-0.7974,-0.8686,-0.905,-0.9212,-0.9305,-1.0009,0.0,0.0,-1.3977,-1.4664,-1.5154,-1.5792,-1.6161,-1.6538,-1.7283,-1.7911,-1.8335,-1.8503,-1.8664,-1.8724,-1.8267,-1.8288,-1.8303,-1.7931,-1.7377,-1.6692,-1.5554,-1.4945,-1.4306,-1.3446,-1.2893,-1.3059,-1.4694,-1.4569,-1.4951,-1.7235,-1.789,-1.9033,-2.163,-2.3211,-2.473,-2.6305,-2.7468,-2.8794,-3.0546,-3.1268,-3.2286,-3.3808,-3.5187,-3.5966,-3.5966,-3.7057,-3.8405,-3.9899,-4.1353,-4.1932,-4.157,-4.157,-4.1236,-4.0583,-4.0263,-3.9784,-3.9189,-3.9069,-3.8883,-3.8649,-3.8575,-3.8385,-3.8121,-3.7565,-3.6896,-3.6156,-3.5616,-3.54,-3.5347,-3.5023,-3.5198,-3.5504,0.0,0.0,0.0,0.0,0.0,0.0,0.0,-0.5802,-0.5609,-0.5521,-0.5589,-0.4795,-0.2832,-0.1006,-0.0165,0.0,0.0,0.0,0.0,0.0,0.0,0.0,0.0,0.0,-0.2662,0.0,0.0,-0.3862,-0.5746,0.0,0.0,0.0,0.0,0.0,-0.6898,-0.7065,-0.7303,-0.7765,-0.8029,0.0,0.0,-0.8823,-0.8999,0.0,0.0,0.0,0.0,-1.4146,-1.4783,-1.5362,-1.5727,-1.607,-1.7059,-1.7727,-1.8233,-1.8423,-1.8621,-1.8636,-1.7735,-1.8295,-1.8782,-1.7375,-1.7311,-1.7227,-1.5733,-1.4884,-1.4186,-1.3226,-1.2577,-1.2598,-1.3886,-1.3695,-1.3926,-1.5642,-1.6316,-1.7561,-2.0338,-2.1906,-2.3662,-2.5945,-2.7429,-2.8784,-3.013,-3.1268,-3.2387,-3.3511,-3.5039,-3.6069,-3.6402,-3.8555,-4.0006,-4.0407,-4.1191,-4.1424,-4.0887,-4.0887,-4.0554,-3.99,-3.9421,-3.9117,-3.8971,-3.86,-3.8368,-3.8311,-3.8605,-3.8453,-3.7846,-3.8057,-3.744,-3.641,-3.6492,-3.6088,-3.5519,-3.5669,-3.5624,-3.5534,0.0,0.0,0.0,0.0,0.0,0.0,0.0,-0.5764,-0.5861,-0.5695,-0.5846,-0.5233,-0.3105,-0.115,-0.0,0.0,0.0,0.0,0.0,0.0,0.0,0.0,0.0,0.0,0.0,0.0,0.0,-0.3957,-0.5791,0.0,0.0,0.0,0.0,0.0,0.0,-0.6739,-0.7141,-0.7455,0.0,0.0,0.0,0.0,0.0,0.0,0.0,0.0,0.0,-1.465,-1.4783,-1.5098,-1.5404,-1.5669,-1.6042,-1.695,-1.7808,-1.7538,-1.8094,-1.8586,-1.7483,-1.8088,-1.8758,-1.7531,-1.7476,-1.7319,-1.5965,-1.5301,-1.4676,-1.327,-1.2928,-1.3048,-1.397,-1.3178,-1.3248,-1.5811,-1.5738,-1.6609,-2.0446,-2.196,-2.3573,-2.5909,-2.8028,-2.9901,-3.1268,-3.2387,-3.3511,-3.4531,-3.5353,-3.6467,-3.7782,-3.9488,-4.0151,-3.9802,-4.0086,-4.0249,-4.0191,-4.0191,-3.9886,-3.9276,-3.9233,-3.8884,-3.8289,-3.8231,-3.8046,-3.7652,-3.7725,-3.743,-3.7024,-3.7248,-3.6901,-3.6261,-3.641,-3.6088,-3.5579,-3.6178,-3.6013,-3.5594,0.0,0.0,0.0,0.0,0.0,0.0,-0.482,-0.5101,-0.547,-0.5697,-0.5829,-0.5174,-0.331,-0.126,0.0,0.0,0.0,0.0,0.0,0.0,0.0,0.0,0.0,0.0,0.0,0.0,-0.3668,-0.4632,-0.6004,0.0,0.0,0.0,0.0,0.0,0.0,-0.6585,-0.6732,-0.7138,0.0,0.0,0.0,0.0,0.0,0.0,0.0,0.0,0.0,0.0,-1.4348,-1.4627,-1.4753,-1.4916,-1.4937,-1.5691,-1.6574,-1.7108,-1.7882,-1.8168,-1.6678,-1.7925,-1.9179,-1.6979,-1.6964,-1.7274,-1.6208,-1.5226,-1.4273,-1.3454,-1.3107,-1.2973,-1.3331,-1.282,-1.2696,-1.4007,-1.4088,-1.4889,-1.7415,-1.9301,-2.1399,-2.3996,-2.6733,-2.9099,-3.0983,-3.2419,-3.3852,-3.5481,-3.6488,-3.7452,-3.8454,-3.9027,-3.9453,-3.9905,-4.0061,-3.9929,-3.9567,-3.9567,-3.9233,-3.8609,-3.8609,-3.8463,-3.8202,-3.8202,-3.7943,-3.7434,-3.7579,-3.7249,-3.6618,-3.6497,-3.6484,-3.6578,-3.5914,-3.5829,-3.6067,-3.5919,-3.5959,-3.6004,0.0,0.0,0.0,0.0,0.0,-0.4162,-0.3753,-0.4273,-0.4899,-0.5209,-0.5491,-0.5292,-0.4154,-0.1612,0.0,0.0,-0.0338,0.0,0.0,0.0,0.0,0.0,0.0,0.0,0.0,0.0,-0.4454,-0.5113,-0.6279,-0.681,0.0,0.0,-0.6685,-0.6536,0.0,0.0,0.0,0.0,0.0,0.0,0.0,0.0,0.0,0.0,0.0,0.0,0.0,0.0,0.0,0.0,0.0,-1.4357,-1.4317,-1.4803,-1.5548,-1.6386,-1.7261,-1.7618,-1.6113,-1.7701,-1.9294,-1.679,-1.6802,-1.7201,-1.6414,-1.5103,-1.4033,-1.3587,-1.32,-1.29,-1.29,-1.2599,-1.2398,-1.2775,-1.3318,-1.4249,-1.5944,-1.7912,-2.0174,-2.2735,-2.5464,-2.7913,-2.9731,-3.1837,-3.3743,-3.5341,-3.6066,-3.6866,-3.791,-3.748,-3.7959,-3.9509,-3.9538,-3.9146,-3.8362,-3.8725,-3.858,-3.7941,-3.8115,-3.8202,-3.8188,-3.8028,-3.7593,-3.6997,-3.6953,-3.6645,-3.6,-3.5852,-3.6094,-3.66,-3.5943,-3.607,-3.6507,-3.6377,-3.6505,-3.6631,0.0,0.0,0.0,0.0,0.0,0.0,-0.2433,-0.3289,-0.4154,-0.4283,-0.5146,-0.5741,-0.5984,-0.2434,0.0,0.0,-0.0345,0.0,0.0,0.0,0.0,0.0,0.0,0.0,0.0,0.0,-0.5963,-0.5113,-0.6471,-0.7065,-0.6926,-0.6926,-0.6844,-0.6692,0.0,0.0,0.0,0.0,0.0,0.0,0.0,0.0,0.0,0.0,0.0,0.0,0.0,0.0,0.0,0.0,0.0,0.0,0.0,-1.4566,-1.4741,-1.502,-1.6168,-1.7052,-1.592,-1.7351,-1.8829,-1.7288,-1.7225,-1.7308,-1.6385,-1.52,-1.4164,-1.3631,-1.32,-1.29,-1.29,-1.2599,-1.2398,-1.2775,-1.3754,-1.5162,-1.7171,-1.8774,-2.0501,-2.2527,-2.4605,-2.6389,-2.7683,-3.0813,-3.2941,-3.3692,-3.3554,-3.4163,-3.5913,-3.4899,-3.5449,-3.8159,-3.8217,-3.7607,-3.6344,-3.7593,-3.7912,-3.7317,-3.7912,-3.8202,-3.8188,-3.7593,-3.6954,-3.6286,-3.5662,-3.5336,-3.5234,-3.535,-3.5737,-3.6258,-3.6723,-3.6906,-3.7044,-3.7993,-3.7925,-3.7464,0.0,0.0,0.0,0.0,0.0,0.0,0.0,-0.2817,-0.3103,-0.4027,-0.4394,-0.442,-0.3963,-0.3904,-0.2869,-0.0263,-0.0087,0.0,0.0,0.0,0.0,0.0,0.0,0.0,0.0,0.0,-0.6263,-0.592,-0.6695,-0.7379,-0.8028,-0.8028,-0.7935,-0.7766,-0.7712,-0.7296,0.0,0.0,0.0,0.0,0.0,0.0,-1.1322,0.0,0.0,0.0,0.0,0.0,0.0,0.0,0.0,0.0,0.0,0.0,0.0,-1.4511,-1.5556,-1.6408,-1.5475,-1.6649,-1.7714,-1.6423,-1.6202,-1.6147,-1.5695,-1.4727,-1.3836,-1.3587,-1.32,-1.29,-1.29,-1.2599,-1.2398,-1.2775,-1.3761,-1.4776,-1.5627,-1.7613,-1.9989,-2.2801,-2.6403,-2.9331,-3.0909,-3.1773,-3.2644,-3.3619,-3.4481,-3.518,-3.5776,-3.6128,-3.6555,-3.6881,-3.7096,-3.6923,-3.6315,-3.7157,-3.7259,-3.6635,-3.6823,-3.691,-3.6896,-3.6707,-3.647,-3.6173,-3.5967,-3.6043,-3.6196,-3.5864,-3.6415,-3.7282,-3.6677,-3.6921,-3.7535,-3.7458,-3.7678,-3.7969,0.0,0.0,0.0,0.0,0.0,0.0,0.0,-0.2826,-0.286,-0.3678,-0.3728,-0.3749,-0.3618,-0.488,-0.4774,-0.234,-0.1132,0.0,0.0,0.0,0.0,0.0,0.0,0.0,0.0,-0.5812,-0.6198,-0.6328,-0.7214,-0.7812,-0.8021,-0.8785,-0.8894,-0.8369,-0.8726,-0.8295,0.0,0.0,0.0,0.0,0.0,0.0,-1.1192,0.0,0.0,0.0,0.0,0.0,0.0,0.0,0.0,0.0,0.0,0.0,0.0,0.0,-1.4638,-1.5151,-1.4987,-1.5837,-1.6643,-1.5854,-1.5469,-1.5242,-1.5113,-1.4403,-1.3645,-1.3499,-1.32,-1.29,-1.29,-1.2599,-1.2365,-1.2552,-1.3983,-1.504,-1.5245,-1.7666,-2.0458,-2.3061,-2.6507,-2.9137,-3.0493,-3.1104,-3.1806,-3.2699,-3.4016,-3.4825,-3.4982,-3.5769,-3.6182,-3.606,-3.6488,-3.6389,-3.5604,-3.6475,-3.6606,-3.5952,-3.6199,-3.6301,-3.6301,-3.6054,-3.6,-3.6119,-3.5882,-3.6129,0.0,-3.6321,-3.6799,-3.7669,-3.7058,-3.7282,-3.7886,-3.7578,-3.7911,-3.8423,0.0,0.0,0.0,0.0,0.0,0.0,0.0,-0.3092,-0.3226,-0.3226,-0.3237,-0.357,-0.4497,-0.5106,-0.5505,-0.5712,0.0,0.0,0.0,0.0,0.0,0.0,0.0,0.0,-0.5184,-0.5567,-0.5948,-0.6328,-0.7752,-0.8099,-0.7333,-0.9366,-0.9714,-0.8727,-0.9501,-0.932,0.0,0.0,0.0,0.0,0.0,0.0,0.0,0.0,0.0,0.0,0.0,0.0,0.0,0.0,0.0,0.0,0.0,0.0,0.0,0.0,0.0,0.0,0.0,-1.505,-1.5475,-1.5416,-1.4882,-1.4506,-1.4647,-1.4066,0.0,-1.3455,-1.3164,-1.2865,-1.2865,-1.2586,-1.2298,-1.2305,-1.4298,-1.5819,-1.5843,-1.8955,-2.1869,-2.3426,-2.5292,-2.6758,-2.7501,-2.9283,-3.0687,-3.1334,-3.2577,-3.3506,-3.3919,-3.4245,-3.4861,-3.5688,-3.6424,-3.6006,-3.4496,-3.5619,-3.5923,-3.5369,-3.5894,-3.617,-3.6156,-3.5561,-3.5615,-3.603,-3.5487,-3.5816,-3.6785,-3.6785,-3.7029,-3.7539,-3.7786,-3.7886,-3.7943,-3.8262,-3.8544,-3.875,0.0,0.0,0.0,0.0,0.0,0.0,0.0,0.0,0.0,0.0,-0.3446,-0.3436,-0.277,-0.2848,-0.3679,0.0,0.0,0.0,0.0,0.0,0.0,0.0,0.0,0.0,-0.5184,-0.5647,-0.6034,-0.6328,-0.7048,-0.8163,-0.9553,-1.0204,-1.0639,-1.0967,-1.118,-1.0619,0.0,0.0,0.0,0.0,0.0,0.0,0.0,0.0,0.0,0.0,-1.3494,-1.3561,0.0,0.0,0.0,0.0,0.0,0.0,0.0,0.0,-1.3154,-1.3114,-1.3263,0.0,-1.4044,-1.4221,-1.4073,-1.3939,0.0,-1.3513,-1.3126,-1.3126,-1.2906,-1.2685,-1.2543,-1.2514,-1.2452,-1.2305,-1.4298,-1.5899,-1.6242,-2.0627,-2.3949,-2.4241,-2.6209,-2.7987,-2.9024,-3.0139,-3.1272,-3.2648,-3.4095,-3.4912,-3.4993,-3.5608,-3.5958,-3.591,-3.6084,-3.5824,-3.5052,-3.5099,-3.4977,-3.4632,-3.4502,-3.4574,-3.4849,-3.4704,-3.5141,-3.5948,-3.5797,-3.6321,-3.7285,-3.7285,-3.7421,-3.7539,-3.7583,-3.7743,-3.7886,-3.8001,-3.8189,-3.8504,0.0,0.0,0.0,0.0,0.0,0.0,0.0,0.0,0.0,0.0,0.0,0.0,0.0,0.0,0.0,0.0,0.0,0.0,0.0,0.0,0.0,0.0,0.0,-0.5241,-0.5352,-0.5565,-0.6207,-0.7207,-0.7535,-0.8658,-1.0486,-1.1061,-1.1451,-1.1666,-1.1558,-1.1116,0.0,0.0,0.0,0.0,-0.8246,0.0,0.0,0.0,0.0,0.0,-1.3267,-1.3313,0.0,-1.3447,-1.3227,-1.3013,0.0,0.0,0.0,0.0,-1.2772,-1.2551,-1.2322,-1.2852,-1.3382,-1.3487,-1.3481,-1.3514,-1.3665,-1.3251,-1.2868,-1.3009,-1.2675,-1.2409,-1.241,-1.2635,-1.279,-1.2858,-1.4692,-1.6632,-1.8126,-2.1178,-2.3594,-2.4241,-2.6179,-2.793,-2.916,-3.053,-3.1861,-3.3003,-3.4514,-3.54,-3.54,-3.6085,-3.6429,-3.6336,-3.61,-3.5767,-3.5285,-3.499,-3.4801,-3.4601,-3.4264,-3.4196,-3.4414,-3.4414,-3.4971,-3.5913,-3.5913,-3.6507,-3.748,-3.748,-3.748,-3.748,-3.748,-3.7583,-3.7743,-3.7743,-3.7918,-3.8148,0.0,0.0,0.0,0.0,0.0,0.0,0.0,0.0,0.0,0.0,0.0,0.0,0.0,0.0,0.0,0.0,0.0,0.0,0.0,0.0,0.0,0.0,-0.4477,-0.5445,-0.5462,-0.5464,-0.6265,-0.7945,-0.814,-0.9072,-1.0745,-1.165,-1.209,-1.1987,-1.1706,-1.1363,0.0,0.0,0.0,0.0,-0.7849,0.0,0.0,0.0,0.0,0.0,0.0,0.0,0.0,-1.314,-1.3106,-1.308,-1.3126,0.0,0.0,0.0,0.0,0.0,-1.1776,-1.2426,-1.31,-1.2912,-1.3086,-1.3265,-1.345,-1.3063,-1.272,-1.2938,-1.2513,-1.2109,-1.2326,-1.2713,-1.3055,-1.3425,-1.5438,-1.7773,-2.043,-2.1494,-2.2585,-2.4137,-2.5909,-2.7452,-2.8548,-3.068,-3.2249,-3.3003,-3.4412,-3.5359,-3.5529,-3.6056,-3.6446,-3.6662,-3.6289,-3.5894,-3.5593,-3.5103,-3.4854,-3.4787,-3.4534,-3.4332,-3.4346,-3.4346,-3.492,-3.5785,-3.5849,-3.6445,-3.7405,-3.748,-3.748,-3.748,-3.748,-3.748,-3.748,-3.748,-3.7626,-3.7828,0.0,0.0,0.0,0.0,0.0,0.0,0.0,0.0,0.0,0.0,0.0,0.0,0.0,0.0,0.0,0.0,0.0,0.0,0.0,0.0,0.0,-0.2929,-0.4466,-0.5445,-0.5462,-0.5464,-0.5874,-0.6637,-0.6993,-0.8329,-1.075,-1.1139,-1.2047,-1.3243,-1.2928,-1.256,-1.1981,0.0,0.0,0.0,-0.919,0.0,0.0,0.0,0.0,0.0,0.0,0.0,0.0,-1.2896,-1.2652,-1.2485,-1.2739,0.0,0.0,0.0,0.0,0.0,-1.1645,-1.2203,-1.2595,-1.2205,-1.2627,-1.2975,-1.2803,-1.2618,-1.2509,-1.272,-1.2537,-1.2298,-1.2218,-1.2466,-1.2891,-1.3449,-1.6138,-1.8904,-2.1106,-2.2636,-2.3791,-2.466,-2.6224,-2.7557,-2.8639,-3.0366,-3.215,-3.3739,-3.428,-3.507,-3.6258,-3.5876,-3.5891,-3.6538,-3.6492,-3.6414,-3.6352,-3.535,-3.4758,-3.4505,-3.4438,-3.4235,-3.3908,-3.4264,-3.4721,-3.535,-3.5721,-3.6243,-3.6846,-3.7285,-3.748,-3.748,-3.748,-3.748,-3.748,-3.748,-3.7539,-3.7583,0.0,0.0,0.0,0.0,0.0,0.0,0.0,0.0,0.0,0.0,0.0,0.0,0.0,0.0,0.0,0.0,0.0,0.0,0.0,0.0,-0.3015,-0.4397,-0.515,-0.5545,-0.5648,-0.5648,-0.6177,-0.7275,-0.7127,-0.86,-1.1552,-1.2183,-1.2825,-1.345,-1.2906,-1.2431,-1.2014,-1.0972,-1.0216,-0.9594,0.0,0.0,0.0,0.0,0.0,0.0,0.0,0.0,0.0,0.0,-1.2344,-1.2177,-1.2315,0.0,0.0,0.0,0.0,0.0,-1.1156,-1.1683,-1.2131,-1.1704,-1.2381,-1.3067,-1.2838,-1.2556,-1.2338,-1.2727,-1.2478,-1.2296,-1.2395,-1.2903,-1.38,-1.5227,-1.7517,-1.9394,-2.0359,-2.1579,-2.2859,-2.4079,-2.5363,-2.6712,-2.816,-3.0262,-3.1887,-3.2806,-3.3724,-3.4607,-3.5383,-3.5106,-3.5245,-3.5922,-3.5953,-3.6122,-3.6492,-3.6022,-3.5429,-3.4691,-3.4505,-3.3994,-3.3339,-3.3475,-3.382,-3.4178,-3.4665,-3.5294,-3.618,-3.631,-3.6801,-3.7433,-3.7054,-3.7148,-3.748,-3.748,-3.748,-3.748,0.0,0.0,0.0,0.0,0.0,0.0,0.0,0.0,0.0,0.0,0.0,0.0,0.0,0.0,0.0,0.0,0.0,0.0,0.0,0.0,-0.2697,-0.5588,-0.5675,-0.5686,-0.573,-0.5706,-0.634,-0.7705,-0.7298,-0.8787,-1.2052,-1.3101,-1.3576,-1.3523,-1.2868,-1.2392,-1.1914,-1.1067,-1.0341,-0.9841,0.0,0.0,0.0,0.0,0.0,0.0,0.0,0.0,0.0,0.0,0.0,0.0,0.0,0.0,0.0,-1.1409,-1.1211,-1.0972,-1.0773,-1.1175,-1.1608,-1.1253,-1.2071,-1.3066,-1.304,-1.2723,-1.2485,-1.3016,-1.2755,-1.2424,-1.2659,-1.3512,-1.4746,-1.638,-1.8348,-1.9676,-1.9771,-2.0807,-2.2043,-2.3438,-2.4763,-2.619,-2.7676,-2.9711,-3.1204,-3.1803,-3.2759,-3.3621,-3.4386,-3.4306,-3.4537,-3.523,-3.5245,-3.5491,-3.6014,-3.6014,-3.5626,-3.4786,-3.4604,-3.3937,-3.2881,-3.2998,-3.3191,-3.3408,-3.3864,-3.4572,-3.545,-3.5587,-3.6169,-3.6975,-3.6753,-3.7006,-3.748,-3.748,-3.748,-3.748,0.0,0.0,0.0,0.0,0.0,0.0,0.0,0.0,0.0,0.0,0.0,0.0,0.0,0.0,0.0,0.0,0.0,0.0,0.0,0.0,-0.27,-0.5608,-0.567,-0.5678,-0.5727,-0.5534,-0.5857,-0.6471,-0.6792,-0.8335,-1.1252,-1.3003,-1.3736,-1.3792,-1.35,-1.2901,-1.2252,-1.1902,-1.1048,-0.9922,-0.9992,0.0,0.0,0.0,0.0,0.0,0.0,0.0,0.0,0.0,0.0,0.0,0.0,0.0,-1.1409,-1.1409,-1.1083,-1.0743,-1.0725,-1.09,-1.1078,-1.0709,-1.1627,-1.2641,-1.312,-1.3146,-1.3279,-1.3729,-1.348,-1.3101,-1.2931,-1.4129,-1.5201,-1.5348,-1.7875,-1.9856,-2.0232,-2.1626,-2.2894,-2.3582,-2.5528,-2.6863,-2.7114,-2.8218,-2.9673,-3.15,-3.0998,-3.1648,-3.4073,-3.3771,-3.3798,-3.4522,-3.4552,-3.4568,-3.4614,-3.4614,-3.4592,-3.4424,-3.4783,-3.4235,-3.2893,-3.333,-3.3561,-3.3638,-3.4281,-3.4589,-3.474,-3.5844,-3.6026,-3.5663,-3.6911,-3.7433,-3.748,-3.748,-3.748,-3.748,0.0,0.0,0.0,0.0,0.0,0.0,0.0,0.0,0.0,0.0,0.0,0.0,0.0,0.0,0.0,0.0,0.0,0.0,0.0,-0.0319,-0.0979,-0.21,-0.4462,-0.5689,-0.5689,-0.5613,-0.5744,-0.609,-0.787,-0.9498,-1.0923,-1.2738,-1.3534,-1.3452,-1.2921,-1.2525,-1.2221,-1.1642,-1.1248,-1.0824,-1.0284,-0.9911,0.0,0.0,0.0,0.0,0.0,0.0,0.0,0.0,-1.2003,-1.1855,-1.1929,-1.1706,-1.1378,-1.1211,-1.0942,-1.0647,-1.0321,-1.0663,-1.101,-1.0645,-1.1449,-1.2331,-1.2667,-1.2994,-1.3347,-1.3904,-1.3917,-1.3709,-1.3371,-1.4411,-1.5283,-1.5495,-1.7933,-1.9796,-1.9796,-2.1453,-2.2855,-2.3372,-2.5021,-2.6298,-2.6756,-2.7886,-2.8965,-2.9793,-3.0028,-3.0603,-3.1671,-3.2004,-3.2475,-3.3152,-3.3583,-3.4029,-3.4475,-3.4475,-3.425,-3.3815,-3.3925,-3.3423,-3.2294,-3.2585,-3.2602,-3.2477,-3.308,-3.3609,-3.4069,-3.4321,-3.4841,-3.5442,-3.5979,-3.6706,-3.7417,-3.699,-3.7101,-3.748,0.0,0.0,0.0,0.0,0.0,0.0,0.0,0.0,0.0,0.0,0.0,0.0,0.0,0.0,0.0,0.0,0.0,0.0,0.1513,0.0534,0.0,0.0,-0.3678,-0.5618,-0.5522,-0.559,-0.5697,-0.585,-0.8189,-0.9836,-1.0929,-1.2569,-1.3555,-1.3837,-1.3072,-1.2775,-1.2808,-1.1868,-1.1508,-1.1432,-1.0697,-1.0519,0.0,0.0,0.0,0.0,0.0,0.0,0.0,0.0,-1.1781,-1.1632,-1.1781,-1.1558,-1.1279,-1.1015,-1.073,-1.0502,-0.9994,-1.0272,-1.055,-1.0416,-1.1103,-1.1891,-1.2557,-1.3035,-1.354,-1.4222,-1.4142,-1.3911,-1.3748,-1.456,-1.5263,-1.5525,-1.7843,-1.9565,-1.9696,-2.1061,-2.235,-2.3046,-2.4214,-2.5229,-2.5939,-2.6846,-2.7662,-2.8359,-2.8812,-2.9365,-3.0121,-3.0722,-3.1328,-3.2044,-3.2521,-3.2998,-3.349,-3.3706,-3.3352,-3.2475,-3.2664,-3.2496,-3.2079,-3.2197,-3.2189,-3.2079,-3.2563,-3.3061,-3.3552,-3.3612,-3.432,-3.5363,-3.5126,-3.5774,-3.6785,-3.6532,-3.6738,-3.718,0.0,0.0,0.0,0.0,0.0,0.0,0.0,0.0,0.0,0.0,0.0,0.0,0.0,0.0,0.0,0.0,0.0,0.0,0.431,0.1583,0.0,0.0,-0.3679,-0.5439,-0.5031,-0.526,-0.5496,-0.573,-0.7369,-0.9187,-1.1243,-1.2445,-1.3692,-1.4949,-1.4055,-1.3888,-1.4223,-1.2827,-1.2012,-1.151,-1.1452,-1.0812,-0.9922,0.0,0.0,0.0,0.0,0.0,0.0,0.0,-1.1558,-1.1409,-1.1403,-1.126,-1.1057,-1.0791,-1.0532,-1.0272,-0.994,-0.9682,-0.955,-0.9808,-1.0478,-1.1384,-1.2817,-1.332,-1.3895,-1.477,-1.4249,-1.3695,-1.4008,-1.4703,-1.5235,-1.5401,-1.7446,-1.9346,-1.9977,-2.0591,-2.1414,-2.2559,-2.326,-2.396,-2.4632,-2.4699,-2.5523,-2.744,-2.7147,-2.7772,-2.9834,-3.0121,-3.0532,-3.1336,-3.1366,-3.1366,-3.1366,-3.2044,-3.172,-3.0428,-3.1074,-3.172,-3.2382,-3.2508,-3.2703,-3.2897,-3.3058,-3.315,-3.3356,-3.402,-3.4715,-3.5315,-3.4573,-3.4731,-3.5473,-3.6169,-3.6364,-3.6532,0.0,0.0,0.0,0.0,0.0,0.0,0.0,0.0,0.0,0.0,0.0,0.0,0.0,0.0,0.0,0.0,0.0,0.0,0.4217,0.2541,0.1007,0.0075,-0.3345,-0.5112,-0.504,-0.51,-0.5328,-0.5735,-0.7831,-0.9167,-0.9752,-1.2034,-1.3437,-1.3904,-1.3393,-1.3054,-1.2915,-1.2005,-1.1655,-1.1658,-1.1452,-1.1111,-1.0738,0.0,0.0,0.0,0.0,0.0,0.0,0.0,0.0,0.0,-1.1332,-1.1328,-1.1206,-1.0565,-1.0317,-1.023,-0.9718,-0.9808,-1.0048,-1.0194,-1.1405,-1.2875,-1.3426,-1.3477,-1.3632,-1.4643,-1.494,-1.4832,-1.3935,-1.478,-1.5383,-1.4744,-1.6629,-1.8293,-1.848,-1.9408,-2.0287,-2.0867,-2.192,-2.2943,-2.3856,-2.4341,-2.5066,-2.6115,-2.6128,-2.6429,-2.7155,-2.8213,-2.8924,-2.9289,-3.0212,-3.0705,-3.0705,-3.0905,-3.0812,-3.0428,-3.0612,-3.0812,-3.1028,-3.1597,-3.2004,-3.2211,-3.2839,-3.315,-3.3324,-3.3514,-3.4004,-3.4557,-3.3862,-3.4336,-3.541,-3.5616,-3.6011,-3.6532,0.0,0.0,0.0,0.0,0.0,0.0,0.0,0.0,0.0,0.0,-0.43,-0.3639,0.0,0.0,0.0,0.0,0.0,0.0,0.0,0.3455,0.2109,0.0073,-0.1929,-0.3644,-0.4956,-0.4983,-0.5127,-0.5395,-0.7959,-0.9385,-0.9878,-1.2081,-1.3338,-1.3636,-1.3776,-1.3712,-1.3509,-1.2667,-1.2346,-1.2343,-1.1821,-1.1421,-1.1114,0.0,0.0,0.0,0.0,0.0,0.0,0.0,0.0,0.0,-1.1062,-1.1044,-1.0832,-1.0245,-1.0117,-1.0079,-0.9598,-0.9723,-1.0018,-1.0365,-1.1645,-1.3014,-1.3714,-1.422,-1.4738,-1.5453,-1.5599,-1.5325,-1.4291,-1.4881,-1.5323,-1.4511,-1.6181,-1.7747,-1.823,-1.8908,-1.9633,-2.0521,-2.1075,-2.1755,-2.2748,-2.3221,-2.3744,-2.4403,-2.464,-2.4999,-2.55,-2.652,-2.7364,-2.7933,-2.8747,-2.935,-2.9612,-2.9889,-2.9889,-2.9627,-2.9904,-2.9874,-2.9658,-3.0649,-3.1378,-3.1846,-3.2692,-3.315,-3.3203,-3.3309,-3.3546,-3.3862,-3.3467,-3.3814,-3.462,-3.5189,-3.5663,-3.6153,0.0,0.0,0.0,0.0,0.0,0.0,0.0,0.0,0.0,0.0,-0.3894,-0.3498,0.0,0.0,0.0,0.0,0.0,0.0,0.0,0.0,0.3147,0.0563,0.0145,-0.1505,-0.4661,-0.4911,-0.4983,-0.5031,-0.7816,-0.9741,-1.0917,-1.2349,-1.3292,-1.3782,-1.4657,-1.5036,-1.495,-1.3845,-1.3353,-1.3092,-1.2324,-1.1614,-1.1031,-1.15,0.0,0.0,0.0,0.0,0.0,0.0,0.0,0.0,-1.0629,-1.0538,-1.0303,-0.9928,-0.985,-0.9814,-0.9556,-0.9414,-0.9519,-1.042,-1.136,-1.2428,-1.3831,-1.5353,-1.6437,-1.6602,-1.6041,-1.5407,-1.4813,-1.5026,-1.5044,-1.4544,-1.5956,-1.7523,-1.8577,-1.8675,-1.9214,-2.0716,-2.0426,-2.054,-2.1511,-2.1605,-2.1874,-2.2547,-2.293,-2.3529,-2.4489,-2.509,-2.5867,-2.6918,-2.718,-2.7565,-2.8119,-2.8796,-2.8827,-2.8227,-2.8904,-2.8935,-2.8442,-2.975,-3.0741,-3.1564,-3.252,-3.2908,-3.2908,-3.313,-3.3214,-3.3214,-3.3277,-3.3309,-3.3467,-3.4794,-3.53,-3.5473,0.0,0.0,0.0,0.0,0.0,0.0,0.0,0.0,0.0,0.0,0.0,0.0,0.0,0.0,0.0,0.0,0.0,0.0,0.0,0.0,0.4135,0.3687,0.1306,-0.0804,-0.2485,-0.4175,-0.5028,-0.4986,-0.8164,-1.0213,-1.1118,-1.2494,-1.2898,-1.2396,-1.3299,-1.3297,-1.2587,-1.2244,-1.2037,-1.1926,-1.179,-1.1468,-1.1013,-1.1291,-1.0611,0.0,0.0,0.0,0.0,0.0,0.0,0.0,-1.0331,-1.0514,-1.0508,-0.976,-0.9712,-0.9814,-0.9556,-0.9414,-0.9412,-0.9782,-1.1727,-1.3662,-1.4611,-1.5797,-1.6379,-1.5322,-1.5651,-1.5658,-1.3803,-1.4604,-1.5212,-1.4056,-1.5468,-1.6734,-1.6949,-1.7289,-1.7773,-1.8443,-1.8753,-1.9423,-2.0795,-2.0932,-2.1201,-2.1859,-2.2245,-2.243,-2.244,-2.3825,-2.4713,-2.4851,-2.5892,-2.6305,-2.598,-2.6688,-2.6965,-2.6826,-2.7503,-2.8027,-2.8427,-2.9258,-3.0032,-3.0835,-3.1283,-3.1432,-3.153,-3.2199,-3.2538,-3.255,-3.3087,-3.3309,-3.3403,-3.4225,-3.4525,-3.4652,0.0,0.0,0.0,0.0,0.0,0.0,0.0,0.0,0.0,0.0,0.0,0.0,0.0,0.0,0.0,0.0,0.0,0.0,0.0,0.0,0.3941,0.313,0.1469,-0.0161,-0.1789,-0.3214,-0.4232,-0.5026,-0.7681,-0.9372,-1.0358,-1.2113,-1.2687,-1.2283,-1.3346,-1.3358,-1.2648,-1.2439,-1.2196,-1.2075,-1.1675,-1.1211,-1.0773,-1.1045,-1.0301,-0.9168,-0.9392,0.0,0.0,0.0,0.0,0.0,0.0,0.0,-1.0012,-0.9604,-0.958,-0.9652,-0.9321,-0.9139,-0.9269,-1.0002,-1.1806,-1.3601,-1.4237,-1.5151,-1.5602,-1.4419,-1.5237,-1.5535,-1.3497,-1.4359,-1.4919,-1.3322,-1.4469,-1.5638,-1.5831,-1.6277,-1.6785,-1.7394,-1.8071,-1.8874,-1.9847,-2.0117,-2.0363,-2.0707,-2.1044,-2.1255,-2.1263,-2.2355,-2.3148,-2.362,-2.438,-2.4955,-2.5318,-2.5687,-2.5872,-2.5887,-2.658,-2.7272,-2.795,-2.8965,-2.9612,-3.0052,-3.0565,-3.0791,-3.0904,-3.1829,-3.2215,-3.2293,-3.304,-3.3309,-3.3388,-3.4051,-3.4288,-3.4399,0.0,0.0,0.0,0.0,0.0,0.0,0.0,0.0,0.0,0.0,0.0,0.0,0.0,0.0,0.0,0.0,0.0,0.0,0.0,0.0,0.0,0.1841,0.1617,0.063,-0.1341,-0.2275,-0.3522,-0.5257,-0.7068,-0.8454,-0.9538,-1.1671,-1.2563,-1.2593,-1.3628,-1.3797,-1.3216,-1.2877,-1.2618,-1.238,-1.1648,-1.1012,-1.0562,-1.074,-0.9911,-0.8763,-0.9069,-0.8689,-0.8174,-0.899,0.0,0.0,0.0,0.0,-0.9544,-0.9496,-0.9484,-0.935,-0.9081,-0.8871,-0.8997,-1.0116,-1.148,-1.2726,-1.3162,-1.4018,-1.4517,-1.3871,-1.471,-1.4965,-1.337,-1.4081,-1.441,-1.2917,-1.3832,-1.4812,-1.5139,-1.5596,-1.615,-1.6908,-1.7729,-1.8486,-1.9064,-1.9398,-1.9617,-1.969,-2.0015,-2.0294,-2.0513,-2.1048,-2.1763,-2.2641,-2.2888,-2.3565,-2.4779,-2.4918,-2.4964,-2.4979,-2.5687,-2.6441,-2.7257,-2.8258,-2.8904,-2.9273,-2.9979,-3.0247,-3.0309,-3.1315,-3.1715,-3.1844,-3.2767,-3.3119,-3.3198,-3.3878,-3.4115,-3.4209,0.0,0.0,0.0,0.0,0.0,0.0,0.0,0.0,0.0,0.0,-0.4827,-0.4303,0.0,0.0,0.0,0.0,0.0,0.0,0.4268,0.0,0.0,0.3868,0.2864,0.1856,0.0889,-0.1502,-0.3917,-0.6295,-0.738,-0.8528,-0.9756,-1.1506,-1.2295,-1.2228,-1.2817,-1.2759,-1.2067,-1.1877,-1.1837,-1.1925,-1.1391,-1.0992,-1.081,-1.06,-0.9758,-0.8654,-0.8088,-0.7938,-0.7934,-0.8179,-0.8644,0.0,0.0,0.0,-0.9778,-0.955,-0.9285,-0.9081,-0.9017,-0.8667,-0.8472,-0.8876,-1.0187,-1.1357,-1.1521,-1.2825,-1.394,-1.3564,-1.395,-1.4042,-1.3045,-1.3533,-1.4016,-1.3726,-1.4495,-1.5109,-1.5132,-1.5499,-1.5963,-1.6424,-1.698,-1.7773,-1.8974,-1.9139,-1.9325,-1.969,-2.0015,-2.008,-1.9861,-2.0737,-2.1259,-2.1265,-2.1865,-2.2324,-2.2686,-2.3271,-2.3563,-2.3579,-2.4256,-2.5272,-2.6503,-2.6072,-2.6842,-2.855,-2.8773,-2.8852,-2.8947,-2.9777,-3.0172,-3.0411,-3.175,-3.2305,-3.2487,-3.3182,-3.3435,-3.3451,0.0,0.0,0.0,0.0,0.0,0.0,0.0,0.0,0.0,0.0,0.0,-0.4298,0.0,0.0,0.0,-0.0205,0.1902,0.3398,0.4267,0.4577,0.449,0.405,0.3224,0.1983,0.0159,-0.1379,-0.3505,-0.6362,-0.7376,-0.8542,-0.9796,-1.1375,-1.2294,-1.2682,-1.2694,-1.2459,-1.2123,-1.1867,-1.17,-1.1597,-1.1228,-1.0914,-1.0754,-1.0339,-0.9841,-0.9199,-0.8529,-0.828,-0.828,-0.8412,-0.8575,-0.8853,-0.9485,0.0,0.0,0.0,-0.8888,-0.8495,-0.8112,-0.7812,-0.7729,-0.8255,-0.9216,-1.0201,-1.0749,-1.1669,-1.256,-1.2851,-1.2963,-1.2971,-1.26,-1.3307,-1.3755,-1.3033,-1.3782,-1.4429,-1.4357,-1.4769,-1.5303,-1.5964,-1.6689,-1.745,-1.8305,-1.8822,-1.9176,-1.9362,-1.9711,-1.9854,-1.9726,-2.0125,-2.0546,-2.0933,-2.122,-2.1668,-2.2225,-2.2532,-2.2893,-2.3302,-2.3594,-2.4256,-2.521,-2.4902,-2.5872,-2.7842,-2.7874,-2.8137,-2.8539,-2.9366,-2.9793,-2.9984,-3.1087,-3.1565,-3.176,-3.2471,-3.2724,-3.2771,0.0,0.0,0.0,0.0,0.0,0.0,0.0,0.0,0.0,0.0,0.0,0.0,0.0,0.0,0.0,0.0,0.1289,0.2729,0.43,0.4552,0.4431,0.4065,0.3379,0.1971,-0.0306,-0.1267,-0.3215,-0.622,-0.7352,-0.8542,-0.9796,-1.1267,-1.2286,-1.3033,-1.2719,-1.2555,-1.2426,-1.2131,-1.185,-1.161,-1.1169,-1.0857,-1.0633,-1.0155,-0.9926,-0.9701,-0.8893,-0.8712,-0.8716,-0.87,-0.8706,-0.8818,-0.935,-0.9484,0.0,0.0,0.0,-0.7782,-0.7068,-0.6914,-0.7069,-0.7674,-0.8448,-0.9295,-1.0166,-1.0642,-1.1196,-1.222,-1.2232,-1.2082,-1.219,-1.2986,-1.3369,-1.2638,-1.3157,-1.37,-1.38,-1.4073,-1.4652,-1.5522,-1.6275,-1.6995,-1.7571,-1.8422,-1.8988,-1.9101,-1.9472,-1.969,-1.969,-1.969,-2.0002,-2.0602,-2.0617,-2.1046,-2.1904,-2.1904,-2.2317,-2.304,-2.2686,-2.2978,-2.3794,-2.3625,-2.4656,-2.6626,-2.698,-2.7626,-2.8442,-2.9033,-2.9381,-2.959,-3.036,-3.0741,-3.0984,-3.1678,-3.2108,-3.2396,0.0,0.0,0.0,0.0,0.0,0.0,0.0,0.0,0.0,0.0,0.0,0.0,-0.4298,-0.4211,-0.3053,-0.0269,0.1311,0.2874,0.4691,0.4749,0.4588,0.4354,0.3641,0.0,0.0728,-0.0894,-0.3169,-0.6214,-0.7364,-0.8542,-0.9796,-1.1267,-1.2204,-1.2693,-1.292,-1.2821,-1.2523,-1.2344,-1.2271,-1.2184,-1.1336,-1.0857,-1.0633,-1.0155,-0.9926,-0.967,-0.8829,-0.8899,-0.9356,-0.87,-0.8899,-0.9484,-0.9484,-0.9484,-0.9414,0.0,0.0,0.0,-0.6218,-0.6354,-0.68,-0.6997,-0.7836,-0.8783,-0.9614,-0.9872,-1.0321,-1.1832,-1.1692,-1.1458,-1.1952,-1.2311,-1.2714,-1.3269,-1.3114,-1.3157,-1.37,-1.3813,-1.4186,-1.5017,-1.5579,-1.6201,-1.7066,-1.7987,-1.8707,-1.9064,-1.9472,-1.969,-1.969,-1.969,-1.9741,-1.9858,-1.9858,-2.0261,-2.1038,-2.1149,-2.1544,-2.2332,-2.1075,-2.1152,-2.2378,-2.1732,-2.2548,-2.4548,-2.5857,-2.718,-2.8411,-2.8442,-2.8539,-2.8745,-2.9428,-2.984,-3.0129,-3.0838,-3.158,-3.2317,0.0,0.0,0.0,0.0,0.0,0.0,0.0,0.0,0.0,0.0,0.0,0.0,0.0,-0.4324,-0.3498,-0.1515,-0.007,0.1542,0.3367,0.4341,0.4526,0.37,0.3391,0.2192,-0.0076,-0.1209,-0.3165,-0.5959,-0.6611,-0.7802,-0.9451,-1.0164,-1.1054,-1.1956,-1.2432,-1.2603,-1.2465,-1.2362,-1.2305,-1.2238,-1.155,-1.1202,-1.1081,-1.0419,-1.0053,-0.9862,-0.9472,-0.9408,-0.9484,-0.9221,-0.9285,-0.9484,-0.9484,-0.9215,-0.8619,-0.7377,-0.6535,-0.5951,-0.5488,-0.555,-0.583,-0.6626,-0.7052,-0.7601,-0.8723,-0.8809,-0.9069,-1.0661,-1.0505,-1.0397,-1.1383,-1.2078,-1.2464,-1.2384,-1.2653,-1.294,-1.3085,-1.3494,-1.4035,-1.4663,-1.5085,-1.5712,-1.6612,-1.7258,-1.7787,-1.8226,-1.8936,-1.9325,-1.9325,-1.9581,-1.9726,-1.9726,-1.9726,-1.9954,-2.0354,-2.0859,-2.1283,-2.1639,-2.1183,-2.1198,-2.1639,-2.1393,-2.2147,-2.3717,-2.4656,-2.6087,-2.7796,-2.8227,-2.8493,-2.8604,-2.8836,-2.9042,-2.9295,-2.9984,-3.0506,-3.0966,0.0,0.0,0.0,0.0,0.0,0.0,0.0,0.0,0.0,-0.5888,0.0,0.0,0.0,0.0,-0.3536,-0.1578,-0.1069,-0.0213,0.1277,0.2901,0.3422,0.2614,0.2812,0.1687,-0.1,-0.1607,-0.3127,-0.5497,-0.6112,-0.7313,-0.8937,-0.9482,-1.0343,-1.1534,-1.2001,-1.2251,-1.24,-1.2467,-1.2392,-1.2251,-1.1663,-1.1423,-1.1301,-1.0692,-1.0445,-1.0386,-1.0095,-0.9941,-0.9792,-0.9643,-0.9612,-0.9612,-0.9548,-0.8958,-0.8037,-0.6597,-0.5947,-0.5624,-0.5422,-0.5355,-0.555,-0.6474,-0.6675,-0.6999,-0.8231,-0.8236,-0.8431,-0.9958,-0.9875,-0.9875,-1.0938,-1.1554,-1.1882,-1.1676,-1.1991,-1.2319,-1.2508,-1.2949,-1.3505,-1.4201,-1.4617,-1.5266,-1.6163,-1.6756,-1.7286,-1.7747,-1.863,-1.9101,-1.9101,-1.9457,-1.969,-1.969,-1.969,-1.9762,-1.9919,-2.0451,-2.0788,-2.0896,-2.0931,-2.0967,-2.0967,-2.0967,-2.1686,-2.2994,-2.3671,-2.5133,-2.7088,-2.7534,-2.7889,-2.82,-2.82,-2.8435,-2.8794,-2.923,-2.9639,-3.0112,0.0,0.0,0.0,0.0,0.0,0.0,0.0,0.0,-0.5899,-0.5899,0.0,0.0,0.0,0.0,0.0,-0.0379,-0.1627,-0.2186,-0.1382,0.0436,0.138,0.1237,0.1864,0.0905,-0.1886,-0.1931,-0.2971,-0.5012,-0.5937,-0.7067,-0.8418,-0.9075,-1.0085,-1.1414,-1.1596,-1.1853,-1.2197,-1.2579,-1.2565,-1.2251,-1.167,-1.143,-1.1328,-1.0902,-1.0894,-1.1096,-1.0689,-1.046,-1.0422,-0.9955,-0.9804,-0.9753,-0.956,-0.877,-0.7787,-0.6937,-0.6408,-0.6079,0.0,0.0,0.0,-0.6544,-0.6675,-0.6999,-0.8166,-0.8236,-0.8431,-0.9958,-0.9952,-0.9974,-1.0654,-1.0758,-1.0928,-1.1312,-1.111,-1.1217,-1.2058,-1.2206,-1.2598,-1.3668,-1.4201,-1.4824,-1.57,-1.6532,-1.7244,-1.7747,-1.8553,-1.9064,-1.9064,-1.9472,-1.969,-1.969,-1.969,-1.9726,-1.9797,-1.9919,-2.0025,-2.01,-2.022,-2.0304,-2.0304,-2.035,-2.109,-2.2332,-2.3025,-2.4471,-2.6334,-2.6334,-2.6734,-2.7365,-2.738,-2.789,-2.8558,-2.8573,-2.9088,-2.9889,0.0,0.0,0.0,0.0,0.0,-0.695,-0.7085,-0.6539,-0.6128,0.0,0.0,0.0,-0.286,-0.2886,-0.3176,-0.3563,-0.407,-0.3599,-0.2019,-0.0746,-0.0075,-0.015,0.0301,-0.0456,-0.2478,-0.2804,-0.3565,-0.4885,-0.5147,-0.5832,-0.6957,-0.7689,-0.8655,-0.9898,-1.0785,-1.12,-1.1333,-1.2098,-1.2378,-1.2271,-1.1897,-1.1617,-1.139,-1.1036,-1.0778,-1.0529,-1.0387,-1.0232,-1.0091,-1.0015,-0.9993,-0.9958,-0.9279,-0.8367,-0.7517,-0.7186,-0.64,-0.5815,-0.6141,0.0,0.0,0.0,0.0,0.0,-0.7129,-0.7456,-0.7912,-0.8823,-0.8742,-0.8877,-0.9893,-1.0224,-1.0371,-1.0491,-1.0737,-1.1124,-1.1769,-1.2058,-1.2491,-1.3266,-1.3752,-1.4362,-1.5232,-1.5522,-1.6008,-1.6808,-1.734,-1.7787,-1.8147,-1.886,-1.9398,-1.969,-1.969,-1.9726,-1.9797,-1.9848,-1.994,-2.01,-2.015,-2.022,-2.0335,-2.1322,-2.1932,-2.2347,-2.3517,-2.4348,-2.4948,-2.5933,-2.6457,-2.6718,-2.7211,-2.7566,-2.7781,-2.8275,-2.8649,-2.9042,0.0,0.0,0.0,0.0,0.0,-0.6518,-0.7146,-0.6514,-0.6021,0.0,0.0,0.0,0.0596,-0.1148,-0.3569,-0.6343,-0.594,-0.4999,-0.3908,-0.2979,-0.2368,-0.2145,-0.1756,-0.2226,-0.3671,-0.3748,-0.4269,-0.5287,-0.4933,-0.5379,-0.6475,-0.7194,-0.8061,-0.9118,-1.0266,-1.083,-1.0808,-1.1532,-1.1939,-1.2084,-1.167,-1.155,-1.1563,-1.1149,-1.0896,-1.0706,-1.0652,-1.062,-1.0555,-1.0258,-1.0097,-0.9903,-0.903,-0.8336,-0.7842,-0.7582,-0.6994,-0.647,-0.6929,-0.6671,-0.6218,-0.6218,0.0,0.0,-0.6675,-0.7001,-0.7452,-0.8164,-0.8224,-0.8446,-0.929,-0.9816,-1.0094,-1.0034,-1.0668,-1.1262,-1.1521,-1.1719,-1.2157,-1.3064,-1.342,-1.3941,-1.5017,-1.5108,-1.5501,-1.6436,-1.6883,-1.7409,-1.8068,-1.8745,-1.9213,-1.9435,-1.9603,-1.9726,-1.9762,-1.9797,-1.9869,-1.9975,-2.0065,-2.015,-2.0266,-2.1378,-2.1934,-2.2063,-2.3329,-2.3917,-2.4097,-2.5063,-2.5656,-2.601,-2.6688,-2.7134,-2.7473,-2.815,-2.8444,-2.8633,0.0,0.0,-0.4672,-0.5892,-0.5705,-0.5882,-0.7267,-0.6474,-0.583,0.0,-0.2989,0.0671,0.4658,0.0721,-0.3947,-0.8155,-0.711,-0.6274,-0.6355,-0.5547,-0.491,-0.4441,-0.4042,-0.4274,-0.5217,-0.4988,-0.522,-0.6066,-0.5275,-0.5427,-0.6433,-0.711,-0.7819,-0.8745,-0.9916,-1.0455,-1.0486,-1.0937,-1.1329,-1.173,-1.1243,-1.1356,-1.1757,-1.1202,-1.1136,-1.1296,-1.1035,-1.1109,-1.1188,-1.0574,-1.0142,-0.974,-0.8916,-0.8641,-0.849,-0.8242,-0.7852,-0.7652,-0.7987,-0.7461,-0.6806,-0.6741,-0.6346,0.0,-0.6609,-0.6737,-0.7052,-0.7928,-0.8193,-0.8387,-0.8903,-0.9643,-1.0094,-0.9923,-1.0801,-1.1399,-1.1285,-1.131,-1.1763,-1.2929,-1.3122,-1.3637,-1.4823,-1.5017,-1.5367,-1.6293,-1.6756,-1.745,-1.8383,-1.8745,-1.8988,-1.9101,-1.9384,-1.9603,-1.9654,-1.969,-1.969,-1.969,-1.9889,-1.9995,-2.0061,-2.0803,-2.1326,-2.168,-2.2717,-2.3303,-2.3551,-2.3952,-2.4572,-2.5244,-2.5937,-2.6673,-2.738,-2.8071,-2.8348,-2.8488,0.0,-0.4363,-0.4537,-0.5418,-0.556,-0.5913,-0.6923,-0.6504,-0.6064,-0.6293,-0.1817,0.2512,0.5229,0.1961,-0.2439,-0.7323,-0.6831,-0.6542,-0.7332,-0.6369,-0.5912,-0.6273,-0.6346,-0.6583,-0.6904,-0.7214,-0.7378,-0.7319,-0.6228,-0.5698,-0.5757,-0.6441,-0.7143,-0.7934,-0.8922,-0.9691,-1.0274,-1.0457,-1.0708,-1.0968,-1.1222,-1.141,-1.1476,-1.1129,-1.0882,-1.0722,-1.0732,-1.0681,-1.0748,-1.0673,-1.0425,-1.0155,-0.9921,-0.9302,-0.8742,-0.9087,-0.8571,-0.7982,-0.8317,-0.8052,-0.7591,-0.6872,-0.6609,0.0,-0.6675,-0.6384,-0.649,-0.7723,-0.794,-0.808,-0.8862,-0.9718,-1.0261,-1.0373,-1.0887,-1.1233,-1.1011,-1.1231,-1.161,-1.2292,-1.2677,-1.3208,-1.3999,-1.4326,-1.4789,-1.5334,-1.6151,-1.6993,-1.7868,-1.7988,-1.8383,-1.9064,-1.886,-1.8898,-1.9213,-1.925,-1.9087,-1.8846,-1.9207,-1.9479,-1.9617,-1.9979,-2.072,-2.164,-2.2049,-2.2555,-2.3024,-2.3157,-2.3713,-2.4583,-2.5334,-2.6046,-2.6673,-2.7406,-2.7959,-2.8427,-0.4384,-0.4384,-0.4697,-0.5737,-0.5525,-0.5667,-0.7021,-0.6446,-0.5947,-0.6268,-0.0402,0.4318,0.5396,0.1922,-0.224,-0.6788,-0.766,-0.8173,-0.8594,-0.8581,-0.8607,-0.8642,-0.8869,-0.9025,-0.911,-0.911,-0.8861,-0.8221,-0.7285,-0.635,-0.5549,-0.6496,-0.7171,-0.742,-0.874,-0.953,-1.0021,-1.0489,-1.0738,-1.0933,-1.0989,-1.1082,-1.1176,-1.0889,-1.0752,-1.0624,-1.0624,-1.0624,-1.0601,-1.0699,-1.0542,-1.027,-1.0147,-0.9703,-0.9268,-0.9542,-0.9087,-0.8565,-0.87,-0.8506,-0.8052,-0.7391,-0.7064,0.0,0.0,-0.6542,-0.654,-0.7815,-0.7913,-0.7954,-0.8701,-0.955,-1.0166,-1.029,-1.0842,-1.1252,-1.1237,-1.1309,-1.1538,-1.1954,-1.2295,-1.2763,-1.354,-1.4146,-1.481,-1.5724,-1.6204,-1.681,-1.745,-1.747,-1.776,-1.8422,-1.8461,-1.8592,-1.8784,-1.8784,-1.8707,-1.8553,-1.8808,-1.8945,-1.9087,-1.9951,-2.0518,-2.0893,-2.1989,-2.251,-2.2586,-2.2799,-2.3201,-2.3686,-2.4769,-2.5319,-2.5749,-2.7036,-2.768,-2.8008,-0.4246,-0.4511,-0.5105,-0.6323,-0.5651,-0.5551,-0.7226,-0.6331,-0.5541,-0.5462,0.1093,0.5612,0.5474,0.1624,-0.2719,-0.7188,-0.8864,-0.9776,-1.0044,-1.0758,-1.1059,-1.0724,-1.0908,-1.0983,-1.1015,-1.0605,-0.9909,-0.903,-0.8148,-0.6976,-0.5775,-0.6842,-0.7424,-0.7516,-0.8628,-0.9469,-0.9993,-1.0387,-1.0729,-1.097,-1.0705,-1.0855,-1.1122,-1.0775,-1.0705,-1.0698,-1.0645,-1.0624,-1.0665,-1.0889,-1.0705,-1.045,-1.0379,-1.0194,-0.9937,-0.9817,-0.9478,-0.9151,-0.9017,-0.8829,-0.8506,-0.7977,-0.7587,-0.733,0.0,0.0,0.0,-0.7834,-0.7936,-0.799,-0.8651,-0.9363,-0.9925,-1.0227,-1.0811,-1.1346,-1.1581,-1.1527,-1.1589,-1.1781,-1.195,-1.2391,-1.3298,-1.4155,-1.5157,-1.6405,-1.6407,-1.6582,-1.7029,-1.702,-1.7175,-1.7652,-1.8068,-1.8305,-1.8344,-1.8383,-1.8344,-1.8266,-1.8383,-1.8447,-1.8539,-1.979,-2.0175,-1.9975,-2.1709,-2.2218,-2.1909,-2.2377,-2.2618,-2.2732,-2.3961,-2.4626,-2.497,-2.6474,-2.7193,-2.7565,-0.4025,-0.4833,-0.5745,-0.6559,-0.6159,-0.5999,-0.7076,-0.6173,-0.4607,-0.2569,0.2348,0.5672,0.5708,0.1742,-0.3396,-0.9678,-0.9678,-1.0046,-1.163,-1.12,-1.1089,-1.1631,-1.1773,-1.1786,-1.1696,-1.1206,-1.0751,-1.0269,-0.8456,-0.7347,-0.7028,-0.6978,-0.7641,-0.8721,-0.8033,-0.8806,-1.0562,-0.9668,-0.9702,-1.0311,-1.0573,-1.1141,-1.171,-1.1156,-1.0942,-1.0909,-1.0719,-1.0624,-1.0728,-1.1654,-1.1479,-1.1008,-1.1516,-1.119,-1.0502,-0.9937,-0.974,-0.9606,-0.9151,-0.8952,-0.8823,-0.8511,-0.8047,-0.7712,-0.7852,0.0,-0.6698,-0.7817,0.0,-0.796,-0.8803,0.0,0.0,-1.076,-1.0968,-1.1254,-1.1886,-1.1924,-1.1946,-1.1886,-1.167,-1.1995,-1.3292,-1.437,-1.5431,-1.6439,-1.6118,-1.6056,-1.6536,-1.6578,-1.674,-1.7162,-1.7284,-1.7516,-1.7868,-1.7868,-1.772,-1.7352,-1.772,-1.7948,-1.8082,-1.8464,-1.8861,-1.9182,-2.0288,-2.0729,-2.0677,-2.1288,-2.1554,-2.1671,-2.2832,-2.3912,-2.4829,-2.5183,-2.6199,-2.7515,-0.3894,-0.483,-0.5878,-0.6744,-0.6621,-0.6596,-0.7452,-0.6394,-0.4582,-0.2089,0.0606,0.2325,0.2183,0.0,-0.3585,-0.9051,-1.0343,-1.1192,-1.2064,-1.245,-1.2792,-1.3339,-1.3262,-1.3096,-1.3051,-1.2251,-1.1346,-1.0485,-0.9332,-0.818,-0.7058,-0.7207,-0.7753,-0.8617,-0.8298,-0.8899,-1.0203,-1.0212,-1.0297,-1.0449,-1.088,-1.1224,-1.1501,-1.0963,-1.0742,-1.0728,-1.0665,-1.0624,-1.0701,-1.1509,-1.156,-1.1432,-1.2052,-1.1672,-1.0964,-1.0568,-1.0168,-0.967,-0.8882,-0.8689,-0.856,-0.7977,-0.7852,-0.7847,-0.7722,0.0,-0.7521,-0.8182,0.0,0.0,0.0,0.0,0.0,0.0,-1.0836,-1.1099,-1.22,-1.1972,-1.1719,-1.1688,-1.168,-1.2241,-1.3663,-1.4717,-1.5475,-1.605,-1.5913,-1.5871,-1.608,-1.5818,-1.602,-1.674,-1.6795,-1.7031,-1.7434,-1.7434,-1.7352,-1.7199,-1.7352,-1.7475,-1.7529,-1.81,-1.8639,-1.9219,-2.007,-2.0637,-2.1023,-2.1266,-2.1423,-2.145,-2.1938,-2.281,-2.4035,-2.5121,-2.5962,-2.6654,-0.377,-0.4987,-0.6205,-0.722,-0.7375,-0.7338,-0.7521,-0.6348,-0.4768,-0.2536,-0.1233,-0.0728,-0.1104,-0.1922,-0.4219,-0.8617,-1.051,-1.1612,-1.2194,-1.3118,-1.3925,-1.4388,-1.4244,-1.414,-1.3999,-1.2736,-1.1527,-1.0519,-0.9583,-0.8563,-0.7317,-0.7627,-0.8131,-0.8821,-0.8623,-0.9141,-1.0176,-1.0413,-1.0459,-1.0442,-1.0849,-1.1026,-1.0968,-1.0758,-1.0628,-1.0624,-1.0807,-1.087,-1.101,-1.1892,-1.2047,0.0,-1.2779,-1.2414,-1.1718,-1.1483,-1.085,-1.011,-0.957,-0.8988,-0.8484,-0.8086,0.0,0.0,0.0,0.0,0.0,0.0,-0.8517,0.0,0.0,0.0,-0.9768,-1.085,0.0,-1.0998,-1.2381,-1.2115,-1.1781,-1.1781,-1.2028,-1.266,-1.378,-1.4802,-1.5454,-1.567,-1.5774,-1.5758,-1.5626,-1.5279,-1.5412,-1.6076,-1.6392,-1.665,-1.6989,-1.7157,-1.7199,-1.7199,-1.7199,-1.7199,-1.7225,-1.7942,-1.8544,-1.9012,-1.994,-2.0644,-2.1097,-2.1259,-2.1375,-2.1437,-2.1599,-2.2305,-2.3336,-2.4692,-2.549,-2.6002,-0.3751,-0.548,-0.7036,-0.7932,-0.8548,-0.8444,-0.6987,-0.5919,-0.4876,-0.3701,-0.2511,-0.2202,-0.303,-0.3672,-0.5491,-0.9248,-0.9872,-1.0722,-1.2174,-1.2857,-1.3404,-1.4103,-1.4388,-1.4374,-1.4132,-1.2249,-1.1036,-1.0479,-0.8936,-0.8132,-0.808,-0.8263,-0.8867,-0.9809,-0.8911,-0.9316,-1.0611,-0.9738,-0.957,-0.9952,-1.0159,-1.0267,-1.0373,-1.0621,-1.0672,-1.0688,-1.124,0.0,0.0,-1.3413,-1.3529,0.0,0.0,0.0,0.0,-1.2545,-1.1903,-1.1358,0.0,0.0,0.0,-0.9482,0.0,0.0,0.0,0.0,-0.8517,0.0,0.0,-0.8711,-0.9356,-0.9262,-0.9531,-1.0808,-1.0793,0.0,0.0,-1.2605,-1.2589,-1.2589,-1.2773,-1.3049,-1.3203,-1.4571,-1.5407,-1.5406,-1.5669,-1.5618,-1.5127,-1.5105,-1.5108,-1.5153,-1.6032,-1.6522,-1.6522,-1.6976,-1.7199,-1.7199,-1.7199,-1.7199,-1.7225,-1.7942,-1.8232,-1.8236,-1.9582,-2.0227,-2.0294,-2.0952,-2.1277,-2.1477,-2.2047,-2.2671,-2.3189,-2.3282,-2.4391,-2.5893,-0.5677,-0.7626,-0.9057,-0.8959,-0.9626,-0.9509,-0.7474,-0.6373,-0.593,-0.6296,-0.648,-0.6979,-0.7835,-0.865,-0.9352,-0.9995,-1.0495,-1.1384,-1.2874,-1.3124,-1.3995,-1.5763,-1.5701,-1.5498,-1.52,-1.3202,-1.1632,-1.049,-0.8854,-0.8116,-0.8097,-0.8202,-0.8734,-0.9606,-0.9145,-0.9449,-1.0137,-1.0014,-0.9902,-0.994,-1.0007,-1.0145,-1.0451,-1.0419,-1.0769,-1.124,-1.1421,-1.1787,0.0,-1.3464,-1.3691,-1.3629,-1.4499,-1.4187,-1.3411,-1.3208,-1.2565,0.0,0.0,0.0,-0.9196,-0.9053,0.0,0.0,0.0,0.0,0.0,0.0,0.0,0.0,-0.9356,-0.9076,-0.922,-1.0773,-1.0899,-1.1243,0.0,-1.292,-1.3216,-1.3216,-1.292,-1.3,-1.3637,-1.4246,-1.4729,-1.5075,-1.5252,-1.5137,-1.4646,-1.4909,-1.5079,-1.5119,-1.5728,-1.6059,-1.602,-1.6182,-1.6411,-1.6735,-1.6735,-1.6905,-1.7212,-1.745,-1.7807,-1.8271,-1.9099,-1.9748,-2.0254,-2.0938,-2.1229,-2.1291,-2.1591,-2.2088,-2.2712,-2.3526,-2.4436,-2.5342,-0.7065,-0.9045,-1.0551,-1.0684,-1.113,-1.0831,-0.8988,-0.795,-0.7514,-0.8072,-0.873,-0.932,-0.9701,-1.0229,-1.0417,-1.0179,-1.09,-1.1831,-1.3003,-1.3678,-1.4774,-1.6685,-1.6589,-1.625,-1.5807,-1.3753,-1.1916,-1.0353,-0.8813,-0.809,-0.8102,-0.82,-0.862,-0.9343,-0.9419,-0.9583,-0.9752,-1.0149,-1.0054,-0.973,-0.973,-0.9933,-1.0236,0.0,-1.0805,-1.1706,0.0,-1.2458,-1.3009,-1.3803,-1.4052,-1.4172,-1.4852,-1.4505,-1.3847,-1.3829,-1.3076,-1.2198,-1.169,-1.0446,0.0,-0.8904,-0.8588,0.0,-0.8122,0.0,-0.9045,0.0,0.0,0.0,0.0,-0.9319,-0.9529,-1.1024,-1.1203,-1.1483,0.0,-1.3094,-1.3511,-1.3511,-1.3398,-1.3519,-1.4121,-1.4503,-1.4785,-1.4968,-1.5257,-1.53,-1.4919,-1.5143,-1.5312,-1.5328,-1.562,-1.5811,-1.5806,-1.5796,-1.5964,-1.625,-1.625,-1.6411,-1.671,-1.671,-1.7157,-1.8013,-1.8559,-1.9284,-2.0173,-2.0806,-2.1144,-2.1229,-2.1277,-2.1876,-2.2726,-2.3459,-2.4313,-2.5061,-0.806,-0.9863,-1.1614,-1.3192,-1.3025,-1.2376,-1.1364,-1.0506,-0.9662,-0.907,-0.9163,-0.9161,-0.8879,-0.8794,-0.9146,-1.0002,-1.1077,-1.2063,-1.2839,-1.4376,-1.5756,-1.6902,-1.7067,-1.6768,-1.5972,-1.4079,-1.2089,-1.0058,-0.8721,-0.8125,-0.8102,-0.8327,-0.8595,-0.8988,-0.959,-0.9668,-0.9405,-1.0006,-0.997,-0.9502,-0.949,-0.963,-0.9841,-0.9996,-1.0857,-1.2178,-1.3087,-1.3502,-1.3692,-1.4451,-1.4678,-1.4737,-1.5089,-1.4697,-1.4138,-1.4326,-1.3412,-1.2372,-1.2483,-1.0854,-0.9183,-0.9202,0.0,0.0,0.0,0.0,-0.9169,0.0,0.0,0.0,0.0,-1.0115,-1.0316,-1.1556,-1.1609,-1.1759,-1.2512,-1.3094,-1.3502,-1.3571,-1.4172,-1.4529,-1.4529,-1.5138,-1.5462,-1.5154,-1.5737,-1.5988,-1.5807,-1.5693,-1.5693,-1.5785,-1.5822,-1.5829,-1.5784,-1.5761,-1.5768,-1.5788,-1.5788,-1.5788,-1.5788,-1.5788,-1.6333,-1.737,-1.7903,-1.8849,-1.9943,-2.0575,-2.0974,-2.118,-2.118,-2.2019,-2.3189,-2.3256,-2.4042,-2.5005,-0.9458,-1.3013,-1.6387,-1.7682,-1.6294,-1.448,-1.2879,-1.1991,-1.1352,-1.1032,-1.0514,-1.0485,-1.1428,-1.1725,-1.188,-1.1883,-1.2886,-1.364,-1.4005,-1.5233,-1.6604,-1.7873,-1.8611,-1.8324,-1.6946,-1.5011,-1.2755,-1.0387,-0.8727,-0.7923,-0.8102,-0.8178,-0.8444,-0.891,-0.929,-0.9384,-0.9349,-0.9455,-0.9445,-0.9412,-0.9491,-0.9849,-1.0423,0.0,-1.1467,-1.2542,-1.2701,-1.3381,-1.4213,-1.4255,-1.4325,-1.444,-1.4725,-1.4429,-1.4026,-1.4395,-1.3895,-1.3177,-1.3113,-1.2166,-1.1184,-1.1264,-1.0472,-0.9722,0.0,0.0,0.0,0.0,0.0,0.0,0.0,0.0,-1.0058,-1.1556,-1.2112,-1.2334,-1.2552,-1.3094,-1.3692,-1.4172,-1.4765,-1.5177,-1.5177,-1.5117,-1.5219,-1.568,-1.5637,-1.5563,-1.5487,-1.5796,-1.587,-1.5682,-1.5992,-1.5866,-1.53,-1.53,-1.5289,-1.5277,-1.5277,-1.5445,-1.5788,-1.5788,-1.5949,-1.6264,-1.7203,-1.7991,-1.8729,-1.981,-2.0549,-2.0974,-2.1144,-2.2019,-2.3297,-2.4232,-2.4747,-2.5005,-1.0816,-1.4623,-1.8272,-1.9819,-1.9051,-1.7441,-1.5234,-1.3796,-1.2957,-1.3095,-1.2525,-1.2357,-1.3002,-1.3374,-1.3442,-1.2919,-1.3945,-1.4674,-1.4815,-1.5982,-1.721,-1.8357,-1.8896,-1.8359,-1.6643,-1.495,-1.2764,-1.0086,-0.8534,-0.7833,-0.7974,-0.8062,-0.8202,-0.8421,-0.906,-0.9166,-0.8867,-0.9138,-0.9382,-0.9525,-0.9498,-0.9796,0.0,-1.0458,-1.1255,-1.2397,-1.2398,-1.3211,-1.4176,-1.3932,-1.3904,-1.4033,-1.4423,-1.4162,-1.3795,-1.4202,-1.3866,-1.3317,-1.2997,-1.2459,-1.1963,-1.179,-1.132,-1.0946,-1.1184,-1.1253,-1.1347,0.0,0.0,0.0,0.0,0.0,-1.0674,-1.1935,-1.2375,-1.2621,-1.2621,-1.3094,-1.3631,-1.4052,-1.4874,-1.541,-1.541,-1.5491,-1.5746,-1.6147,-1.5972,-1.5879,-1.5987,-1.6221,-1.6231,-1.6138,-1.6439,-1.6278,-1.5647,-1.548,-1.5279,-1.5114,-1.489,-1.4915,-1.5175,-1.5175,-1.5311,-1.5549,-1.6634,-1.7521,-1.8289,-1.9447,-2.0283,-2.0964,-2.1425,-2.2072,-2.297,-2.4177,-2.4774,-2.5005,-1.2619,-1.5459,-1.8471,-2.067,-2.1192,-2.0528,-1.8244,-1.6,-1.4764,-1.5068,-1.463,-1.4142,-1.3767,-1.4305,-1.4318,-1.3566,-1.473,-1.5536,-1.5383,-1.6515,-1.7515,-1.8285,-1.8375,-1.7537,-1.5622,-1.4322,-1.2376,-0.9642,-0.8379,-0.7802,-0.7807,-0.7957,-0.7974,-0.7912,-0.8827,-0.8959,-0.8508,-0.8996,-0.9395,-0.9685,-0.9479,-0.9616,-0.9862,-0.9783,-1.0662,-1.1943,-1.2088,-1.2932,-1.3884,-1.3598,-1.3422,-1.3528,-1.3984,-1.3814,-1.3519,-1.3912,-1.3628,-1.3112,-1.2667,-1.2414,-1.2209,-1.1729,-1.1796,-1.1995,-1.2322,-1.2099,-1.187,-1.1952,-1.1369,-1.0879,0.0,0.0,-1.1652,-1.2493,-1.2589,-1.2605,-1.2557,-1.3042,-1.3449,-1.3519,-1.4519,0.0,-1.541,-1.6019,-1.6431,-1.6581,-1.6477,-1.6488,-1.6761,-1.6637,-1.6637,-1.6761,-1.6909,-1.6772,-1.6375,-1.6059,-1.5716,-1.529,-1.4799,-1.457,-1.4559,-1.4504,-1.4738,-1.5222,-1.6184,-1.7179,-1.8151,-1.9169,-2.0118,-2.0946,-2.1712,-2.2197,-2.262,-2.373,-2.4489,-2.5005,-1.6028,-1.7252,-1.8984,-2.188,-2.2004,-2.1916,-2.24,-1.9621,-1.7143,-1.6264,-1.515,-1.4492,-1.4482,-1.4957,-1.5042,-1.4321,-1.5511,-1.6133,-1.6004,-1.633,-1.6776,-1.7207,-1.7619,-1.6835,-1.4848,-1.4156,-1.2565,-1.0188,-0.9021,-0.8341,-0.8033,-0.7898,-0.7923,-0.8103,-0.8776,-0.928,-0.9504,-0.9052,-0.9282,-0.9825,-0.9267,-0.9309,-0.9584,-0.9494,-1.041,-1.1629,-1.1542,-1.2512,-1.3827,-1.3488,-1.3173,-1.303,-1.3164,-1.3145,-1.3193,-1.358,-1.3529,-1.3314,-1.3112,-1.3064,-1.3016,-1.2909,-1.2754,-1.2628,-1.2705,-1.292,-1.3164,-1.3467,-1.3173,-1.2965,-1.3201,0.0,0.0,-1.2814,-1.2723,0.0,0.0,-1.2747,-1.3255,-1.3484,-1.4172,-1.4824,-1.5352,-1.6019,-1.6431,-1.6431,-1.6431,-1.6431,-1.6488,-1.6431,-1.6477,0.0,-1.6751,-1.6877,0.0,0.0,-1.6361,-1.6262,-1.5804,-1.5524,-1.5563,-1.5159,-1.5252,-1.5686,-1.5862,-1.6559,-1.7587,-1.8172,-1.9376,-2.0937,-2.1185,-2.2233,-2.3676,-2.3987,-2.4489,-2.5005,-1.7949,-1.8224,-1.9067,-2.1728,-2.2567,-2.3005,0.0,-2.1984,-2.0404,-1.9178,-1.7808,-1.6829,-1.6596,-1.7048,-1.6964,-1.5872,-1.6288,-1.6604,-1.6648,-1.6515,-1.6565,-1.6973,-1.7216,-1.6355,-1.4287,-1.3725,-1.2497,-1.049,-0.9541,-0.8857,-0.8447,-0.834,-0.8439,-0.861,-0.9344,-0.9968,-1.0431,-0.982,0.0,-1.027,-0.9856,-0.9762,-0.9854,-0.974,-1.039,-1.1414,-1.1422,-1.2142,-1.3059,-1.303,-1.2742,-1.2525,-1.2763,-1.2852,-1.29,-1.3266,-1.3515,-1.361,-1.3515,-1.3752,-1.3978,-1.3978,-1.3884,-1.3779,-1.3779,-1.3789,-1.3757,-1.3646,-1.3466,-1.3391,-1.3691,-1.3259,0.0,0.0,0.0,0.0,0.0,-1.271,-1.2947,-1.326,-1.3692,-1.4231,-1.4883,-1.5536,-1.6019,-1.6374,-1.6077,-1.6009,-1.6374,-1.6384,-1.6431,0.0,0.0,0.0,-1.6797,0.0,-1.6776,-1.6765,-1.6123,-1.5905,-1.6175,-1.5705,-1.5607,-1.5796,-1.6036,-1.6632,-1.7468,-1.823,-1.9119,-2.0079,-2.0739,-2.1613,-2.267,-2.3621,-2.4244,-2.4598,-1.9399,-1.9399,-1.991,-2.1955,-2.3517,-2.44,-2.4111,-2.4204,-2.3627,-2.1714,-2.0227,-1.9147,-1.856,-1.8765,-1.8533,-1.7296,-1.6893,-1.6826,-1.7145,-1.6429,-1.617,-1.6708,-1.6422,-1.548,-1.3859,-1.3208,-1.2236,-1.0805,-1.0,0.0,-0.8832,-0.896,-0.916,-0.9455,-1.0045,-1.0649,0.0,0.0,-1.0403,-1.076,-1.0345,-1.0087,-1.0005,-1.005,-1.0576,-1.1312,-1.163,-1.21,-1.2611,-1.2818,-1.2559,-1.2175,-1.248,-1.2627,-1.2774,-1.3035,-1.342,-1.3821,-1.3821,-1.4197,-1.4662,-1.4662,-1.4662,-1.4662,-1.4662,-1.4419,-1.4129,-1.3705,-1.3457,-1.349,-1.4008,-1.3883,0.0,0.0,0.0,0.0,0.0,-1.2835,-1.2757,-1.2929,-1.3361,-1.3802,-1.428,-1.4896,-1.5497,-1.6115,-1.5753,-1.5736,-1.6374,-1.6291,-1.6322,0.0,0.0,-1.7042,-1.6875,0.0,-1.7105,-1.7094,-1.6472,-1.6373,-1.6602,-1.6134,-1.5992,-1.6153,-1.6404,-1.6846,-1.747,-1.8289,-1.8834,-1.9245,-2.0266,-2.1082,-2.1796,-2.3347,-2.4023,-2.4381,-2.0835,-2.1609,-2.2855,-2.3982,-2.5599,-2.6853,-2.7031,-2.7097,-2.5777,-2.2014,-2.0592,-1.9758,-1.9246,-1.8848,-1.8406,-1.7803,-1.7107,-1.6775,-1.7016,-1.5417,-1.4874,-1.5695,-1.4563,-1.378,-1.3535,-1.2663,-1.1866,-1.1262,-1.0252,-0.9581,0.0,-0.9706,-1.0201,-1.0778,0.0,0.0,0.0,-1.0466,-1.0308,-1.0982,-1.0056,-0.9604,-0.9528,-0.9976,-1.0779,-1.1637,-1.214,-1.2809,-1.3486,-1.3486,-1.2852,-1.2126,-1.2126,-1.2431,-1.2735,-1.2725,-1.3248,-1.3821,-1.3821,-1.4104,-1.4419,-1.4419,-1.4419,-1.4419,-1.4419,-1.4373,-1.4373,-1.4326,-1.3999,-1.4094,-1.5233,-1.4368,-1.3861,0.0,0.0,0.0,0.0,-1.2926,-1.2935,-1.2598,-1.3351,-1.3952,-1.3872,-1.4316,-1.4781,-1.5376,-1.5577,-1.5873,-1.6353,-1.598,-1.6136,-1.6894,-1.6785,-1.7021,-1.784,-1.7609,-1.7445,-1.7472,-1.7513,-1.7323,-1.6925,-1.6613,-1.671,-1.7114,-1.6699,-1.6841,-1.7324,-1.7423,-1.8081,-1.9076,-1.9725,-2.1109,-2.2729,-2.3547,-2.4271,-2.4924,0.0,0.0,0.0,0.0,0.0,0.0,0.0,-2.6904,-2.6193,-2.4073,-2.3166,-2.2467,-2.1861,-2.1322,-2.0459,-1.9052,-1.8319,-1.7456,-1.6424,-1.5469,-1.4975,-1.5081,-1.4334,-1.3756,-1.3373,-1.2994,-1.2516,0.0,0.0,0.0,0.0,0.0,0.0,0.0,0.0,-1.2694,-1.2976,-1.2535,-1.2444,-1.248,-1.1733,-1.1146,-1.0741,-1.1112,-1.1473,-1.1882,-1.2278,-1.2588,-1.2907,-1.3135,-1.289,-1.248,-1.248,-1.2382,-1.2323,-1.2323,-1.2715,-1.3152,-1.3152,-1.3716,-1.428,-1.428,-1.4419,-1.4569,-1.4569,-1.4466,-1.4373,-1.4373,-1.4519,-1.4822,-1.5604,-1.5467,-1.5404,0.0,0.0,0.0,0.0,0.0,-1.2723,-1.2798,-1.2888,-1.3129,-1.345,-1.3885,-1.4495,-1.5328,-1.528,-1.5598,-1.6363,-1.6208,-1.6394,-1.6966,0.0,-1.7353,-1.8412,-1.7949,-1.7974,-1.8419,-1.8104,-1.7809,-1.7442,-1.7009,-1.6973,-1.728,-1.7383,-1.7529,-1.7693,-1.7398,-1.7721,-1.8496,-1.9401,-2.0476,-2.164,-2.2815,-2.3505,-2.393,-2.4713,0.0,-2.497,0.0,-2.679,-2.7073,-2.7191,-2.716,-2.681,-2.5961,-2.5218,-2.4402,-2.356,-2.2914,-2.1857,-2.0096,-1.92,-1.7954,-1.6243,-1.5639,-1.5123,-1.4716,-1.4218,0.0,-1.357,-1.3104,-1.2734,-1.2499,-1.2819,0.0,0.0,0.0,0.0,0.0,-1.2765,-1.3514,-1.342,-1.3479,-1.3408,-1.3058,-1.253,-1.2044,-1.161,-1.1909,-1.2107,-1.2255,-1.2598,-1.2793,-1.2842,-1.3122,-1.3132,-1.291,-1.2774,-1.2529,-1.2274,-1.2126,-1.2382,-1.2676,-1.2676,-1.3382,-1.4082,-1.4082,-1.4373,-1.4616,-1.4616,-1.4512,-1.4373,-1.4373,-1.4766,-1.5258,-1.5687,-1.6155,-1.645,-1.6398,0.0,0.0,0.0,-1.3158,-1.2547,-1.2831,-1.2794,-1.294,-1.3283,-1.3793,-1.4315,-1.4859,-1.4811,-1.5226,-1.6386,-1.6083,-1.6372,0.0,0.0,0.0,-1.9215,-1.8628,-1.8488,-1.8733,-1.8319,-1.7977,-1.7637,-1.7329,-1.7282,-1.7473,-1.7841,-1.8089,-1.8174,-1.7693,-1.7781,-1.8298,-1.907,-1.9907,-2.0766,-2.1982,-2.2725,-2.3207,-2.5803,-2.6712,-2.7581,-2.7317,-2.789,-2.852,-2.8853,-2.8472,-2.7928,-2.7101,-2.6177,-2.497,-2.3502,-2.2903,-2.2058,-2.0627,-1.9386,-1.8121,-1.6793,-1.5898,-1.5182,0.0,0.0,-1.3824,-1.4087,-1.2804,-1.2278,-1.2681,0.0,0.0,-1.1707,0.0,-1.2697,-1.2688,-1.2697,-1.2705,-1.2688,-1.2366,-1.2206,-1.2172,-1.1862,-1.1601,-1.1569,-1.2178,-1.2482,-1.2706,-1.3324,-1.3668,-1.3773,-1.3773,-1.3716,-1.3478,-1.2861,-1.2676,-1.2627,-1.2224,-1.2382,-1.2676,-1.2676,-1.3248,-1.3821,-1.3821,-1.4104,-1.4373,-1.4373,-1.4373,-1.4373,-1.4373,-1.4766,-1.5258,-1.5687,-1.6155,-1.6623,-1.6925,0.0,0.0,0.0,-1.3095,0.0,-1.2447,-1.334,-1.3829,-1.3323,-1.4007,-1.4274,-1.3768,0.0,0.0,0.0,0.0,0.0,-1.8589,-1.8302,0.0,-2.0343,-1.9738,-1.8945,-1.8129,-1.7967,-1.7714,-1.7294,-1.7491,-1.7688,-1.7873,-1.7873,-1.8179,-1.8643,-1.8185,-1.8272,-1.8676,-1.8687,-1.9508,-2.0644,-2.1191,-2.2113,-2.3088,-2.7135,-2.7931,-2.8592,-2.8566,-2.8694,-2.8763,-2.8795,-2.8365,-2.7915,-2.7278,-2.6697,-2.6215,-2.5772,-2.4409,-2.2877,0.0,-2.0393,-1.9011,0.0,-1.6093,-1.5486,-1.4629,-1.3937,-1.3625,-1.3814,-1.3164,-1.2881,-1.3037,0.0,0.0,0.0,-1.2884,-1.2451,-1.1763,-1.3377,-1.3755,-1.3184,-1.4005,-1.4035,-1.3483,-1.309,-1.2789,-1.2627,-1.2832,-1.3025,-1.318,-1.3467,-1.3621,-1.3716,-1.4129,-1.4046,-1.3763,-1.38,-1.3286,-1.2676,-1.2529,-1.2431,-1.2274,-1.2274,-1.2666,-1.3104,-1.3324,-1.3705,-1.4046,-1.4326,-1.4373,-1.4373,-1.4373,-1.4766,-1.5159,-1.5312,-1.5727,-1.6046,-1.603,-1.5525,0.0,-1.418,0.0,-1.2671,-1.229,-1.2352,-1.2377,-1.2195,-1.3121,-1.3634,-1.3521,0.0,0.0,0.0,0.0,0.0,0.0,-1.8829,0.0,-2.0705,-2.0198,-1.9613,-1.8978,-1.8786,-1.8263,-1.7389,-1.7372,-1.7313,-1.7397,-1.7654,-1.8175,-1.8585,-1.8118,-1.8437,-1.9189,-1.9189,-1.9599,-2.0295,-2.0707,-2.1071,-2.1491,-2.8088,-2.8499,-2.8815,-2.9135,-2.8739,-2.8486,-2.8781,-2.8462,-2.805,-2.7374,-2.6994,-2.6633,-2.6245,-2.4886,0.0,-2.2067,-2.1116,-1.9562,-1.707,-1.6559,-1.5859,-1.4656,-1.411,-1.3706,-1.3491,-1.3253,0.0,-1.3494,-1.407,-1.4175,-1.371,-1.3399,-1.2749,-1.1995,-1.3441,-1.3758,-1.3275,-1.4121,-1.415,-1.3643,-1.3379,-1.3165,-1.3027,-1.318,-1.3266,-1.3372,-1.3515,-1.3716,-1.3952,-1.4082,-1.4129,-1.4093,-1.4082,-1.361,-1.3007,-1.2774,-1.2529,-1.2274,-1.2126,-1.2372,-1.2774,-1.3132,-1.3515,-1.3915,-1.4326,-1.4373,-1.4384,-1.4197,-1.4564,-1.4903,-1.4935,-1.516,-1.5478,-1.5764,-1.5324,-1.4804,-1.433,0.0,-1.3044,-1.2333,0.0,0.0,0.0,-1.313,-1.366,0.0,0.0,0.0,0.0,0.0,0.0,-1.8086,-1.8865,0.0,-2.0869,-2.0291,-1.9791,-1.9375,-1.905,-1.8258,-1.7147,-1.7358,-1.7369,-1.7111,-1.7588,-1.8172,-1.8858,-1.8333,-1.8743,-1.9681,-1.9495,-1.9714,-2.0151,-2.0324,-2.0518,-2.07,-2.8803,-2.861,-2.8527,0.0,-2.8266,0.0,-2.8866,-2.8702,-2.8195,-2.7456,-2.7105,-2.6465,-2.5358,-2.4507,-2.3834,-2.3228,0.0,0.0,0.0,-1.7345,-1.6245,-1.4708,-1.4438,-1.3957,-1.3143,-1.3228,-1.3563,-1.4114,-1.4387,-1.4486,-1.4372,-1.3876,-1.344,-1.3085,-1.3037,-1.3037,-1.3085,-1.3047,-1.2988,-1.2929,-1.2929,-1.2929,-1.2929,-1.3132,-1.3218,-1.3218,-1.3515,-1.3894,-1.428,-1.381,-1.4035,-1.4408,-1.3999,-1.3763,-1.3573,-1.291,-1.2725,-1.2627,-1.2224,-1.2372,-1.2764,-1.3122,-1.3515,-1.3962,-1.4326,-1.4373,-1.4233,-1.3868,-1.4146,-1.4416,-1.453,-1.4548,-1.4884,-1.5812,-1.5233,-1.4506,-1.4125,-1.3957,-1.3455,-1.2402,0.0,0.0,0.0,-1.3784,-1.4136,0.0,0.0,0.0,0.0,0.0,-1.6275,-1.743,-1.8585,-1.9626,-2.0685,-2.0085,-1.9609,-1.9293,-1.8541,-1.77,-1.6674,-1.7475,-1.751,-1.7079,-1.7432,-1.824,-1.9135,-1.8729,-1.9147,-2.0031,-1.9574,-1.9746,-2.0085,-2.0085,-2.0335,-2.0582,0.0,0.0,-2.9267,-2.9151,-2.859,-2.8354,-2.8971,-2.846,-2.8026,-2.8222,-2.7472,-2.6907,-2.6709,-2.5448,-2.4418,-2.3955,-2.27,-2.1117,-1.9292,-1.8497,-1.7291,-1.5378,-1.4653,-1.3999,-1.3354,-1.3752,-1.4385,-1.528,-1.4992,-1.4722,-1.4549,-1.3989,-1.3467,-1.2959,-1.3728,-1.37,-1.3125,-1.3871,-1.3771,-1.3027,-1.3027,-1.2978,-1.2929,-1.3075,-1.3152,-1.3218,-1.3372,-1.361,-1.3847,-1.414,-1.4326,-1.4419,-1.4362,-1.4398,-1.4247,-1.3218,-1.2803,-1.2627,-1.2224,-1.2175,-1.2421,-1.3025,-1.3742,-1.428,-1.4373,-1.414,-1.3915,-1.3821,-1.3645,-1.3608,-1.3922,-1.3561,-1.3509,-1.4223,-1.3797,-1.3252,-1.2991,-1.3284,-1.3099,0.0,-1.2905,-1.3296,-1.2604,-1.3212,-1.3527,0.0,0.0,0.0,-1.3996,-1.529,-1.644,-1.7451,-1.8814,-1.9511,-1.9683,-1.9759,-1.9312,-1.8338,-1.7058,-1.6381,-1.6381,-1.6,-1.6114,-1.6473,-1.6612,-1.7157,-1.8094,-1.8398,-1.8885,-1.9507,-1.9814,-1.9976,-2.0085,-2.0085,-2.014,-2.027,-2.9727,-2.9602,-2.9289,-2.9099,-2.8702,-2.8509,-2.8651,-2.8509,-2.8314,-2.8105,-2.7786,-2.74,-2.6814,-2.5683,-2.4748,-2.4197,-2.2789,-2.14,-2.0104,-1.8911,-1.7542,-1.5928,-1.5018,-1.4297,-1.3773,-1.4129,-1.4996,-1.6441,-1.6338,-1.5948,-1.5246,-1.4731,-1.3978,-1.3075,-1.3791,-1.379,-1.3278,-1.4039,-1.3869,-1.3152,-1.3152,-1.3065,-1.3027,-1.3162,-1.3238,-1.3218,-1.342,-1.3705,-1.3952,-1.3999,-1.4186,-1.4373,-1.4129,-1.4222,-1.4176,-1.3228,-1.2949,-1.2803,-1.2274,-1.2076,-1.2264,-1.3025,-1.3552,-1.3894,-1.4093,-1.381,-1.3467,-1.3344,-1.3253,-1.3322,-1.3503,-1.301,-1.2838,-1.3716,-1.3338,-1.291,-1.292,-1.3322,-1.3277,-1.2363,-1.3064,-1.3399,-1.2753,-1.3285,-1.3459,-1.2952,-1.3559,0.0,-1.318,-1.4835,-1.6181,-1.7033,-1.8334,-1.8844,-1.8442,-1.8432,-1.8152,-1.7482,-1.6664,-1.6245,-1.6035,-1.5824,-1.5833,-1.6123,-1.6464,-1.7088,-1.7774,-1.8566,-1.9034,-1.9365,-1.9868,-2.0085,-2.0085,-2.0085,-2.0085,-2.0151,-2.9988,-2.9602,-2.9162,-2.9099,-2.8844,-2.8522,-2.8327,-2.8651,-2.8675,-2.7657,-2.7823,-2.7537,-2.6078,-2.5332,-2.4687,-2.3995,-2.2541,-2.1325,-2.0677,-1.8991,-1.7489,-1.6373,-1.533,-1.4603,-1.4244,-1.4578,-1.5635,-1.7424,-1.7846,-1.7424,-1.6243,-1.565,-1.4644,-1.3362,-1.371,-1.3652,-1.342,-1.3863,-1.371,-1.3218,-1.3218,-1.319,-1.3113,-1.3276,-1.3314,-1.3266,-1.3467,-1.3905,-1.4186,-1.3752,-1.3952,-1.4326,-1.3752,-1.381,-1.3962,-1.3162,-1.3045,-1.3025,-1.2314,-1.2126,-1.2363,-1.3025,-1.3218,-1.3314,-1.3716,-1.3467,-1.3055,-1.2694,-1.284,-1.3081,-1.3241,-1.2609,-1.2475,-1.3702,-1.3197,-1.2747,-1.3139,0.0,-1.3549,-1.2865,-1.3574,-1.3819,-1.326,-1.3664,-1.3737,-1.2953,-1.363,-1.3639,-1.2489,-1.4197,-1.5588,-1.6391,-1.7408,-1.7716,-1.7235,-1.6872,-1.6655,-1.6724,-1.6585,-1.6245,-1.5621,-1.6035,-1.6105,-1.5833,-1.6664,-1.7285,-1.7638,-1.8767,-1.9177,-1.9233,-1.9868,-2.0085,-2.0085,-2.0085,-2.0085,-2.0085,-2.9988,-2.9803,-2.9415,-2.9162,-2.8844,-2.8716,-2.9058,-2.8739,-2.8306,-2.7854,-2.734,-2.6369,-2.4939,-2.4512,-2.4048,-2.3296,-2.2606,-2.1901,-2.125,-1.9521,-1.7972,-1.6546,-1.5382,-1.4654,-1.4395,-1.5591,-1.6868,-1.8062,-1.8157,-1.7798,-1.7108,-1.612,-1.499,-1.3894,-1.4003,-1.3826,-1.344,-1.4024,-1.3924,-1.3372,-1.3372,-1.3266,-1.318,-1.3218,-1.3266,-1.3362,-1.342,-1.3563,-1.3716,-1.361,-1.3952,-1.4326,-1.3752,-1.4071,-1.4387,-1.3248,-1.3045,-1.3025,-1.2314,-1.2332,-1.2715,-1.3122,-1.3218,-1.3314,-1.3716,-1.3296,-1.2713,-1.2419,-1.2131,-1.2146,-1.2854,-1.1972,-1.1734,-1.3673,-1.2579,-1.1775,-1.2606,0.0,-1.3467,-1.2696,-1.3988,-1.4664,-1.4006,-1.3763,-1.3545,-1.3333,-1.2877,-1.2821,-1.318,-1.3549,-1.4277,-1.5443,-1.5895,-1.6237,-1.6446,-1.5824,-1.5621,-1.5965,-1.5267,-1.4919,-1.4776,-1.5551,-1.5833,-1.5833,-1.6612,-1.6968,-1.7107,-1.8172,-1.8633,-1.871,-1.9736,-2.0085,-2.0085,-2.0085,-2.0085,-2.0085,-2.928,-2.9364,-2.9289,-2.9099,-2.8844,-2.8766,-2.9247,-2.8688,-2.84,-2.8844,-2.7631,-2.6481,-2.6029,-2.4998,-2.4183,-2.3675,-2.2276,-2.1264,-2.0962,-1.9582,-1.8162,-1.6685,-1.5588,-1.4956,-1.4891,-1.6361,-1.7345,-1.7765,-1.8643,-1.8289,-1.6788,-1.6319,-1.5352,-1.4129,-1.4058,-1.3855,-1.3525,-1.4127,-1.4047,-1.3515,-1.3515,-1.3562,-1.3658,-1.3463,-1.3573,-1.3746,-1.3549,-1.3573,-1.3621,-1.3621,-1.3763,-1.3952,-1.3668,-1.3941,-1.4129,-1.3162,-1.2764,-1.255,-1.2175,-1.2224,-1.248,-1.2852,-1.2754,-1.2696,-1.3104,-1.2559,-1.1926,-1.1991,-1.1915,-1.1906,-1.2298,-1.2025,-1.2094,-1.305,-1.2506,0.0,0.0,-1.3132,-1.3419,-1.3254,-1.3815,-1.4178,-1.4117,-1.3889,-1.3596,-1.323,-1.2922,-1.2721,-1.2683,-1.2787,-1.3365,-1.4421,-1.4969,-1.5392,-1.5683,-1.5054,-1.4919,-1.5133,-1.4776,-1.4856,-1.5275,-1.5204,-1.5762,-1.6802,-1.6751,-1.7166,-1.7842,-1.8633,-1.89,-1.9044,-1.9802,-2.0085,-2.0085,-2.0085,-2.0085,-2.0085,-2.8376,-2.8759,-2.9004,-2.8878,-2.8812,-2.883,-2.9296,-2.863,-2.8429,-2.9294,-2.7612,-2.6394,-2.6558,-2.5097,-2.3979,-2.369,-2.189,-2.0656,-2.0414,-1.9342,-1.8109,-1.6706,-1.5698,-1.5197,-1.5244,-1.6621,-1.7392,-1.7388,-1.8756,-1.84,-1.6431,-1.6319,-1.556,-1.4222,-1.4025,-1.38,-1.3621,-1.4163,-1.4158,-1.3786,-1.389,-1.4099,-1.4256,-1.3903,-1.3895,-1.4092,-1.3728,-1.3621,-1.3621,-1.3621,-1.3621,-1.3621,-1.3621,-1.3773,-1.3879,-1.3123,-1.2529,-1.2076,-1.2076,-1.209,-1.2136,-1.2607,-1.2447,-1.2345,-1.2646,-1.2,-1.1481,-1.1664,-1.1751,-1.1811,-1.1973,-1.2097,-1.2273,-1.2569,0.0,0.0,0.0,-1.2811,-1.3149,-1.3453,-1.3412,-1.3605,-1.4096,-1.3948,-1.3654,-1.3346,-1.3186,-1.2892,-1.2299,-1.238,-1.2743,-1.3275,-1.4351,-1.4911,-1.4919,-1.4561,-1.4458,-1.4443,-1.453,-1.4942,-1.5625,-1.5092,-1.5895,-1.7628,-1.7079,-1.7491,-1.8509,-1.9044,-1.9299,-1.9365,-1.9868,-2.0085,-2.0085,-2.0085,-2.0085,-2.0085,-2.7731,-2.8296,-2.8596,-2.8215,-2.865,-2.9149,-2.9456,-2.8809,-2.8312,-2.8311,-2.6567,-2.5143,-2.4744,-2.3642,-2.2789,-2.2488,-2.1793,-2.0909,-1.9889,-1.8771,-1.7666,-1.6556,-1.5557,-1.503,-1.5119,-1.6124,-1.6919,-1.7388,-1.8016,-1.7731,-1.6582,-1.6138,-1.5355,-1.4373,-1.3858,-1.3621,-1.3641,-1.4125,-1.4252,-1.4293,-1.4718,-1.4914,-1.4894,-1.4428,-1.4273,-1.4242,-1.3786,-1.3621,-1.3621,-1.3621,-1.3621,-1.3621,-1.3621,-1.3773,-1.3879,-1.3123,-1.2529,-1.2076,-1.2076,-1.2037,-1.2069,-1.2575,-1.2654,-1.2679,-1.2713,-1.2157,-1.1664,-1.1805,-1.1624,-1.1621,-1.2225,-1.1713,-1.1588,-1.2851,0.0,0.0,-1.1821,-1.1979,-1.2217,-1.2459,-1.2741,-1.3346,-1.4243,-1.4018,-1.3816,-1.387,-1.352,-1.3274,-1.3042,-1.2563,-1.2268,-1.2137,-1.3947,-1.4697,-1.4201,-1.4353,-1.4332,-1.4156,-1.4482,-1.4812,-1.5232,-1.56,-1.6315,-1.7404,-1.756,-1.7852,-1.8405,-1.9044,-1.9299,-1.9365,-1.9868,-2.0085,-2.0085,-2.0085,-2.0085,-2.0085,-2.7101,-2.7838,-2.8434,-2.8697,-2.8279,-2.8432,-2.9897,-2.8446,-2.7635,-2.8958,-2.684,-2.5186,-2.5114,-2.3715,-2.2668,-2.2309,-2.1158,-2.0076,-1.928,-1.816,-1.7015,-1.5764,-1.5052,-1.472,-1.4743,-1.5402,-1.5834,-1.599,-1.6765,-1.6646,-1.5659,-1.5446,-1.5012,-1.4373,-1.3752,-1.3515,-1.3631,-1.3807,-1.4045,-1.4293,-1.419,-1.448,-1.4914,-1.4169,-1.4055,-1.4242,-1.3776,-1.3796,-1.4003,-1.3714,-1.3807,-1.3993,-1.3703,-1.3773,-1.3879,-1.3286,-1.2353,-1.1678,-1.2026,-1.2086,-1.2058,-1.2262,-1.2336,-1.2259,-1.1913,-1.1498,-1.1208,-1.1218,-1.1169,-1.1269,-1.1682,-1.1751,-1.1881,-1.2466,0.0,-1.2079,-1.1946,-1.1937,-1.2111,-1.2514,-1.2524,-1.2952,-1.4129,-1.4086,-1.4009,-1.4009,-1.4042,-1.3816,-1.3255,-1.2721,-1.2402,-1.2336,-1.3447,-1.3971,-1.3767,-1.4181,-1.4434,-1.4442,-1.4577,-1.5192,-1.6222,-1.5413,-1.6376,-1.8519,-1.7491,-1.7901,-1.9264,-1.8911,-1.8967,-1.9299,-1.9518,-1.9584,-1.9649,-2.0009,-2.0085,-2.0085,-2.647,-2.7188,-2.7926,-2.841,-2.8102,-2.8285,-2.971,-2.824,-2.7482,-2.8871,-2.6509,-2.4713,-2.4932,-2.3311,-2.2145,-2.1851,-2.0414,-1.9242,-1.8677,-1.7567,-1.649,-1.5415,-1.507,-1.4811,-1.465,-1.4908,-1.5082,-1.5108,-1.5715,-1.5609,-1.4891,-1.4843,-1.4584,-1.414,-1.3658,-1.3515,-1.3631,-1.3921,-1.4148,-1.4304,-1.4333,-1.4613,-1.4914,-1.4187,-1.4084,-1.4242,-1.3776,-1.3828,-1.4045,-1.3724,-1.3828,-1.4035,-1.3714,-1.3631,-1.3583,-1.3218,-1.2478,-1.1804,-1.2209,-1.236,-1.2397,-1.214,-1.2108,-1.2057,-1.1524,-1.1258,-1.1092,-1.1177,-1.1238,-1.1356,-1.165,-1.1864,-1.2103,-1.2138,-1.2217,-1.2065,-1.1733,-1.1533,-1.1577,-1.1868,-1.1706,-1.1996,-1.3164,-1.347,-1.3688,-1.3833,-1.4201,-1.4142,-1.3459,-1.308,-1.2772,-1.2593,-1.3332,-1.367,-1.3569,-1.4135,-1.4442,-1.4403,-1.4514,-1.5342,-1.667,-1.528,-1.6167,-1.8798,-1.7423,-1.7765,-1.9198,-1.9266,-1.9168,-1.9054,-1.94,-1.9435,-1.9375,-1.9726,-1.9944,-2.0085,-2.5784,-2.6385,-2.6863,-2.7157,-2.8225,-2.8956,-2.8668,-2.8197,-2.784,-2.7708,-2.524,-2.3576,-2.3687,-2.2137,-2.0998,-2.0718,-1.9579,-1.8688,-1.8127,-1.7022,-1.6177,-1.5711,-1.5691,-1.5458,-1.5007,-1.4866,-1.488,-1.5074,-1.496,-1.4731,-1.4373,-1.4373,-1.4093,-1.3621,-1.3621,-1.3621,-1.3683,-1.4604,-1.4728,-1.4386,-1.5478,-1.5519,-1.4945,-1.4641,-1.4403,-1.4242,-1.3786,-1.3621,-1.3631,-1.3631,-1.3631,-1.3631,-1.3621,-1.3296,-1.2929,-1.2977,-1.2845,-1.2724,-1.2724,-1.2975,-1.3103,-1.2287,-1.2202,-1.2223,-1.1803,-1.1542,-1.15,-1.1747,-1.186,-1.1957,-1.2245,-1.2157,-1.2032,-1.2101,-1.192,-1.1605,-1.0962,-1.0573,-1.033,-1.0472,-1.0143,-1.0282,-1.1304,-1.2137,-1.2739,-1.3164,-1.3905,-1.4142,-1.3607,-1.3584,-1.3362,-1.2818,-1.3531,-1.3752,-1.3431,-1.4229,-1.4466,-1.4117,-1.4474,-1.5208,-1.6257,-1.5093,-1.5816,-1.7969,-1.7609,-1.755,-1.7872,-2.0037,-1.9952,-1.8617,-1.9619,-1.9718,-1.9309,-1.9309,-1.966,-2.0085,-2.5592,-2.6103,-2.6562,-2.6849,-2.6863,-2.7117,-2.7911,-2.6804,-2.6061,-2.6581,-2.4901,-2.3525,-2.3253,-2.1975,-2.0813,-2.011,-1.9377,-1.8538,-1.7545,-1.6965,-1.6528,-1.6187,-1.5866,-1.5454,-1.5007,-1.4449,-1.426,-1.438,-1.3936,-1.3695,-1.3705,-1.38,-1.3752,-1.3621,-1.3621,-1.3621,-1.3652,-1.4252,-1.4438,-1.4335,-1.4767,-1.4747,-1.4459,-1.415,-1.3924,-1.3848,-1.4035,-1.4304,-1.4583,-1.4583,-1.4583,-1.4419,-1.3468,-1.3302,-1.338,-1.3023,-1.2868,-1.2824,-1.3049,-1.3204,-1.3231,-1.2993,-1.2747,-1.2379,-1.1742,-1.1593,-1.1446,-1.056,-1.1181,-1.1814,-1.1508,-1.1941,-1.2266,-1.2132,-1.1997,-1.1605,-1.0967,-1.0357,-1.0149,-1.0449,-1.0143,-1.0218,-1.1105,-1.1781,-1.2365,-1.2938,-1.3753,-1.4091,-1.3991,-1.3565,-1.3497,-1.3689,-1.3623,-1.3627,-1.376,-1.4348,-1.4466,-1.4117,-1.4474,-1.5342,-1.6679,-1.528,-1.6097,-1.8721,-1.7668,-1.7677,-1.8569,-1.9708,-1.9448,-1.8457,-1.9455,-1.9575,-1.9188,-1.9599,-1.9881,-2.0085,-2.5494,-2.5743,-2.606,-2.6385,-2.6343,-2.6427,-2.699,-2.6059,-2.5327,-2.5507,-2.3917,-2.2648,-2.2437,-2.1208,-2.0154,-1.9522,-1.8844,-1.8007,-1.7112,-1.6909,-1.6705,-1.6545,-1.6217,-1.5797,-1.5277,-1.4777,-1.4399,-1.4204,-1.3768,-1.3545,-1.3467,-1.3563,-1.3621,-1.3621,-1.3621,-1.3621,-1.3652,-1.4107,-1.42,-1.4045,-1.439,-1.431,-1.4003,-1.3926,-1.3763,-1.3672,-1.4198,-1.4426,-1.4511,-1.4873,-1.4997,-1.4852,-1.4073,-1.3753,-1.3645,-1.3293,-1.3141,-1.3079,-1.3255,-1.3541,-1.3809,-1.3965,-1.3284,-1.2484,-1.2174,-1.1985,-1.1526,-1.0374,-1.0945,-1.1594,-1.1313,-1.1794,-1.2298,-1.2388,-1.2317,-1.1967,-1.1379,-1.0533,-1.01,-1.0229,-0.9765,-0.9609,-1.0132,-1.0881,-1.17,-1.2505,-1.3178,-1.3542,-1.3608,-1.3411,-1.3688,-1.4402,-1.4034,-1.3978,-1.4183,-1.4324,-1.4323,-1.4117,-1.4474,-1.5267,-1.6455,-1.5196,-1.5956,-1.8172,-1.7267,-1.7482,-1.8444,-1.9689,-1.9484,-1.845,-1.963,-1.9827,-1.9445,-1.9716,-2.007,-2.0435,-2.5313,-2.5383,-2.5439,-2.5744,-2.626,-2.6498,-2.5938,-2.5736,-2.5338,-2.4532,-2.259,-2.1288,-2.1356,-2.0217,-1.9271,-1.894,-1.802,-1.7311,-1.6871,-1.6839,-1.6818,-1.6818,-1.6694,-1.6392,-1.5808,-1.5591,-1.5159,-1.4428,-1.4184,-1.3938,-1.3625,-1.3631,-1.3621,-1.3621,-1.3621,-1.3621,-1.3652,-1.4159,-1.4076,-1.3662,-1.4328,-1.4174,-1.3668,-1.3915,-1.3868,-1.3683,-1.4349,-1.4205,-1.3869,-1.4759,-1.509,-1.5111,-1.4965,-1.4393,-1.3742,-1.3758,-1.3561,-1.3429,-1.3496,-1.4015,-1.4662,-1.5056,-1.3887,-1.2734,-1.2981,-1.2533,-1.1748,-1.0761,-1.0962,-1.1337,-1.1266,-1.1508,-1.195,-1.2603,-1.2584,-1.2318,-1.1756,-1.089,-1.0236,-0.9949,-0.9236,-0.878,-0.8703,-0.9781,-1.0854,-1.1857,-1.2284,-1.2627,-1.276,-1.3145,-1.3841,-1.4793,-1.4678,-1.4657,-1.4617,-1.4339,-1.414,-1.4117,-1.4474,-1.4991,-1.5762,-1.4991,-1.5471,-1.7001,-1.6664,-1.7019,-1.791,-1.9848,-1.9758,-1.8466,-1.9999,-2.029,-1.9805,-1.9887,-2.0292,-2.0793,-2.4536,-2.4452,-2.4424,-2.4661,-2.5368,-2.5761,-2.5333,-2.5308,-2.4998,-2.4054,-2.2268,-2.0957,-2.0571,-2.0128,-1.9412,-1.8227,-1.7745,-1.7477,-1.7328,-1.7237,-1.7043,-1.6807,-1.6751,-1.6652,-1.6434,-1.5801,-1.5413,-1.5219,-1.445,-1.4042,-1.4,-1.3728,-1.3621,-1.3621,-1.3621,-1.3621,-1.3672,-1.449,-1.4376,-1.3683,-1.4784,-1.4616,-1.3763,-1.4035,-1.3999,-1.3878,-1.4765,-1.4893,-1.478,-1.5349,-1.5784,-1.5894,-1.4723,-1.4359,-1.4255,-1.3997,-1.3731,-1.3579,-1.4132,-1.4611,-1.5065,-1.546,-1.5077,-1.4305,-1.3292,-1.3127,-1.2418,-0.9907,-1.0461,-1.1028,-0.9781,-1.0363,-1.1067,-1.1062,-1.1317,-1.1421,-1.1124,-1.0695,-1.0355,-0.9927,-0.9468,-0.9013,-0.8699,-0.9766,-1.0729,-1.1248,-1.1682,-1.1942,-1.1936,-1.2614,-1.3305,-1.3938,-1.4379,-1.4776,-1.5062,-1.4704,-1.4387,-1.4117,-1.4474,-1.4991,-1.5762,-1.4991,-1.5754,-1.7696,-1.6793,-1.6941,-1.8076,-1.9353,-1.9146,-1.835,-2.0305,-2.044,-1.9681,-2.0728,-2.0655,-2.016,-2.4234,-2.3917,-2.3667,-2.3987,-2.4253,-2.4478,-2.4682,-2.4517,-2.4103,-2.3543,-2.1749,-2.0399,-1.9995,-1.9435,-1.8954,-1.8497,-1.7852,-1.7557,-1.7744,-1.7701,-1.7462,-1.7054,-1.6874,-1.6761,-1.6694,-1.6182,-1.5842,-1.5571,-1.4872,-1.4419,-1.4193,-1.4006,-1.3828,-1.3631,-1.3848,-1.3828,-1.3662,-1.4366,-1.4312,-1.3778,-1.4647,-1.456,-1.3915,-1.4129,-1.4185,-1.4251,-1.5016,-1.5457,-1.5659,-1.568,-1.6001,-1.6291,-1.5517,-1.4878,-1.4483,-1.4455,-1.401,-1.3666,-1.4362,-1.4814,-1.5239,-1.5835,-1.5882,-1.5358,-1.4109,-1.366,-1.2846,-1.0521,-1.0458,-1.0655,-0.9941,-1.0156,-1.0513,-1.0658,-1.0699,-1.0658,-1.039,-1.0243,-1.0052,-0.9483,-0.9569,-0.9551,-0.9321,-0.9943,-1.0437,-1.0525,-1.079,-1.1111,-1.1414,-1.2112,-1.2859,-1.3554,-1.4225,-1.4662,-1.4793,-1.4505,-1.4379,-1.4363,-1.4554,-1.4848,-1.5204,-1.4991,-1.5754,-1.7139,-1.6524,-1.7019,-1.8203,-1.8987,-1.8985,-1.8638,-2.0138,-2.0564,-2.0358,-2.1049,-2.1073,-2.0711,-2.4105,-2.3446,-2.3005,-2.3346,-2.3238,-2.3359,-2.4014,-2.3697,-2.3311,-2.31,-2.1187,-1.9726,-1.9549,-1.8717,-1.8497,-1.9175,-1.8425,-1.7997,-1.8119,-1.8043,-1.7791,-1.73,-1.6987,-1.6807,-1.6818,-1.6534,-1.6244,-1.5804,-1.5339,-1.4925,-1.4542,-1.4469,-1.4179,-1.3745,-1.4138,-1.4045,-1.3652,-1.419,-1.4257,-1.3978,-1.4489,-1.4454,-1.4174,-1.4219,-1.4345,-1.4626,-1.5162,-1.5825,-1.6322,-1.5939,-1.6063,-1.6384,-1.6431,-1.5652,-1.4697,-1.4942,-1.441,-1.383,-1.4533,-1.4952,-1.5386,-1.6138,-1.6367,-1.6156,-1.5043,-1.425,-1.315,-1.1421,-1.0795,-1.06,-1.0363,-1.0248,-1.023,-1.0478,-1.0406,-1.0138,-0.9712,-0.974,-0.9656,-0.9166,-0.9587,-0.9933,-0.9821,-0.9966,-1.0031,-0.9866,-0.9987,-1.032,-1.0863,-1.1593,-1.2337,-1.3099,-1.4111,-1.451,-1.4336,-1.4322,-1.4442,-1.4728,-1.4601,-1.4569,-1.4641,-1.5056,-1.5681,-1.6306,-1.6395,-1.7093,-1.8203,-1.8629,-1.8829,-1.8851,-1.9841,-2.0469,-2.0914,-2.0918,-2.1219,-2.1461,-2.3577,-2.2738,-2.2044,-2.2595,-2.2974,-2.3266,-2.3304,-2.3329,-2.3232,-2.2982,-2.0591,-1.9015,-1.9231,-1.8877,-1.8934,-1.975,-1.9666,-1.9271,-1.8622,-1.8228,-1.7791,-1.73,-1.7078,-1.6909,-1.6818,-1.6637,-1.6503,-1.6291,-1.5825,-1.5566,-1.5494,-1.509,-1.4656,-1.4221,-1.4283,-1.4045,-1.3672,-1.4673,-1.4828,-1.4461,-1.5177,-1.5182,-1.4758,-1.449,-1.4499,-1.4736,-1.5224,-1.5825,-1.6363,-1.6301,-1.6332,-1.6431,-1.6524,-1.6036,-1.5439,-1.5468,-1.5059,-1.4621,-1.4921,-1.5349,-1.5725,-1.6202,-1.6578,-1.6627,-1.5824,-1.5037,-1.3727,-1.1244,-1.1224,-1.118,-0.9639,-1.0333,-1.0626,-0.9139,-0.9843,-1.0208,-0.9083,-0.9257,-0.9629,-0.9761,-0.9787,-0.9607,-0.939,-0.938,-0.9452,-0.9671,-0.9485,-0.9609,-1.0019,-1.0847,-1.1575,-1.2037,-1.3782,-1.4704,-1.4672,-1.493,-1.5062,-1.511,-1.4792,-1.4569,-1.4649,-1.5397,-1.5935,-1.6324,-1.6688,-1.7149,-1.7674,-1.807,-1.8193,-1.835,-1.9687,-1.9923,-1.9603,-1.9856,-2.0606,-2.1505,-2.2616,-2.2013,-2.1544,-2.1969,-2.2067,-2.2321,-2.2935,-2.3009,-2.28,-2.2408,-2.0787,-1.9448,-1.8736,-1.8126,-1.8262,-1.965,-1.9487,-1.9247,-1.9113,-1.8654,-1.8174,-1.7579,-1.7218,-1.6899,-1.6694,-1.6265,-1.5979,-1.5836,-1.5741,-1.5691,-1.568,-1.5214,-1.4749,-1.4304,-1.4304,-1.4045,-1.3672,-1.4736,-1.4963,-1.4694,-1.5314,-1.538,-1.4953,-1.4559,-1.4709,-1.5171,-1.5741,-1.6154,-1.6384,-1.6384,-1.6384,-1.6431,-1.6581,-1.6335,-1.6059,-1.6009,-1.5696,-1.5489,-1.5735,-1.5909,-1.6138,-1.6541,-1.678,-1.6691,-1.5974,-1.518,-1.4124,-1.2625,-1.1929,-1.1412,-1.075,-1.0896,-1.066,-0.9497,-0.9693,-0.9714,-0.8599,-0.8867,-0.9409,-1.0169,-0.9794,-0.9595,-0.981,-0.9834,-0.9795,-0.9639,-0.9559,-0.962,-0.9912,-1.0712,-1.1124,-1.1059,-1.2763,-1.3669,-1.3669,-1.4396,-1.4875,-1.5189,-1.5213,-1.5014,-1.4649,-1.5441,-1.5854,-1.6044,-1.666,-1.7122,-1.7497,-1.7954,-1.8256,-1.8485,-1.9142,-1.9286,-1.9231,-1.9696,-2.0237,-2.0679]}]]